<?xml version="1.0" encoding="UTF-8" standalone="no" ?>
<gpx xmlns="http://www.topografix.com/GPX/1/1" xmlns:xsi="http://www.w3.org/2001/XMLSchema-instance" xsi:schemaLocation="http://www.topografix.com/GPX/1/1 http://www.topografix.com/GPX/1/1/gpx.xsd" version="1.1" creator="VisuGPX - https://www.visugpx.com">
  <metadata>
    <name>MONTEE ALPE D\'HUEZ</name>
    <desc><![CDATA[MONTEE ALPE D\'HUEZ]]></desc>
  </metadata>
  <trk>
    <name><![CDATA[GpsPruneTrack]]></name>
    <trkseg>
      <trkpt lat="45.05392" lon="6.07795">
        <ele>1661.868201</ele>
        <time>2013-07-14T11:30:50Z</time>
      </trkpt>
      <trkpt lat="45.05451" lon="6.07845">
        <ele>1685.267087</ele>
        <time>2013-07-14T11:30:55Z</time>
      </trkpt>
      <trkpt lat="45.05523" lon="6.07875">
        <ele>1684.804506</ele>
        <time>2013-07-14T11:31:00Z</time>
      </trkpt>
      <trkpt lat="45.05541" lon="6.07876">
        <ele>1674.155488</ele>
        <time>2013-07-14T11:31:05Z</time>
      </trkpt>
      <trkpt lat="45.05546" lon="6.07912">
        <ele>1675.574397</ele>
        <time>2013-07-14T11:31:10Z</time>
      </trkpt>
      <trkpt lat="45.05546" lon="6.07951">
        <ele>1672.890979</ele>
        <time>2013-07-14T11:31:15Z</time>
      </trkpt>
      <trkpt lat="45.05535" lon="6.07986">
        <ele>1662.256347</ele>
        <time>2013-07-14T11:31:20Z</time>
      </trkpt>
      <trkpt lat="45.05516" lon="6.08025">
        <ele>1660.345234</ele>
        <time>2013-07-14T11:31:25Z</time>
      </trkpt>
      <trkpt lat="45.05496" lon="6.08067">
        <ele>1657.881554</ele>
        <time>2013-07-14T11:31:30Z</time>
      </trkpt>
      <trkpt lat="45.05496" lon="6.08123">
        <ele>1640.664314</ele>
        <time>2013-07-14T11:31:35Z</time>
      </trkpt>
      <trkpt lat="45.05512" lon="6.08185">
        <ele>1634.390227</ele>
        <time>2013-07-14T11:31:40Z</time>
      </trkpt>
      <trkpt lat="45.0552" lon="6.0825">
        <ele>1631.12955</ele>
        <time>2013-07-14T11:31:45Z</time>
      </trkpt>
      <trkpt lat="45.05518" lon="6.08323">
        <ele>1626.94036</ele>
        <time>2013-07-14T11:31:50Z</time>
      </trkpt>
      <trkpt lat="45.0551" lon="6.08398">
        <ele>1624.290304</ele>
        <time>2013-07-14T11:31:55Z</time>
      </trkpt>
      <trkpt lat="45.05494" lon="6.08468">
        <ele>1623.496818</ele>
        <time>2013-07-14T11:32:00Z</time>
      </trkpt>
      <trkpt lat="45.05472" lon="6.08529">
        <ele>1622.227861</ele>
        <time>2013-07-14T11:32:05Z</time>
      </trkpt>
      <trkpt lat="45.05461" lon="6.086">
        <ele>1617.928458</ele>
        <time>2013-07-14T11:32:10Z</time>
      </trkpt>
      <trkpt lat="45.05449" lon="6.08673">
        <ele>1616.599837</ele>
        <time>2013-07-14T11:32:15Z</time>
      </trkpt>
      <trkpt lat="45.05429" lon="6.08745">
        <ele>1616.644712</ele>
        <time>2013-07-14T11:32:20Z</time>
      </trkpt>
      <trkpt lat="45.05404" lon="6.08818">
        <ele>1616.041363</ele>
        <time>2013-07-14T11:32:25Z</time>
      </trkpt>
      <trkpt lat="45.05373" lon="6.08889">
        <ele>1613.926923</ele>
        <time>2013-07-14T11:32:30Z</time>
      </trkpt>
      <trkpt lat="45.05337" lon="6.08957">
        <ele>1610.231832</ele>
        <time>2013-07-14T11:32:35Z</time>
      </trkpt>
      <trkpt lat="45.05315" lon="6.09035">
        <ele>1603.597465</ele>
        <time>2013-07-14T11:32:40Z</time>
      </trkpt>
      <trkpt lat="45.05312" lon="6.09128">
        <ele>1596.312994</ele>
        <time>2013-07-14T11:32:45Z</time>
      </trkpt>
      <trkpt lat="45.05305" lon="6.09221">
        <ele>1587.672905</ele>
        <time>2013-07-14T11:32:50Z</time>
      </trkpt>
      <trkpt lat="45.0531" lon="6.09301">
        <ele>1578.964294</ele>
        <time>2013-07-14T11:32:55Z</time>
      </trkpt>
      <trkpt lat="45.05347" lon="6.09359">
        <ele>1575.934958</ele>
        <time>2013-07-14T11:33:00Z</time>
      </trkpt>
      <trkpt lat="45.05388" lon="6.09392">
        <ele>1575.647593</ele>
        <time>2013-07-14T11:33:05Z</time>
      </trkpt>
      <trkpt lat="45.05396" lon="6.09464">
        <ele>1572.141909</ele>
        <time>2013-07-14T11:33:10Z</time>
      </trkpt>
      <trkpt lat="45.05398" lon="6.09551">
        <ele>1567.322595</ele>
        <time>2013-07-14T11:33:15Z</time>
      </trkpt>
      <trkpt lat="45.05412" lon="6.09642">
        <ele>1559.961942</ele>
        <time>2013-07-14T11:33:20Z</time>
      </trkpt>
      <trkpt lat="45.05427" lon="6.09724">
        <ele>1557.009983</ele>
        <time>2013-07-14T11:33:25Z</time>
      </trkpt>
      <trkpt lat="45.05441" lon="6.09791">
        <ele>1551.747977</ele>
        <time>2013-07-14T11:33:30Z</time>
      </trkpt>
      <trkpt lat="45.05437" lon="6.09813">
        <ele>1550.18728</ele>
        <time>2013-07-14T11:33:35Z</time>
      </trkpt>
      <trkpt lat="45.05414" lon="6.09772">
        <ele>1549.244796</ele>
        <time>2013-07-14T11:33:40Z</time>
      </trkpt>
      <trkpt lat="45.05379" lon="6.09724">
        <ele>1545.756138</ele>
        <time>2013-07-14T11:33:45Z</time>
      </trkpt>
      <trkpt lat="45.05353" lon="6.09658">
        <ele>1539.764188</ele>
        <time>2013-07-14T11:33:50Z</time>
      </trkpt>
      <trkpt lat="45.05332" lon="6.09575">
        <ele>1533.446227</ele>
        <time>2013-07-14T11:33:55Z</time>
      </trkpt>
      <trkpt lat="45.05293" lon="6.09515">
        <ele>1527.150064</ele>
        <time>2013-07-14T11:34:00Z</time>
      </trkpt>
      <trkpt lat="45.05241" lon="6.09478">
        <ele>1520.821833</ele>
        <time>2013-07-14T11:34:05Z</time>
      </trkpt>
      <trkpt lat="45.05208" lon="6.09432">
        <ele>1516.005785</ele>
        <time>2013-07-14T11:34:10Z</time>
      </trkpt>
      <trkpt lat="45.05199" lon="6.09358">
        <ele>1513.088377</ele>
        <time>2013-07-14T11:34:15Z</time>
      </trkpt>
      <trkpt lat="45.05203" lon="6.0928">
        <ele>1509.849325</ele>
        <time>2013-07-14T11:34:20Z</time>
      </trkpt>
      <trkpt lat="45.052" lon="6.0919">
        <ele>1503.084024</ele>
        <time>2013-07-14T11:34:25Z</time>
      </trkpt>
      <trkpt lat="45.052" lon="6.09093">
        <ele>1496.657731</ele>
        <time>2013-07-14T11:34:30Z</time>
      </trkpt>
      <trkpt lat="45.05199" lon="6.0899">
        <ele>1490.560077</ele>
        <time>2013-07-14T11:34:35Z</time>
      </trkpt>
      <trkpt lat="45.05202" lon="6.08887">
        <ele>1484.404324</ele>
        <time>2013-07-14T11:34:40Z</time>
      </trkpt>
      <trkpt lat="45.05203" lon="6.08799">
        <ele>1482.038812</ele>
        <time>2013-07-14T11:34:45Z</time>
      </trkpt>
      <trkpt lat="45.05176" lon="6.08724">
        <ele>1474.82155</ele>
        <time>2013-07-14T11:34:50Z</time>
      </trkpt>
      <trkpt lat="45.05156" lon="6.08643">
        <ele>1470.077171</ele>
        <time>2013-07-14T11:34:55Z</time>
      </trkpt>
      <trkpt lat="45.05152" lon="6.08558">
        <ele>1470.035372</ele>
        <time>2013-07-14T11:35:00Z</time>
      </trkpt>
      <trkpt lat="45.05156" lon="6.08479">
        <ele>1468.137719</ele>
        <time>2013-07-14T11:35:05Z</time>
      </trkpt>
      <trkpt lat="45.05157" lon="6.08405">
        <ele>1464.486588</ele>
        <time>2013-07-14T11:35:10Z</time>
      </trkpt>
      <trkpt lat="45.05147" lon="6.08354">
        <ele>1462.216494</ele>
        <time>2013-07-14T11:35:15Z</time>
      </trkpt>
      <trkpt lat="45.05155" lon="6.08312">
        <ele>1465.338168</ele>
        <time>2013-07-14T11:35:20Z</time>
      </trkpt>
      <trkpt lat="45.05175" lon="6.08269">
        <ele>1464.904244</ele>
        <time>2013-07-14T11:35:25Z</time>
      </trkpt>
      <trkpt lat="45.05168" lon="6.08234">
        <ele>1467.077013</ele>
        <time>2013-07-14T11:35:30Z</time>
      </trkpt>
      <trkpt lat="45.05129" lon="6.08228">
        <ele>1466.136972</ele>
        <time>2013-07-14T11:35:35Z</time>
      </trkpt>
      <trkpt lat="45.05079" lon="6.08216">
        <ele>1462.65789</ele>
        <time>2013-07-14T11:35:40Z</time>
      </trkpt>
      <trkpt lat="45.05028" lon="6.0822">
        <ele>1456.629446</ele>
        <time>2013-07-14T11:35:45Z</time>
      </trkpt>
      <trkpt lat="45.0498" lon="6.0826">
        <ele>1444.959484</ele>
        <time>2013-07-14T11:35:50Z</time>
      </trkpt>
      <trkpt lat="45.04908" lon="6.08306">
        <ele>1438.579089</ele>
        <time>2013-07-14T11:35:55Z</time>
      </trkpt>
      <trkpt lat="45.04826" lon="6.08332">
        <ele>1430.402596</ele>
        <time>2013-07-14T11:36:00Z</time>
      </trkpt>
      <trkpt lat="45.04765" lon="6.08363">
        <ele>1428.100604</ele>
        <time>2013-07-14T11:36:05Z</time>
      </trkpt>
      <trkpt lat="45.04728" lon="6.08421">
        <ele>1423.802079</ele>
        <time>2013-07-14T11:36:10Z</time>
      </trkpt>
      <trkpt lat="45.04711" lon="6.08443">
        <ele>1428.686177</ele>
        <time>2013-07-14T11:36:15Z</time>
      </trkpt>
      <trkpt lat="45.04704" lon="6.08453">
        <ele>1432.862608</ele>
        <time>2013-07-14T11:36:20Z</time>
      </trkpt>
      <trkpt lat="45.04675" lon="6.08458">
        <ele>1429.670752</ele>
        <time>2013-07-14T11:36:25Z</time>
      </trkpt>
      <trkpt lat="45.04644" lon="6.08453">
        <ele>1419.521077</ele>
        <time>2013-07-14T11:36:30Z</time>
      </trkpt>
      <trkpt lat="45.04605" lon="6.08451">
        <ele>1413.093698</ele>
        <time>2013-07-14T11:36:35Z</time>
      </trkpt>
      <trkpt lat="45.04557" lon="6.08451">
        <ele>1410.378564</ele>
        <time>2013-07-14T11:36:40Z</time>
      </trkpt>
      <trkpt lat="45.04515" lon="6.08457">
        <ele>1405.173552</ele>
        <time>2013-07-14T11:36:45Z</time>
      </trkpt>
      <trkpt lat="45.04504" lon="6.08472">
        <ele>1402.503384</ele>
        <time>2013-07-14T11:36:50Z</time>
      </trkpt>
      <trkpt lat="45.04527" lon="6.08486">
        <ele>1388.389368</ele>
        <time>2013-07-14T11:36:55Z</time>
      </trkpt>
      <trkpt lat="45.04557" lon="6.08487">
        <ele>1383.423666</ele>
        <time>2013-07-14T11:37:00Z</time>
      </trkpt>
      <trkpt lat="45.04615" lon="6.08513">
        <ele>1395.511395</ele>
        <time>2013-07-14T11:37:05Z</time>
      </trkpt>
      <trkpt lat="45.04666" lon="6.08547">
        <ele>1399.487285</ele>
        <time>2013-07-14T11:37:10Z</time>
      </trkpt>
      <trkpt lat="45.04713" lon="6.08572">
        <ele>1400.881011</ele>
        <time>2013-07-14T11:37:15Z</time>
      </trkpt>
      <trkpt lat="45.04763" lon="6.08564">
        <ele>1384.670551</ele>
        <time>2013-07-14T11:37:20Z</time>
      </trkpt>
      <trkpt lat="45.04789" lon="6.08574">
        <ele>1380.289951</ele>
        <time>2013-07-14T11:37:25Z</time>
      </trkpt>
      <trkpt lat="45.0476" lon="6.08595">
        <ele>1375.883762</ele>
        <time>2013-07-14T11:37:30Z</time>
      </trkpt>
      <trkpt lat="45.04713" lon="6.08617">
        <ele>1369.517658</ele>
        <time>2013-07-14T11:37:35Z</time>
      </trkpt>
      <trkpt lat="45.04654" lon="6.08629">
        <ele>1367.509549</ele>
        <time>2013-07-14T11:37:40Z</time>
      </trkpt>
      <trkpt lat="45.04593" lon="6.08637">
        <ele>1358.923687</ele>
        <time>2013-07-14T11:37:45Z</time>
      </trkpt>
      <trkpt lat="45.04534" lon="6.08646">
        <ele>1351.758987</ele>
        <time>2013-07-14T11:37:50Z</time>
      </trkpt>
      <trkpt lat="45.04461" lon="6.08648">
        <ele>1349.247523</ele>
        <time>2013-07-14T11:37:55Z</time>
      </trkpt>
      <trkpt lat="45.04394" lon="6.08676">
        <ele>1341.13473</ele>
        <time>2013-07-14T11:38:00Z</time>
      </trkpt>
      <trkpt lat="45.04329" lon="6.08689">
        <ele>1333.544157</ele>
        <time>2013-07-14T11:38:05Z</time>
      </trkpt>
      <trkpt lat="45.04281" lon="6.08661">
        <ele>1320.642014</ele>
        <time>2013-07-14T11:38:10Z</time>
      </trkpt>
      <trkpt lat="45.04231" lon="6.08612">
        <ele>1314.993076</ele>
        <time>2013-07-14T11:38:15Z</time>
      </trkpt>
      <trkpt lat="45.04186" lon="6.08558">
        <ele>1311.880725</ele>
        <time>2013-07-14T11:38:20Z</time>
      </trkpt>
      <trkpt lat="45.04162" lon="6.08506">
        <ele>1305.331094</ele>
        <time>2013-07-14T11:38:25Z</time>
      </trkpt>
      <trkpt lat="45.04119" lon="6.08483">
        <ele>1298.39153</ele>
        <time>2013-07-14T11:38:30Z</time>
      </trkpt>
      <trkpt lat="45.04074" lon="6.08453">
        <ele>1294.595996</ele>
        <time>2013-07-14T11:38:35Z</time>
      </trkpt>
      <trkpt lat="45.04047" lon="6.08415">
        <ele>1289.563873</ele>
        <time>2013-07-14T11:38:40Z</time>
      </trkpt>
      <trkpt lat="45.04029" lon="6.08426">
        <ele>1287.427636</ele>
        <time>2013-07-14T11:38:45Z</time>
      </trkpt>
      <trkpt lat="45.04064" lon="6.08467">
        <ele>1293.342031</ele>
        <time>2013-07-14T11:38:50Z</time>
      </trkpt>
      <trkpt lat="45.04099" lon="6.085">
        <ele>1291.686334</ele>
        <time>2013-07-14T11:38:55Z</time>
      </trkpt>
      <trkpt lat="45.04139" lon="6.0853">
        <ele>1292.641749</ele>
        <time>2013-07-14T11:39:00Z</time>
      </trkpt>
      <trkpt lat="45.04161" lon="6.08586">
        <ele>1284.526285</ele>
        <time>2013-07-14T11:39:05Z</time>
      </trkpt>
      <trkpt lat="45.04191" lon="6.08651">
        <ele>1284.804449</ele>
        <time>2013-07-14T11:39:10Z</time>
      </trkpt>
      <trkpt lat="45.04233" lon="6.0871">
        <ele>1278.963058</ele>
        <time>2013-07-14T11:39:15Z</time>
      </trkpt>
      <trkpt lat="45.04274" lon="6.08772">
        <ele>1273.342105</ele>
        <time>2013-07-14T11:39:20Z</time>
      </trkpt>
      <trkpt lat="45.04311" lon="6.08838">
        <ele>1270.751977</ele>
        <time>2013-07-14T11:39:25Z</time>
      </trkpt>
      <trkpt lat="45.04334" lon="6.08921">
        <ele>1268.533604</ele>
        <time>2013-07-14T11:39:30Z</time>
      </trkpt>
      <trkpt lat="45.04367" lon="6.08999">
        <ele>1263.156212</ele>
        <time>2013-07-14T11:39:35Z</time>
      </trkpt>
      <trkpt lat="45.0441" lon="6.09041">
        <ele>1259.16414</ele>
        <time>2013-07-14T11:39:40Z</time>
      </trkpt>
      <trkpt lat="45.04464" lon="6.09057">
        <ele>1257.162013</ele>
        <time>2013-07-14T11:39:45Z</time>
      </trkpt>
      <trkpt lat="45.04525" lon="6.09083">
        <ele>1252.895432</ele>
        <time>2013-07-14T11:39:50Z</time>
      </trkpt>
      <trkpt lat="45.04584" lon="6.09112">
        <ele>1246.656567</ele>
        <time>2013-07-14T11:39:55Z</time>
      </trkpt>
      <trkpt lat="45.04633" lon="6.09116">
        <ele>1242.545742</ele>
        <time>2013-07-14T11:40:00Z</time>
      </trkpt>
      <trkpt lat="45.04639" lon="6.09157">
        <ele>1246.391048</ele>
        <time>2013-07-14T11:40:05Z</time>
      </trkpt>
      <trkpt lat="45.04655" lon="6.09209">
        <ele>1241.633486</ele>
        <time>2013-07-14T11:40:10Z</time>
      </trkpt>
      <trkpt lat="45.04679" lon="6.09258">
        <ele>1240.210269</ele>
        <time>2013-07-14T11:40:15Z</time>
      </trkpt>
      <trkpt lat="45.04703" lon="6.09297">
        <ele>1243.195645</ele>
        <time>2013-07-14T11:40:20Z</time>
      </trkpt>
      <trkpt lat="45.04725" lon="6.09328">
        <ele>1247.131211</ele>
        <time>2013-07-14T11:40:25Z</time>
      </trkpt>
      <trkpt lat="45.04748" lon="6.09363">
        <ele>1246.991466</ele>
        <time>2013-07-14T11:40:30Z</time>
      </trkpt>
      <trkpt lat="45.04763" lon="6.09404">
        <ele>1247.973471</ele>
        <time>2013-07-14T11:40:35Z</time>
      </trkpt>
      <trkpt lat="45.04769" lon="6.09449">
        <ele>1247.814468</ele>
        <time>2013-07-14T11:40:40Z</time>
      </trkpt>
      <trkpt lat="45.04776" lon="6.09494">
        <ele>1246.95315</ele>
        <time>2013-07-14T11:40:45Z</time>
      </trkpt>
      <trkpt lat="45.04785" lon="6.09541">
        <ele>1246.879937</ele>
        <time>2013-07-14T11:40:50Z</time>
      </trkpt>
      <trkpt lat="45.04794" lon="6.09593">
        <ele>1245.696844</ele>
        <time>2013-07-14T11:40:55Z</time>
      </trkpt>
      <trkpt lat="45.04798" lon="6.09653">
        <ele>1245.651207</ele>
        <time>2013-07-14T11:41:00Z</time>
      </trkpt>
      <trkpt lat="45.04796" lon="6.09723">
        <ele>1239.209489</ele>
        <time>2013-07-14T11:41:05Z</time>
      </trkpt>
      <trkpt lat="45.04804" lon="6.09797">
        <ele>1234.370036</ele>
        <time>2013-07-14T11:41:10Z</time>
      </trkpt>
      <trkpt lat="45.04829" lon="6.09869">
        <ele>1230.783617</ele>
        <time>2013-07-14T11:41:15Z</time>
      </trkpt>
      <trkpt lat="45.0487" lon="6.0991">
        <ele>1224.600768</ele>
        <time>2013-07-14T11:41:20Z</time>
      </trkpt>
      <trkpt lat="45.04877" lon="6.09981">
        <ele>1221.720141</ele>
        <time>2013-07-14T11:41:25Z</time>
      </trkpt>
      <trkpt lat="45.04854" lon="6.10049">
        <ele>1217.310133</ele>
        <time>2013-07-14T11:41:30Z</time>
      </trkpt>
      <trkpt lat="45.04842" lon="6.10113">
        <ele>1209.043862</ele>
        <time>2013-07-14T11:41:35Z</time>
      </trkpt>
      <trkpt lat="45.04872" lon="6.10164">
        <ele>1209.914726</ele>
        <time>2013-07-14T11:41:40Z</time>
      </trkpt>
      <trkpt lat="45.04906" lon="6.10204">
        <ele>1219.289505</ele>
        <time>2013-07-14T11:41:45Z</time>
      </trkpt>
      <trkpt lat="45.04945" lon="6.10223">
        <ele>1223.880651</ele>
        <time>2013-07-14T11:41:50Z</time>
      </trkpt>
      <trkpt lat="45.04961" lon="6.10261">
        <ele>1222.533841</ele>
        <time>2013-07-14T11:41:55Z</time>
      </trkpt>
      <trkpt lat="45.04951" lon="6.10276">
        <ele>1228.406768</ele>
        <time>2013-07-14T11:42:00Z</time>
      </trkpt>
      <trkpt lat="45.04922" lon="6.10287">
        <ele>1234.126303</ele>
        <time>2013-07-14T11:42:05Z</time>
      </trkpt>
      <trkpt lat="45.049" lon="6.10307">
        <ele>1241.035686</ele>
        <time>2013-07-14T11:42:10Z</time>
      </trkpt>
      <trkpt lat="45.04874" lon="6.10325">
        <ele>1238.610383</ele>
        <time>2013-07-14T11:42:15Z</time>
      </trkpt>
      <trkpt lat="45.04857" lon="6.10335">
        <ele>1239.218754</ele>
        <time>2013-07-14T11:42:20Z</time>
      </trkpt>
      <trkpt lat="45.04841" lon="6.10343">
        <ele>1241.16748</ele>
        <time>2013-07-14T11:42:25Z</time>
      </trkpt>
      <trkpt lat="45.04824" lon="6.10354">
        <ele>1244.671512</ele>
        <time>2013-07-14T11:42:30Z</time>
      </trkpt>
      <trkpt lat="45.04809" lon="6.10364">
        <ele>1250.298712</ele>
        <time>2013-07-14T11:42:35Z</time>
      </trkpt>
      <trkpt lat="45.04787" lon="6.10381">
        <ele>1249.224608</ele>
        <time>2013-07-14T11:42:40Z</time>
      </trkpt>
      <trkpt lat="45.04766" lon="6.10402">
        <ele>1252.611809</ele>
        <time>2013-07-14T11:42:45Z</time>
      </trkpt>
      <trkpt lat="45.04757" lon="6.10423">
        <ele>1254.635539</ele>
        <time>2013-07-14T11:42:50Z</time>
      </trkpt>
      <trkpt lat="45.04751" lon="6.10445">
        <ele>1253.071631</ele>
        <time>2013-07-14T11:42:55Z</time>
      </trkpt>
      <trkpt lat="45.04743" lon="6.1046">
        <ele>1252.612264</ele>
        <time>2013-07-14T11:43:00Z</time>
      </trkpt>
      <trkpt lat="45.04733" lon="6.10472">
        <ele>1241.262903</ele>
        <time>2013-07-14T11:43:05Z</time>
      </trkpt>
      <trkpt lat="45.04727" lon="6.10495">
        <ele>1246.900429</ele>
        <time>2013-07-14T11:43:10Z</time>
      </trkpt>
      <trkpt lat="45.04716" lon="6.1052">
        <ele>1242.018513</ele>
        <time>2013-07-14T11:43:15Z</time>
      </trkpt>
      <trkpt lat="45.04711" lon="6.10545">
        <ele>1242.803351</ele>
        <time>2013-07-14T11:43:20Z</time>
      </trkpt>
      <trkpt lat="45.04705" lon="6.10564">
        <ele>1244.687527</ele>
        <time>2013-07-14T11:43:25Z</time>
      </trkpt>
      <trkpt lat="45.04695" lon="6.10585">
        <ele>1246.636564</ele>
        <time>2013-07-14T11:43:30Z</time>
      </trkpt>
      <trkpt lat="45.04685" lon="6.106">
        <ele>1246.16716</ele>
        <time>2013-07-14T11:43:35Z</time>
      </trkpt>
      <trkpt lat="45.04682" lon="6.10622">
        <ele>1247.434439</ele>
        <time>2013-07-14T11:43:40Z</time>
      </trkpt>
      <trkpt lat="45.04679" lon="6.10648">
        <ele>1244.776948</ele>
        <time>2013-07-14T11:43:45Z</time>
      </trkpt>
      <trkpt lat="45.04673" lon="6.10669">
        <ele>1243.92128</ele>
        <time>2013-07-14T11:43:50Z</time>
      </trkpt>
      <trkpt lat="45.04673" lon="6.10691">
        <ele>1241.676109</ele>
        <time>2013-07-14T11:43:55Z</time>
      </trkpt>
      <trkpt lat="45.04668" lon="6.10708">
        <ele>1239.817352</ele>
        <time>2013-07-14T11:44:00Z</time>
      </trkpt>
      <trkpt lat="45.04658" lon="6.10723">
        <ele>1241.46091</ele>
        <time>2013-07-14T11:44:05Z</time>
      </trkpt>
      <trkpt lat="45.04649" lon="6.10733">
        <ele>1249.860005</ele>
        <time>2013-07-14T11:44:10Z</time>
      </trkpt>
      <trkpt lat="45.04638" lon="6.10742">
        <ele>1268.90308</ele>
        <time>2013-07-14T11:44:15Z</time>
      </trkpt>
      <trkpt lat="45.04632" lon="6.10752">
        <ele>1271.596553</ele>
        <time>2013-07-14T11:44:20Z</time>
      </trkpt>
      <trkpt lat="45.04618" lon="6.10761">
        <ele>1279.975115</ele>
        <time>2013-07-14T11:44:25Z</time>
      </trkpt>
      <trkpt lat="45.04602" lon="6.10767">
        <ele>1280.364368</ele>
        <time>2013-07-14T11:44:30Z</time>
      </trkpt>
      <trkpt lat="45.04588" lon="6.10777">
        <ele>1276.753734</ele>
        <time>2013-07-14T11:44:35Z</time>
      </trkpt>
      <trkpt lat="45.04574" lon="6.10779">
        <ele>1281.860977</ele>
        <time>2013-07-14T11:44:40Z</time>
      </trkpt>
      <trkpt lat="45.0456" lon="6.1078">
        <ele>1281.247136</ele>
        <time>2013-07-14T11:44:45Z</time>
      </trkpt>
      <trkpt lat="45.04547" lon="6.10782">
        <ele>1286.359588</ele>
        <time>2013-07-14T11:44:50Z</time>
      </trkpt>
      <trkpt lat="45.04526" lon="6.10785">
        <ele>1287.280734</ele>
        <time>2013-07-14T11:44:55Z</time>
      </trkpt>
      <trkpt lat="45.04507" lon="6.10782">
        <ele>1292.844651</ele>
        <time>2013-07-14T11:45:00Z</time>
      </trkpt>
      <trkpt lat="45.04493" lon="6.10777">
        <ele>1296.085725</ele>
        <time>2013-07-14T11:45:05Z</time>
      </trkpt>
      <trkpt lat="45.04469" lon="6.10776">
        <ele>1298.256713</ele>
        <time>2013-07-14T11:45:10Z</time>
      </trkpt>
      <trkpt lat="45.04455" lon="6.10784">
        <ele>1297.316513</ele>
        <time>2013-07-14T11:45:15Z</time>
      </trkpt>
      <trkpt lat="45.04443" lon="6.10796">
        <ele>1293.791708</ele>
        <time>2013-07-14T11:45:20Z</time>
      </trkpt>
      <trkpt lat="45.04429" lon="6.10804">
        <ele>1287.918443</ele>
        <time>2013-07-14T11:45:25Z</time>
      </trkpt>
      <trkpt lat="45.04416" lon="6.10814">
        <ele>1283.610888</ele>
        <time>2013-07-14T11:45:30Z</time>
      </trkpt>
      <trkpt lat="45.04403" lon="6.10827">
        <ele>1282.976695</ele>
        <time>2013-07-14T11:45:35Z</time>
      </trkpt>
      <trkpt lat="45.04392" lon="6.10844">
        <ele>1281.168101</ele>
        <time>2013-07-14T11:45:40Z</time>
      </trkpt>
      <trkpt lat="45.0439" lon="6.1087">
        <ele>1269.980043</ele>
        <time>2013-07-14T11:45:45Z</time>
      </trkpt>
      <trkpt lat="45.0439" lon="6.10891">
        <ele>1269.777984</ele>
        <time>2013-07-14T11:45:50Z</time>
      </trkpt>
      <trkpt lat="45.04392" lon="6.1091">
        <ele>1268.095669</ele>
        <time>2013-07-14T11:45:55Z</time>
      </trkpt>
      <trkpt lat="45.04392" lon="6.1093">
        <ele>1266.408293</ele>
        <time>2013-07-14T11:46:00Z</time>
      </trkpt>
      <trkpt lat="45.0439" lon="6.10948">
        <ele>1267.531159</ele>
        <time>2013-07-14T11:46:05Z</time>
      </trkpt>
      <trkpt lat="45.04381" lon="6.1096">
        <ele>1271.775528</ele>
        <time>2013-07-14T11:46:10Z</time>
      </trkpt>
      <trkpt lat="45.04378" lon="6.10973">
        <ele>1271.182351</ele>
        <time>2013-07-14T11:46:15Z</time>
      </trkpt>
      <trkpt lat="45.04382" lon="6.10992">
        <ele>1274.37342</ele>
        <time>2013-07-14T11:46:20Z</time>
      </trkpt>
      <trkpt lat="45.04395" lon="6.11005">
        <ele>1277.29429</ele>
        <time>2013-07-14T11:46:25Z</time>
      </trkpt>
      <trkpt lat="45.04407" lon="6.11015">
        <ele>1281.394685</ele>
        <time>2013-07-14T11:46:30Z</time>
      </trkpt>
      <trkpt lat="45.04417" lon="6.11027">
        <ele>1286.348078</ele>
        <time>2013-07-14T11:46:35Z</time>
      </trkpt>
      <trkpt lat="45.04427" lon="6.11041">
        <ele>1288.551213</ele>
        <time>2013-07-14T11:46:40Z</time>
      </trkpt>
      <trkpt lat="45.04434" lon="6.11053">
        <ele>1292.079151</ele>
        <time>2013-07-14T11:46:45Z</time>
      </trkpt>
      <trkpt lat="45.04442" lon="6.11064">
        <ele>1292.716616</ele>
        <time>2013-07-14T11:46:50Z</time>
      </trkpt>
      <trkpt lat="45.04453" lon="6.11083">
        <ele>1291.702877</ele>
        <time>2013-07-14T11:46:55Z</time>
      </trkpt>
      <trkpt lat="45.04466" lon="6.11098">
        <ele>1294.69926</ele>
        <time>2013-07-14T11:47:00Z</time>
      </trkpt>
      <trkpt lat="45.04481" lon="6.11119">
        <ele>1295.894074</ele>
        <time>2013-07-14T11:47:05Z</time>
      </trkpt>
      <trkpt lat="45.04496" lon="6.11138">
        <ele>1297.008631</ele>
        <time>2013-07-14T11:47:10Z</time>
      </trkpt>
      <trkpt lat="45.04502" lon="6.11158">
        <ele>1295.347322</ele>
        <time>2013-07-14T11:47:15Z</time>
      </trkpt>
      <trkpt lat="45.04495" lon="6.11182">
        <ele>1303.174626</ele>
        <time>2013-07-14T11:47:20Z</time>
      </trkpt>
      <trkpt lat="45.04488" lon="6.11212">
        <ele>1304.251932</ele>
        <time>2013-07-14T11:47:25Z</time>
      </trkpt>
      <trkpt lat="45.04476" lon="6.11223">
        <ele>1304.255591</ele>
        <time>2013-07-14T11:47:30Z</time>
      </trkpt>
      <trkpt lat="45.04458" lon="6.11228">
        <ele>1303.852416</ele>
        <time>2013-07-14T11:47:35Z</time>
      </trkpt>
      <trkpt lat="45.04439" lon="6.11245">
        <ele>1307.729694</ele>
        <time>2013-07-14T11:47:40Z</time>
      </trkpt>
      <trkpt lat="45.04425" lon="6.11264">
        <ele>1310.367782</ele>
        <time>2013-07-14T11:47:45Z</time>
      </trkpt>
      <trkpt lat="45.04424" lon="6.113">
        <ele>1308.249003</ele>
        <time>2013-07-14T11:47:50Z</time>
      </trkpt>
      <trkpt lat="45.04432" lon="6.11336">
        <ele>1305.383231</ele>
        <time>2013-07-14T11:47:55Z</time>
      </trkpt>
      <trkpt lat="45.04453" lon="6.11376">
        <ele>1300.606526</ele>
        <time>2013-07-14T11:48:00Z</time>
      </trkpt>
      <trkpt lat="45.04484" lon="6.11402">
        <ele>1298.566186</ele>
        <time>2013-07-14T11:48:05Z</time>
      </trkpt>
      <trkpt lat="45.04519" lon="6.11434">
        <ele>1292.611951</ele>
        <time>2013-07-14T11:48:10Z</time>
      </trkpt>
      <trkpt lat="45.04563" lon="6.11473">
        <ele>1283.4722</ele>
        <time>2013-07-14T11:48:15Z</time>
      </trkpt>
      <trkpt lat="45.04612" lon="6.11511">
        <ele>1278.508914</ele>
        <time>2013-07-14T11:48:20Z</time>
      </trkpt>
      <trkpt lat="45.04665" lon="6.11532">
        <ele>1274.69597</ele>
        <time>2013-07-14T11:48:25Z</time>
      </trkpt>
      <trkpt lat="45.0472" lon="6.11558">
        <ele>1269.001916</ele>
        <time>2013-07-14T11:48:30Z</time>
      </trkpt>
      <trkpt lat="45.04783" lon="6.11584">
        <ele>1263.344914</ele>
        <time>2013-07-14T11:48:35Z</time>
      </trkpt>
      <trkpt lat="45.04838" lon="6.1163">
        <ele>1256.743971</ele>
        <time>2013-07-14T11:48:40Z</time>
      </trkpt>
      <trkpt lat="45.04877" lon="6.11672">
        <ele>1249.228024</ele>
        <time>2013-07-14T11:48:45Z</time>
      </trkpt>
      <trkpt lat="45.04885" lon="6.11705">
        <ele>1250.444211</ele>
        <time>2013-07-14T11:48:50Z</time>
      </trkpt>
      <trkpt lat="45.04857" lon="6.11683">
        <ele>1247.784583</ele>
        <time>2013-07-14T11:48:55Z</time>
      </trkpt>
      <trkpt lat="45.04806" lon="6.11655">
        <ele>1233.448702</ele>
        <time>2013-07-14T11:49:00Z</time>
      </trkpt>
      <trkpt lat="45.04748" lon="6.1165">
        <ele>1226.233756</ele>
        <time>2013-07-14T11:49:05Z</time>
      </trkpt>
      <trkpt lat="45.0468" lon="6.11646">
        <ele>1222.581391</ele>
        <time>2013-07-14T11:49:10Z</time>
      </trkpt>
      <trkpt lat="45.04611" lon="6.11632">
        <ele>1213.384276</ele>
        <time>2013-07-14T11:49:15Z</time>
      </trkpt>
      <trkpt lat="45.04543" lon="6.11613">
        <ele>1201.779428</ele>
        <time>2013-07-14T11:49:20Z</time>
      </trkpt>
      <trkpt lat="45.04479" lon="6.11593">
        <ele>1194.341043</ele>
        <time>2013-07-14T11:49:25Z</time>
      </trkpt>
      <trkpt lat="45.04419" lon="6.11595">
        <ele>1188.911302</ele>
        <time>2013-07-14T11:49:30Z</time>
      </trkpt>
      <trkpt lat="45.04381" lon="6.11591">
        <ele>1184.527492</ele>
        <time>2013-07-14T11:49:35Z</time>
      </trkpt>
      <trkpt lat="45.04383" lon="6.11611">
        <ele>1194.910954</ele>
        <time>2013-07-14T11:49:40Z</time>
      </trkpt>
      <trkpt lat="45.04421" lon="6.11614">
        <ele>1197.182056</ele>
        <time>2013-07-14T11:49:45Z</time>
      </trkpt>
      <trkpt lat="45.04465" lon="6.1164">
        <ele>1195.042807</ele>
        <time>2013-07-14T11:49:50Z</time>
      </trkpt>
      <trkpt lat="45.04491" lon="6.11707">
        <ele>1189.053747</ele>
        <time>2013-07-14T11:49:55Z</time>
      </trkpt>
      <trkpt lat="45.04548" lon="6.11768">
        <ele>1184.779456</ele>
        <time>2013-07-14T11:50:00Z</time>
      </trkpt>
      <trkpt lat="45.04612" lon="6.11823">
        <ele>1179.372485</ele>
        <time>2013-07-14T11:50:05Z</time>
      </trkpt>
      <trkpt lat="45.04672" lon="6.11881">
        <ele>1173.47447</ele>
        <time>2013-07-14T11:50:10Z</time>
      </trkpt>
      <trkpt lat="45.04703" lon="6.11946">
        <ele>1168.768316</ele>
        <time>2013-07-14T11:50:15Z</time>
      </trkpt>
      <trkpt lat="45.04736" lon="6.12011">
        <ele>1164.775645</ele>
        <time>2013-07-14T11:50:20Z</time>
      </trkpt>
      <trkpt lat="45.04778" lon="6.1205">
        <ele>1163.463451</ele>
        <time>2013-07-14T11:50:25Z</time>
      </trkpt>
      <trkpt lat="45.04792" lon="6.12069">
        <ele>1157.454317</ele>
        <time>2013-07-14T11:50:30Z</time>
      </trkpt>
      <trkpt lat="45.04765" lon="6.12054">
        <ele>1146.71516</ele>
        <time>2013-07-14T11:50:35Z</time>
      </trkpt>
      <trkpt lat="45.04717" lon="6.12057">
        <ele>1119.322942</ele>
        <time>2013-07-14T11:50:40Z</time>
      </trkpt>
      <trkpt lat="45.04669" lon="6.12065">
        <ele>1098.656252</ele>
        <time>2013-07-14T11:50:45Z</time>
      </trkpt>
      <trkpt lat="45.04624" lon="6.12074">
        <ele>1090.059668</ele>
        <time>2013-07-14T11:50:50Z</time>
      </trkpt>
      <trkpt lat="45.04588" lon="6.12093">
        <ele>1088.455872</ele>
        <time>2013-07-14T11:50:55Z</time>
      </trkpt>
      <trkpt lat="45.04558" lon="6.12113">
        <ele>1090.401006</ele>
        <time>2013-07-14T11:51:00Z</time>
      </trkpt>
      <trkpt lat="45.04589" lon="6.12134">
        <ele>1086.646488</ele>
        <time>2013-07-14T11:51:05Z</time>
      </trkpt>
      <trkpt lat="45.04633" lon="6.12159">
        <ele>1081.614231</ele>
        <time>2013-07-14T11:51:10Z</time>
      </trkpt>
      <trkpt lat="45.04682" lon="6.12195">
        <ele>1077.286453</ele>
        <time>2013-07-14T11:51:15Z</time>
      </trkpt>
      <trkpt lat="45.04726" lon="6.12257">
        <ele>1070.922696</ele>
        <time>2013-07-14T11:51:20Z</time>
      </trkpt>
      <trkpt lat="45.04763" lon="6.12341">
        <ele>1058.136782</ele>
        <time>2013-07-14T11:51:25Z</time>
      </trkpt>
      <trkpt lat="45.04771" lon="6.12444">
        <ele>1043.698143</ele>
        <time>2013-07-14T11:51:30Z</time>
      </trkpt>
      <trkpt lat="45.04774" lon="6.12531">
        <ele>1033.268053</ele>
        <time>2013-07-14T11:51:35Z</time>
      </trkpt>
      <trkpt lat="45.04811" lon="6.12576">
        <ele>1018.844737</ele>
        <time>2013-07-14T11:51:40Z</time>
      </trkpt>
      <trkpt lat="45.04852" lon="6.12582">
        <ele>1010.626328</ele>
        <time>2013-07-14T11:51:45Z</time>
      </trkpt>
      <trkpt lat="45.04841" lon="6.12599">
        <ele>1008.819641</ele>
        <time>2013-07-14T11:51:50Z</time>
      </trkpt>
      <trkpt lat="45.04796" lon="6.12607">
        <ele>1006.570398</ele>
        <time>2013-07-14T11:51:55Z</time>
      </trkpt>
      <trkpt lat="45.04752" lon="6.12584">
        <ele>1002.436646</ele>
        <time>2013-07-14T11:52:00Z</time>
      </trkpt>
      <trkpt lat="45.04733" lon="6.12566">
        <ele>995.732534</ele>
        <time>2013-07-14T11:52:05Z</time>
      </trkpt>
      <trkpt lat="45.0472" lon="6.12609">
        <ele>1000.442422</ele>
        <time>2013-07-14T11:52:10Z</time>
      </trkpt>
      <trkpt lat="45.04703" lon="6.12664">
        <ele>1005.188482</ele>
        <time>2013-07-14T11:52:15Z</time>
      </trkpt>
      <trkpt lat="45.04721" lon="6.1272">
        <ele>1014.862616</ele>
        <time>2013-07-14T11:52:20Z</time>
      </trkpt>
      <trkpt lat="45.04727" lon="6.12763">
        <ele>1009.62913</ele>
        <time>2013-07-14T11:52:25Z</time>
      </trkpt>
      <trkpt lat="45.04695" lon="6.12752">
        <ele>1010.456813</ele>
        <time>2013-07-14T11:52:30Z</time>
      </trkpt>
      <trkpt lat="45.04671" lon="6.12734">
        <ele>999.501331</ele>
        <time>2013-07-14T11:52:35Z</time>
      </trkpt>
      <trkpt lat="45.04644" lon="6.12701">
        <ele>991.22896</ele>
        <time>2013-07-14T11:52:40Z</time>
      </trkpt>
      <trkpt lat="45.04626" lon="6.12663">
        <ele>991.855008</ele>
        <time>2013-07-14T11:52:45Z</time>
      </trkpt>
      <trkpt lat="45.04608" lon="6.12625">
        <ele>996.009292</ele>
        <time>2013-07-14T11:52:50Z</time>
      </trkpt>
      <trkpt lat="45.04588" lon="6.12588">
        <ele>988.16951</ele>
        <time>2013-07-14T11:52:55Z</time>
      </trkpt>
      <trkpt lat="45.04566" lon="6.12556">
        <ele>986.337295</ele>
        <time>2013-07-14T11:53:00Z</time>
      </trkpt>
      <trkpt lat="45.04546" lon="6.12545">
        <ele>984.316823</ele>
        <time>2013-07-14T11:53:05Z</time>
      </trkpt>
      <trkpt lat="45.04519" lon="6.12542">
        <ele>982.723038</ele>
        <time>2013-07-14T11:53:10Z</time>
      </trkpt>
      <trkpt lat="45.04491" lon="6.12512">
        <ele>982.431651</ele>
        <time>2013-07-14T11:53:15Z</time>
      </trkpt>
      <trkpt lat="45.04457" lon="6.12495">
        <ele>980.831377</ele>
        <time>2013-07-14T11:53:20Z</time>
      </trkpt>
      <trkpt lat="45.04424" lon="6.12479">
        <ele>981.349188</ele>
        <time>2013-07-14T11:53:25Z</time>
      </trkpt>
      <trkpt lat="45.04398" lon="6.12464">
        <ele>980.487772</ele>
        <time>2013-07-14T11:53:30Z</time>
      </trkpt>
      <trkpt lat="45.04375" lon="6.12452">
        <ele>984.80107</ele>
        <time>2013-07-14T11:53:35Z</time>
      </trkpt>
      <trkpt lat="45.04349" lon="6.12437">
        <ele>986.133146</ele>
        <time>2013-07-14T11:53:40Z</time>
      </trkpt>
      <trkpt lat="45.04324" lon="6.12428">
        <ele>984.94653</ele>
        <time>2013-07-14T11:53:45Z</time>
      </trkpt>
      <trkpt lat="45.04295" lon="6.12423">
        <ele>984.678548</ele>
        <time>2013-07-14T11:53:50Z</time>
      </trkpt>
      <trkpt lat="45.04272" lon="6.12407">
        <ele>990.176395</ele>
        <time>2013-07-14T11:53:55Z</time>
      </trkpt>
      <trkpt lat="45.04258" lon="6.12377">
        <ele>992.687612</ele>
        <time>2013-07-14T11:54:00Z</time>
      </trkpt>
      <trkpt lat="45.04248" lon="6.12344">
        <ele>994.280445</ele>
        <time>2013-07-14T11:54:05Z</time>
      </trkpt>
      <trkpt lat="45.04246" lon="6.12308">
        <ele>995.682852</ele>
        <time>2013-07-14T11:54:10Z</time>
      </trkpt>
      <trkpt lat="45.0425" lon="6.12264">
        <ele>984.513716</ele>
        <time>2013-07-14T11:54:15Z</time>
      </trkpt>
      <trkpt lat="45.04258" lon="6.12239">
        <ele>983.031914</ele>
        <time>2013-07-14T11:54:20Z</time>
      </trkpt>
      <trkpt lat="45.04266" lon="6.12206">
        <ele>988.148968</ele>
        <time>2013-07-14T11:54:25Z</time>
      </trkpt>
      <trkpt lat="45.04266" lon="6.12167">
        <ele>995.04697</ele>
        <time>2013-07-14T11:54:30Z</time>
      </trkpt>
      <trkpt lat="45.04263" lon="6.12128">
        <ele>999.817139</ele>
        <time>2013-07-14T11:54:35Z</time>
      </trkpt>
      <trkpt lat="45.04251" lon="6.1209">
        <ele>998.986508</ele>
        <time>2013-07-14T11:54:40Z</time>
      </trkpt>
      <trkpt lat="45.04238" lon="6.12061">
        <ele>996.565587</ele>
        <time>2013-07-14T11:54:45Z</time>
      </trkpt>
      <trkpt lat="45.04212" lon="6.12036">
        <ele>995.880948</ele>
        <time>2013-07-14T11:54:50Z</time>
      </trkpt>
      <trkpt lat="45.04186" lon="6.12022">
        <ele>996.506782</ele>
        <time>2013-07-14T11:54:55Z</time>
      </trkpt>
      <trkpt lat="45.04162" lon="6.11998">
        <ele>997.945359</ele>
        <time>2013-07-14T11:55:00Z</time>
      </trkpt>
      <trkpt lat="45.04128" lon="6.11963">
        <ele>1000.934244</ele>
        <time>2013-07-14T11:55:05Z</time>
      </trkpt>
      <trkpt lat="45.04108" lon="6.11932">
        <ele>998.408424</ele>
        <time>2013-07-14T11:55:10Z</time>
      </trkpt>
      <trkpt lat="45.0408" lon="6.11905">
        <ele>998.271654</ele>
        <time>2013-07-14T11:55:15Z</time>
      </trkpt>
      <trkpt lat="45.0404" lon="6.11882">
        <ele>998.466472</ele>
        <time>2013-07-14T11:55:20Z</time>
      </trkpt>
      <trkpt lat="45.04002" lon="6.11856">
        <ele>996.955207</ele>
        <time>2013-07-14T11:55:25Z</time>
      </trkpt>
      <trkpt lat="45.03972" lon="6.11826">
        <ele>997.366172</ele>
        <time>2013-07-14T11:55:30Z</time>
      </trkpt>
      <trkpt lat="45.03967" lon="6.11793">
        <ele>995.453398</ele>
        <time>2013-07-14T11:55:35Z</time>
      </trkpt>
      <trkpt lat="45.03955" lon="6.11752">
        <ele>994.474094</ele>
        <time>2013-07-14T11:55:40Z</time>
      </trkpt>
      <trkpt lat="45.03948" lon="6.11712">
        <ele>993.514969</ele>
        <time>2013-07-14T11:55:45Z</time>
      </trkpt>
      <trkpt lat="45.03931" lon="6.11676">
        <ele>994.935008</ele>
        <time>2013-07-14T11:55:50Z</time>
      </trkpt>
      <trkpt lat="45.03951" lon="6.11625">
        <ele>989.724958</ele>
        <time>2013-07-14T11:55:55Z</time>
      </trkpt>
      <trkpt lat="45.03997" lon="6.11565">
        <ele>984.640414</ele>
        <time>2013-07-14T11:56:00Z</time>
      </trkpt>
      <trkpt lat="45.03993" lon="6.11524">
        <ele>985.734496</ele>
        <time>2013-07-14T11:56:05Z</time>
      </trkpt>
      <trkpt lat="45.0399" lon="6.11484">
        <ele>986.904015</ele>
        <time>2013-07-14T11:56:10Z</time>
      </trkpt>
      <trkpt lat="45.03984" lon="6.1145">
        <ele>992.675593</ele>
        <time>2013-07-14T11:56:15Z</time>
      </trkpt>
      <trkpt lat="45.03978" lon="6.11412">
        <ele>992.575732</ele>
        <time>2013-07-14T11:56:20Z</time>
      </trkpt>
      <trkpt lat="45.03966" lon="6.11377">
        <ele>994.794581</ele>
        <time>2013-07-14T11:56:25Z</time>
      </trkpt>
      <trkpt lat="45.03955" lon="6.11343">
        <ele>995.608377</ele>
        <time>2013-07-14T11:56:30Z</time>
      </trkpt>
      <trkpt lat="45.03941" lon="6.11313">
        <ele>996.713324</ele>
        <time>2013-07-14T11:56:35Z</time>
      </trkpt>
      <trkpt lat="45.03932" lon="6.11295">
        <ele>997.10537</ele>
        <time>2013-07-14T11:56:40Z</time>
      </trkpt>
      <trkpt lat="45.039" lon="6.11289">
        <ele>979.75742</ele>
        <time>2013-07-14T11:56:47Z</time>
      </trkpt>
      <trkpt lat="45.03865" lon="6.11306">
        <ele>969.545458</ele>
        <time>2013-07-14T11:57:08Z</time>
      </trkpt>
      <trkpt lat="45.03918" lon="6.10834">
        <ele>992.364935</ele>
        <time>2013-07-14T11:57:59Z</time>
      </trkpt>
      <trkpt lat="45.03913" lon="6.1081">
        <ele>996.627437</ele>
        <time>2013-07-14T11:58:04Z</time>
      </trkpt>
      <trkpt lat="45.03905" lon="6.1079">
        <ele>1006.114006</ele>
        <time>2013-07-14T11:58:09Z</time>
      </trkpt>
      <trkpt lat="45.03902" lon="6.10766">
        <ele>1009.678984</ele>
        <time>2013-07-14T11:58:14Z</time>
      </trkpt>
      <trkpt lat="45.03895" lon="6.10745">
        <ele>1015.497248</ele>
        <time>2013-07-14T11:58:19Z</time>
      </trkpt>
      <trkpt lat="45.03888" lon="6.10722">
        <ele>1019.1226</ele>
        <time>2013-07-14T11:58:24Z</time>
      </trkpt>
      <trkpt lat="45.03857" lon="6.10711">
        <ele>1023.485564</ele>
        <time>2013-07-14T11:58:29Z</time>
      </trkpt>
      <trkpt lat="45.03852" lon="6.10686">
        <ele>1022.735048</ele>
        <time>2013-07-14T11:58:34Z</time>
      </trkpt>
      <trkpt lat="45.03849" lon="6.10657">
        <ele>1025.296995</ele>
        <time>2013-07-14T11:58:39Z</time>
      </trkpt>
      <trkpt lat="45.03834" lon="6.10635">
        <ele>1028.260449</ele>
        <time>2013-07-14T11:58:44Z</time>
      </trkpt>
      <trkpt lat="45.03836" lon="6.10603">
        <ele>1026.381308</ele>
        <time>2013-07-14T11:58:49Z</time>
      </trkpt>
      <trkpt lat="45.0384" lon="6.10573">
        <ele>1024.587338</ele>
        <time>2013-07-14T11:58:54Z</time>
      </trkpt>
      <trkpt lat="45.03836" lon="6.10547">
        <ele>1027.29496</ele>
        <time>2013-07-14T11:58:59Z</time>
      </trkpt>
      <trkpt lat="45.03828" lon="6.10523">
        <ele>1029.430519</ele>
        <time>2013-07-14T11:59:04Z</time>
      </trkpt>
      <trkpt lat="45.03819" lon="6.105">
        <ele>1032.343925</ele>
        <time>2013-07-14T11:59:09Z</time>
      </trkpt>
      <trkpt lat="45.03813" lon="6.10474">
        <ele>1034.339222</ele>
        <time>2013-07-14T11:59:14Z</time>
      </trkpt>
      <trkpt lat="45.0381" lon="6.10452">
        <ele>1036.569923</ele>
        <time>2013-07-14T11:59:19Z</time>
      </trkpt>
      <trkpt lat="45.03806" lon="6.10428">
        <ele>1036.607749</ele>
        <time>2013-07-14T11:59:24Z</time>
      </trkpt>
      <trkpt lat="45.03803" lon="6.10406">
        <ele>1040.956335</ele>
        <time>2013-07-14T11:59:29Z</time>
      </trkpt>
      <trkpt lat="45.03805" lon="6.10383">
        <ele>1043.131833</ele>
        <time>2013-07-14T11:59:34Z</time>
      </trkpt>
      <trkpt lat="45.03816" lon="6.1036">
        <ele>1038.215841</ele>
        <time>2013-07-14T11:59:39Z</time>
      </trkpt>
      <trkpt lat="45.03829" lon="6.10339">
        <ele>1031.974747</ele>
        <time>2013-07-14T11:59:44Z</time>
      </trkpt>
      <trkpt lat="45.03845" lon="6.10323">
        <ele>1034.5054</ele>
        <time>2013-07-14T11:59:49Z</time>
      </trkpt>
      <trkpt lat="45.03859" lon="6.10303">
        <ele>1034.687997</ele>
        <time>2013-07-14T11:59:54Z</time>
      </trkpt>
      <trkpt lat="45.03872" lon="6.10291">
        <ele>1038.216957</ele>
        <time>2013-07-14T11:59:59Z</time>
      </trkpt>
      <trkpt lat="45.03885" lon="6.10279">
        <ele>1043.156174</ele>
        <time>2013-07-14T12:00:04Z</time>
      </trkpt>
      <trkpt lat="45.03892" lon="6.10259">
        <ele>1046.912293</ele>
        <time>2013-07-14T12:00:09Z</time>
      </trkpt>
      <trkpt lat="45.03895" lon="6.10233">
        <ele>1051.763298</ele>
        <time>2013-07-14T12:00:14Z</time>
      </trkpt>
      <trkpt lat="45.03893" lon="6.10207">
        <ele>1057.297128</ele>
        <time>2013-07-14T12:00:19Z</time>
      </trkpt>
      <trkpt lat="45.0389" lon="6.1018">
        <ele>1062.048329</ele>
        <time>2013-07-14T12:00:24Z</time>
      </trkpt>
      <trkpt lat="45.03901" lon="6.10155">
        <ele>1061.288483</ele>
        <time>2013-07-14T12:00:29Z</time>
      </trkpt>
      <trkpt lat="45.03919" lon="6.10142">
        <ele>1061.866968</ele>
        <time>2013-07-14T12:00:34Z</time>
      </trkpt>
      <trkpt lat="45.03938" lon="6.10122">
        <ele>1062.772637</ele>
        <time>2013-07-14T12:00:39Z</time>
      </trkpt>
      <trkpt lat="45.03956" lon="6.101">
        <ele>1062.117997</ele>
        <time>2013-07-14T12:00:44Z</time>
      </trkpt>
      <trkpt lat="45.03976" lon="6.10073">
        <ele>1062.578277</ele>
        <time>2013-07-14T12:00:49Z</time>
      </trkpt>
      <trkpt lat="45.03998" lon="6.10049">
        <ele>1061.863753</ele>
        <time>2013-07-14T12:00:54Z</time>
      </trkpt>
      <trkpt lat="45.04022" lon="6.1004">
        <ele>1064.09819</ele>
        <time>2013-07-14T12:00:59Z</time>
      </trkpt>
      <trkpt lat="45.04046" lon="6.1003">
        <ele>1064.144834</ele>
        <time>2013-07-14T12:01:04Z</time>
      </trkpt>
      <trkpt lat="45.04066" lon="6.10011">
        <ele>1062.235748</ele>
        <time>2013-07-14T12:01:09Z</time>
      </trkpt>
      <trkpt lat="45.04085" lon="6.09985">
        <ele>1057.833526</ele>
        <time>2013-07-14T12:01:14Z</time>
      </trkpt>
      <trkpt lat="45.04102" lon="6.09955">
        <ele>1053.196169</ele>
        <time>2013-07-14T12:01:19Z</time>
      </trkpt>
      <trkpt lat="45.04106" lon="6.09917">
        <ele>1050.171155</ele>
        <time>2013-07-14T12:01:24Z</time>
      </trkpt>
      <trkpt lat="45.04099" lon="6.09885">
        <ele>1050.452117</ele>
        <time>2013-07-14T12:01:29Z</time>
      </trkpt>
      <trkpt lat="45.04088" lon="6.09861">
        <ele>1053.988997</ele>
        <time>2013-07-14T12:01:34Z</time>
      </trkpt>
      <trkpt lat="45.0408" lon="6.0984">
        <ele>1052.752856</ele>
        <time>2013-07-14T12:01:39Z</time>
      </trkpt>
      <trkpt lat="45.0406" lon="6.09812">
        <ele>1049.048668</ele>
        <time>2013-07-14T12:01:44Z</time>
      </trkpt>
      <trkpt lat="45.0403" lon="6.09776">
        <ele>1050.500175</ele>
        <time>2013-07-14T12:01:49Z</time>
      </trkpt>
      <trkpt lat="45.04033" lon="6.09734">
        <ele>1047.320681</ele>
        <time>2013-07-14T12:01:54Z</time>
      </trkpt>
      <trkpt lat="45.0404" lon="6.09706">
        <ele>1044.911834</ele>
        <time>2013-07-14T12:01:59Z</time>
      </trkpt>
      <trkpt lat="45.04049" lon="6.09695">
        <ele>1044.266356</ele>
        <time>2013-07-14T12:02:04Z</time>
      </trkpt>
      <trkpt lat="45.0405" lon="6.09692">
        <ele>1044.046205</ele>
        <time>2013-07-14T12:02:09Z</time>
      </trkpt>
      <trkpt lat="45.04051" lon="6.09694">
        <ele>1046.314125</ele>
        <time>2013-07-14T12:02:37Z</time>
      </trkpt>
      <trkpt lat="45.04048" lon="6.0969">
        <ele>1046.781594</ele>
        <time>2013-07-14T12:03:04Z</time>
      </trkpt>
      <trkpt lat="45.04046" lon="6.09667">
        <ele>1047.533575</ele>
        <time>2013-07-14T12:03:09Z</time>
      </trkpt>
      <trkpt lat="45.04043" lon="6.09627">
        <ele>1048.007676</ele>
        <time>2013-07-14T12:03:14Z</time>
      </trkpt>
      <trkpt lat="45.04019" lon="6.09581">
        <ele>1046.059159</ele>
        <time>2013-07-14T12:03:19Z</time>
      </trkpt>
      <trkpt lat="45.03995" lon="6.09523">
        <ele>1041.242838</ele>
        <time>2013-07-14T12:03:24Z</time>
      </trkpt>
      <trkpt lat="45.03969" lon="6.09466">
        <ele>1042.207926</ele>
        <time>2013-07-14T12:03:29Z</time>
      </trkpt>
      <trkpt lat="45.03924" lon="6.0942">
        <ele>1033.199978</ele>
        <time>2013-07-14T12:03:34Z</time>
      </trkpt>
      <trkpt lat="45.03889" lon="6.09355">
        <ele>1032.271036</ele>
        <time>2013-07-14T12:03:39Z</time>
      </trkpt>
      <trkpt lat="45.03856" lon="6.09288">
        <ele>1030.495039</ele>
        <time>2013-07-14T12:03:44Z</time>
      </trkpt>
      <trkpt lat="45.03823" lon="6.09216">
        <ele>1023.481467</ele>
        <time>2013-07-14T12:03:49Z</time>
      </trkpt>
      <trkpt lat="45.03787" lon="6.09158">
        <ele>1017.991181</ele>
        <time>2013-07-14T12:03:54Z</time>
      </trkpt>
      <trkpt lat="45.03732" lon="6.09168">
        <ele>1016.566667</ele>
        <time>2013-07-14T12:03:59Z</time>
      </trkpt>
      <trkpt lat="45.03688" lon="6.09217">
        <ele>1014.621096</ele>
        <time>2013-07-14T12:04:04Z</time>
      </trkpt>
      <trkpt lat="45.03656" lon="6.09292">
        <ele>1009.919472</ele>
        <time>2013-07-14T12:04:09Z</time>
      </trkpt>
      <trkpt lat="45.03612" lon="6.09323">
        <ele>1006.217447</ele>
        <time>2013-07-14T12:04:14Z</time>
      </trkpt>
      <trkpt lat="45.03557" lon="6.0929">
        <ele>1000.824684</ele>
        <time>2013-07-14T12:04:19Z</time>
      </trkpt>
      <trkpt lat="45.03511" lon="6.09233">
        <ele>994.744273</ele>
        <time>2013-07-14T12:04:24Z</time>
      </trkpt>
      <trkpt lat="45.03464" lon="6.09207">
        <ele>991.167152</ele>
        <time>2013-07-14T12:04:29Z</time>
      </trkpt>
      <trkpt lat="45.03362" lon="6.09057">
        <ele>972.631211</ele>
        <time>2013-07-14T12:04:42Z</time>
      </trkpt>
      <trkpt lat="45.03307" lon="6.09049">
        <ele>967.336128</ele>
        <time>2013-07-14T12:04:47Z</time>
      </trkpt>
      <trkpt lat="45.03259" lon="6.08997">
        <ele>958.654128</ele>
        <time>2013-07-14T12:04:52Z</time>
      </trkpt>
      <trkpt lat="45.03244" lon="6.08909">
        <ele>948.546198</ele>
        <time>2013-07-14T12:04:57Z</time>
      </trkpt>
      <trkpt lat="45.03242" lon="6.08814">
        <ele>941.490197</ele>
        <time>2013-07-14T12:05:02Z</time>
      </trkpt>
      <trkpt lat="45.0324" lon="6.0873">
        <ele>938.632723</ele>
        <time>2013-07-14T12:05:07Z</time>
      </trkpt>
      <trkpt lat="45.03206" lon="6.08678">
        <ele>936.353923</ele>
        <time>2013-07-14T12:05:12Z</time>
      </trkpt>
      <trkpt lat="45.03168" lon="6.08622">
        <ele>932.421519</ele>
        <time>2013-07-14T12:05:17Z</time>
      </trkpt>
      <trkpt lat="45.03127" lon="6.08554">
        <ele>929.216126</ele>
        <time>2013-07-14T12:05:22Z</time>
      </trkpt>
      <trkpt lat="45.0307" lon="6.08513">
        <ele>922.664554</ele>
        <time>2013-07-14T12:05:27Z</time>
      </trkpt>
      <trkpt lat="45.03005" lon="6.08469">
        <ele>913.822637</ele>
        <time>2013-07-14T12:05:32Z</time>
      </trkpt>
      <trkpt lat="45.02944" lon="6.08409">
        <ele>908.322945</ele>
        <time>2013-07-14T12:05:37Z</time>
      </trkpt>
      <trkpt lat="45.02889" lon="6.08329">
        <ele>907.285653</ele>
        <time>2013-07-14T12:05:42Z</time>
      </trkpt>
      <trkpt lat="45.02843" lon="6.08241">
        <ele>904.272991</ele>
        <time>2013-07-14T12:05:47Z</time>
      </trkpt>
      <trkpt lat="45.02792" lon="6.08179">
        <ele>894.358529</ele>
        <time>2013-07-14T12:05:52Z</time>
      </trkpt>
      <trkpt lat="45.02573" lon="6.08119">
        <ele>911.975549</ele>
        <time>2013-07-14T12:06:04Z</time>
      </trkpt>
      <trkpt lat="45.02544" lon="6.08027">
        <ele>899.488769</ele>
        <time>2013-07-14T12:06:09Z</time>
      </trkpt>
      <trkpt lat="45.03068" lon="6.07669">
        <ele>764.224106</ele>
        <time>2013-07-14T12:06:42Z</time>
      </trkpt>
      <trkpt lat="45.03099" lon="6.07646">
        <ele>829.417333</ele>
        <time>2013-07-14T12:06:47Z</time>
      </trkpt>
      <trkpt lat="45.03111" lon="6.0756">
        <ele>807.286474</ele>
        <time>2013-07-14T12:06:52Z</time>
      </trkpt>
      <trkpt lat="45.03114" lon="6.07468">
        <ele>784.819296</ele>
        <time>2013-07-14T12:06:57Z</time>
      </trkpt>
      <trkpt lat="45.03105" lon="6.07387">
        <ele>766.586087</ele>
        <time>2013-07-14T12:07:02Z</time>
      </trkpt>
      <trkpt lat="45.03369" lon="6.07229">
        <ele>706.262712</ele>
        <time>2013-07-14T12:07:15Z</time>
      </trkpt>
      <trkpt lat="45.03201" lon="6.07204">
        <ele>717.945935</ele>
        <time>2013-07-14T12:07:22Z</time>
      </trkpt>
      <trkpt lat="45.03205" lon="6.07151">
        <ele>699.223629</ele>
        <time>2013-07-14T12:07:27Z</time>
      </trkpt>
      <trkpt lat="45.02914" lon="6.07139">
        <ele>736.084728</ele>
        <time>2013-07-14T12:07:32Z</time>
      </trkpt>
      <trkpt lat="45.02937" lon="6.07109">
        <ele>739.229207</ele>
        <time>2013-07-14T12:07:37Z</time>
      </trkpt>
      <trkpt lat="45.02969" lon="6.07074">
        <ele>742.740499</ele>
        <time>2013-07-14T12:07:42Z</time>
      </trkpt>
      <trkpt lat="45.02994" lon="6.07038">
        <ele>786.637886</ele>
        <time>2013-07-14T12:07:47Z</time>
      </trkpt>
      <trkpt lat="45.03024" lon="6.07009">
        <ele>796.93724</ele>
        <time>2013-07-14T12:07:52Z</time>
      </trkpt>
      <trkpt lat="45.0306" lon="6.06977">
        <ele>803.433531</ele>
        <time>2013-07-14T12:07:57Z</time>
      </trkpt>
      <trkpt lat="45.03101" lon="6.06938">
        <ele>812.395968</ele>
        <time>2013-07-14T12:08:02Z</time>
      </trkpt>
      <trkpt lat="45.03148" lon="6.0689">
        <ele>820.072598</ele>
        <time>2013-07-14T12:08:07Z</time>
      </trkpt>
      <trkpt lat="45.03193" lon="6.06847">
        <ele>829.454221</ele>
        <time>2013-07-14T12:08:12Z</time>
      </trkpt>
      <trkpt lat="45.03238" lon="6.06809">
        <ele>833.49423</ele>
        <time>2013-07-14T12:08:17Z</time>
      </trkpt>
      <trkpt lat="45.03284" lon="6.06775">
        <ele>839.881405</ele>
        <time>2013-07-14T12:08:22Z</time>
      </trkpt>
      <trkpt lat="45.03327" lon="6.06736">
        <ele>847.366237</ele>
        <time>2013-07-14T12:08:27Z</time>
      </trkpt>
      <trkpt lat="45.03364" lon="6.06706">
        <ele>854.722427</ele>
        <time>2013-07-14T12:08:32Z</time>
      </trkpt>
      <trkpt lat="45.03401" lon="6.06673">
        <ele>864.7501</ele>
        <time>2013-07-14T12:08:37Z</time>
      </trkpt>
      <trkpt lat="45.03435" lon="6.06636">
        <ele>878.775248</ele>
        <time>2013-07-14T12:08:42Z</time>
      </trkpt>
      <trkpt lat="45.03468" lon="6.06601">
        <ele>892.945302</ele>
        <time>2013-07-14T12:08:47Z</time>
      </trkpt>
      <trkpt lat="45.03505" lon="6.06575">
        <ele>906.950148</ele>
        <time>2013-07-14T12:08:52Z</time>
      </trkpt>
      <trkpt lat="45.03544" lon="6.06543">
        <ele>919.101877</ele>
        <time>2013-07-14T12:08:57Z</time>
      </trkpt>
      <trkpt lat="45.0358" lon="6.06506">
        <ele>929.610071</ele>
        <time>2013-07-14T12:09:02Z</time>
      </trkpt>
      <trkpt lat="45.03617" lon="6.06472">
        <ele>939.565266</ele>
        <time>2013-07-14T12:09:07Z</time>
      </trkpt>
      <trkpt lat="45.03655" lon="6.06437">
        <ele>941.69219</ele>
        <time>2013-07-14T12:09:12Z</time>
      </trkpt>
      <trkpt lat="45.0369" lon="6.06402">
        <ele>947.337852</ele>
        <time>2013-07-14T12:09:17Z</time>
      </trkpt>
      <trkpt lat="45.03725" lon="6.06372">
        <ele>955.395416</ele>
        <time>2013-07-14T12:09:22Z</time>
      </trkpt>
      <trkpt lat="45.03762" lon="6.06341">
        <ele>950.621447</ele>
        <time>2013-07-14T12:09:27Z</time>
      </trkpt>
      <trkpt lat="45.03798" lon="6.06307">
        <ele>950.701781</ele>
        <time>2013-07-14T12:09:32Z</time>
      </trkpt>
      <trkpt lat="45.03834" lon="6.06277">
        <ele>952.341994</ele>
        <time>2013-07-14T12:09:37Z</time>
      </trkpt>
      <trkpt lat="45.03866" lon="6.06249">
        <ele>952.786356</ele>
        <time>2013-07-14T12:09:42Z</time>
      </trkpt>
      <trkpt lat="45.03904" lon="6.06216">
        <ele>932.277035</ele>
        <time>2013-07-14T12:09:47Z</time>
      </trkpt>
      <trkpt lat="45.03941" lon="6.06186">
        <ele>914.104889</ele>
        <time>2013-07-14T12:09:52Z</time>
      </trkpt>
      <trkpt lat="45.03976" lon="6.06158">
        <ele>906.023845</ele>
        <time>2013-07-14T12:09:57Z</time>
      </trkpt>
      <trkpt lat="45.04013" lon="6.06128">
        <ele>899.209094</ele>
        <time>2013-07-14T12:10:02Z</time>
      </trkpt>
      <trkpt lat="45.0405" lon="6.06096">
        <ele>881.596369</ele>
        <time>2013-07-14T12:10:07Z</time>
      </trkpt>
      <trkpt lat="45.04082" lon="6.06066">
        <ele>883.29868</ele>
        <time>2013-07-14T12:10:12Z</time>
      </trkpt>
      <trkpt lat="45.04114" lon="6.06037">
        <ele>882.962959</ele>
        <time>2013-07-14T12:10:17Z</time>
      </trkpt>
      <trkpt lat="45.04147" lon="6.06009">
        <ele>881.924871</ele>
        <time>2013-07-14T12:10:22Z</time>
      </trkpt>
      <trkpt lat="45.04179" lon="6.05983">
        <ele>881.036254</ele>
        <time>2013-07-14T12:10:27Z</time>
      </trkpt>
      <trkpt lat="45.04213" lon="6.05952">
        <ele>880.55718</ele>
        <time>2013-07-14T12:10:32Z</time>
      </trkpt>
      <trkpt lat="45.04251" lon="6.05918">
        <ele>864.989783</ele>
        <time>2013-07-14T12:10:37Z</time>
      </trkpt>
      <trkpt lat="45.04293" lon="6.05885">
        <ele>826.79897</ele>
        <time>2013-07-14T12:10:42Z</time>
      </trkpt>
      <trkpt lat="45.0433" lon="6.05857">
        <ele>804.474341</ele>
        <time>2013-07-14T12:10:47Z</time>
      </trkpt>
      <trkpt lat="45.04362" lon="6.05833">
        <ele>793.082325</ele>
        <time>2013-07-14T12:10:52Z</time>
      </trkpt>
      <trkpt lat="45.04392" lon="6.05808">
        <ele>785.134114</ele>
        <time>2013-07-14T12:10:57Z</time>
      </trkpt>
      <trkpt lat="45.04425" lon="6.05783">
        <ele>779.314137</ele>
        <time>2013-07-14T12:11:02Z</time>
      </trkpt>
      <trkpt lat="45.04455" lon="6.05759">
        <ele>771.440982</ele>
        <time>2013-07-14T12:11:07Z</time>
      </trkpt>
      <trkpt lat="45.04484" lon="6.0573">
        <ele>764.046993</ele>
        <time>2013-07-14T12:11:12Z</time>
      </trkpt>
      <trkpt lat="45.04515" lon="6.05702">
        <ele>757.360914</ele>
        <time>2013-07-14T12:11:17Z</time>
      </trkpt>
      <trkpt lat="45.04546" lon="6.05675">
        <ele>747.859617</ele>
        <time>2013-07-14T12:11:22Z</time>
      </trkpt>
      <trkpt lat="45.04576" lon="6.05647">
        <ele>739.763783</ele>
        <time>2013-07-14T12:11:27Z</time>
      </trkpt>
      <trkpt lat="45.04601" lon="6.05622">
        <ele>731.163835</ele>
        <time>2013-07-14T12:11:32Z</time>
      </trkpt>
      <trkpt lat="45.04623" lon="6.05598">
        <ele>731.797725</ele>
        <time>2013-07-14T12:11:37Z</time>
      </trkpt>
      <trkpt lat="45.04642" lon="6.05559">
        <ele>738.722501</ele>
        <time>2013-07-14T12:11:42Z</time>
      </trkpt>
      <trkpt lat="45.04668" lon="6.05513">
        <ele>743.033301</ele>
        <time>2013-07-14T12:11:47Z</time>
      </trkpt>
      <trkpt lat="45.04688" lon="6.05472">
        <ele>746.919541</ele>
        <time>2013-07-14T12:11:52Z</time>
      </trkpt>
      <trkpt lat="45.0471" lon="6.05431">
        <ele>752.295926</ele>
        <time>2013-07-14T12:11:57Z</time>
      </trkpt>
      <trkpt lat="45.0473" lon="6.05393">
        <ele>758.519061</ele>
        <time>2013-07-14T12:12:02Z</time>
      </trkpt>
      <trkpt lat="45.04752" lon="6.05352">
        <ele>770.947296</ele>
        <time>2013-07-14T12:12:07Z</time>
      </trkpt>
      <trkpt lat="45.04773" lon="6.05317">
        <ele>777.325008</ele>
        <time>2013-07-14T12:12:12Z</time>
      </trkpt>
      <trkpt lat="45.04796" lon="6.05279">
        <ele>782.856477</ele>
        <time>2013-07-14T12:12:17Z</time>
      </trkpt>
      <trkpt lat="45.04813" lon="6.05248">
        <ele>786.622171</ele>
        <time>2013-07-14T12:12:22Z</time>
      </trkpt>
      <trkpt lat="45.04834" lon="6.0521">
        <ele>792.14381</ele>
        <time>2013-07-14T12:12:27Z</time>
      </trkpt>
      <trkpt lat="45.04853" lon="6.05173">
        <ele>799.853</ele>
        <time>2013-07-14T12:12:32Z</time>
      </trkpt>
      <trkpt lat="45.04875" lon="6.05138">
        <ele>804.118899</ele>
        <time>2013-07-14T12:12:37Z</time>
      </trkpt>
      <trkpt lat="45.04897" lon="6.05098">
        <ele>805.974267</ele>
        <time>2013-07-14T12:12:42Z</time>
      </trkpt>
      <trkpt lat="45.04923" lon="6.05055">
        <ele>800.565397</ele>
        <time>2013-07-14T12:12:47Z</time>
      </trkpt>
      <trkpt lat="45.04946" lon="6.05014">
        <ele>801.64427</ele>
        <time>2013-07-14T12:12:52Z</time>
      </trkpt>
      <trkpt lat="45.0497" lon="6.04973">
        <ele>804.138851</ele>
        <time>2013-07-14T12:12:57Z</time>
      </trkpt>
      <trkpt lat="45.04993" lon="6.04934">
        <ele>803.249171</ele>
        <time>2013-07-14T12:13:02Z</time>
      </trkpt>
      <trkpt lat="45.05016" lon="6.04895">
        <ele>798.762173</ele>
        <time>2013-07-14T12:13:07Z</time>
      </trkpt>
      <trkpt lat="45.05039" lon="6.04855">
        <ele>799.916546</ele>
        <time>2013-07-14T12:13:12Z</time>
      </trkpt>
      <trkpt lat="45.05064" lon="6.04817">
        <ele>786.27101</ele>
        <time>2013-07-14T12:13:17Z</time>
      </trkpt>
      <trkpt lat="45.05086" lon="6.04775">
        <ele>783.743551</ele>
        <time>2013-07-14T12:13:22Z</time>
      </trkpt>
      <trkpt lat="45.0511" lon="6.04736">
        <ele>783.493613</ele>
        <time>2013-07-14T12:13:27Z</time>
      </trkpt>
      <trkpt lat="45.05139" lon="6.047">
        <ele>785.600829</ele>
        <time>2013-07-14T12:13:32Z</time>
      </trkpt>
      <trkpt lat="45.05165" lon="6.04663">
        <ele>791.854343</ele>
        <time>2013-07-14T12:13:37Z</time>
      </trkpt>
      <trkpt lat="45.05192" lon="6.04627">
        <ele>791.838874</ele>
        <time>2013-07-14T12:13:42Z</time>
      </trkpt>
      <trkpt lat="45.0522" lon="6.04592">
        <ele>790.4186</ele>
        <time>2013-07-14T12:13:47Z</time>
      </trkpt>
      <trkpt lat="45.05244" lon="6.04559">
        <ele>788.429204</ele>
        <time>2013-07-14T12:13:52Z</time>
      </trkpt>
      <trkpt lat="45.05268" lon="6.04528">
        <ele>787.993887</ele>
        <time>2013-07-14T12:13:57Z</time>
      </trkpt>
      <trkpt lat="45.05296" lon="6.04497">
        <ele>783.274458</ele>
        <time>2013-07-14T12:14:02Z</time>
      </trkpt>
      <trkpt lat="45.05319" lon="6.04469">
        <ele>788.629481</ele>
        <time>2013-07-14T12:14:07Z</time>
      </trkpt>
      <trkpt lat="45.05342" lon="6.04436">
        <ele>798.694899</ele>
        <time>2013-07-14T12:14:12Z</time>
      </trkpt>
      <trkpt lat="45.05364" lon="6.04408">
        <ele>802.709148</ele>
        <time>2013-07-14T12:14:17Z</time>
      </trkpt>
      <trkpt lat="45.05385" lon="6.04381">
        <ele>814.551887</ele>
        <time>2013-07-14T12:14:22Z</time>
      </trkpt>
      <trkpt lat="45.05408" lon="6.0435">
        <ele>819.051107</ele>
        <time>2013-07-14T12:14:27Z</time>
      </trkpt>
      <trkpt lat="45.05434" lon="6.04319">
        <ele>827.089406</ele>
        <time>2013-07-14T12:14:32Z</time>
      </trkpt>
      <trkpt lat="45.0546" lon="6.04284">
        <ele>833.494539</ele>
        <time>2013-07-14T12:14:37Z</time>
      </trkpt>
      <trkpt lat="45.05485" lon="6.04249">
        <ele>839.894643</ele>
        <time>2013-07-14T12:14:42Z</time>
      </trkpt>
      <trkpt lat="45.05506" lon="6.04219">
        <ele>845.874064</ele>
        <time>2013-07-14T12:14:47Z</time>
      </trkpt>
      <trkpt lat="45.05535" lon="6.04185">
        <ele>841.008174</ele>
        <time>2013-07-14T12:14:52Z</time>
      </trkpt>
      <trkpt lat="45.0556" lon="6.04154">
        <ele>834.162576</ele>
        <time>2013-07-14T12:14:57Z</time>
      </trkpt>
      <trkpt lat="45.05584" lon="6.04121">
        <ele>830.765923</ele>
        <time>2013-07-14T12:15:02Z</time>
      </trkpt>
      <trkpt lat="45.05614" lon="6.04092">
        <ele>818.369871</ele>
        <time>2013-07-14T12:15:07Z</time>
      </trkpt>
      <trkpt lat="45.05647" lon="6.04065">
        <ele>795.415495</ele>
        <time>2013-07-14T12:15:12Z</time>
      </trkpt>
      <trkpt lat="45.05677" lon="6.04041">
        <ele>788.963777</ele>
        <time>2013-07-14T12:15:17Z</time>
      </trkpt>
      <trkpt lat="45.05706" lon="6.04022">
        <ele>783.586431</ele>
        <time>2013-07-14T12:15:22Z</time>
      </trkpt>
      <trkpt lat="45.05733" lon="6.04006">
        <ele>783.285952</ele>
        <time>2013-07-14T12:15:27Z</time>
      </trkpt>
      <trkpt lat="45.05762" lon="6.03992">
        <ele>786.66804</ele>
        <time>2013-07-14T12:15:32Z</time>
      </trkpt>
      <trkpt lat="45.0579" lon="6.03978">
        <ele>789.342486</ele>
        <time>2013-07-14T12:15:37Z</time>
      </trkpt>
      <trkpt lat="45.05822" lon="6.0396">
        <ele>788.207476</ele>
        <time>2013-07-14T12:15:42Z</time>
      </trkpt>
      <trkpt lat="45.05851" lon="6.03943">
        <ele>789.254403</ele>
        <time>2013-07-14T12:15:47Z</time>
      </trkpt>
      <trkpt lat="45.05879" lon="6.0392">
        <ele>788.583221</ele>
        <time>2013-07-14T12:15:52Z</time>
      </trkpt>
      <trkpt lat="45.05901" lon="6.03886">
        <ele>786.514067</ele>
        <time>2013-07-14T12:15:57Z</time>
      </trkpt>
      <trkpt lat="45.05914" lon="6.0385">
        <ele>784.407459</ele>
        <time>2013-07-14T12:16:02Z</time>
      </trkpt>
      <trkpt lat="45.05922" lon="6.03826">
        <ele>785.066353</ele>
        <time>2013-07-14T12:16:07Z</time>
      </trkpt>
      <trkpt lat="45.05941" lon="6.03805">
        <ele>782.393957</ele>
        <time>2013-07-14T12:16:12Z</time>
      </trkpt>
      <trkpt lat="45.05965" lon="6.03791">
        <ele>783.637776</ele>
        <time>2013-07-14T12:16:17Z</time>
      </trkpt>
      <trkpt lat="45.05997" lon="6.03786">
        <ele>783.326854</ele>
        <time>2013-07-14T12:16:22Z</time>
      </trkpt>
      <trkpt lat="45.0603" lon="6.03779">
        <ele>786.395975</ele>
        <time>2013-07-14T12:16:27Z</time>
      </trkpt>
      <trkpt lat="45.06066" lon="6.03772">
        <ele>786.586672</ele>
        <time>2013-07-14T12:16:32Z</time>
      </trkpt>
      <trkpt lat="45.061" lon="6.03763">
        <ele>784.574339</ele>
        <time>2013-07-14T12:16:37Z</time>
      </trkpt>
      <trkpt lat="45.06132" lon="6.03755">
        <ele>784.743821</ele>
        <time>2013-07-14T12:16:42Z</time>
      </trkpt>
      <trkpt lat="45.06163" lon="6.03744">
        <ele>786.175215</ele>
        <time>2013-07-14T12:16:47Z</time>
      </trkpt>
      <trkpt lat="45.06194" lon="6.03728">
        <ele>786.596337</ele>
        <time>2013-07-14T12:16:52Z</time>
      </trkpt>
      <trkpt lat="45.06226" lon="6.03712">
        <ele>787.02857</ele>
        <time>2013-07-14T12:16:57Z</time>
      </trkpt>
      <trkpt lat="45.0626" lon="6.03711">
        <ele>785.463053</ele>
        <time>2013-07-14T12:17:02Z</time>
      </trkpt>
      <trkpt lat="45.06288" lon="6.03722">
        <ele>781.80362</ele>
        <time>2013-07-14T12:17:07Z</time>
      </trkpt>
      <trkpt lat="45.06312" lon="6.03745">
        <ele>786.698997</ele>
        <time>2013-07-14T12:17:12Z</time>
      </trkpt>
      <trkpt lat="45.06335" lon="6.03775">
        <ele>786.95294</ele>
        <time>2013-07-14T12:17:17Z</time>
      </trkpt>
      <trkpt lat="45.06355" lon="6.03802">
        <ele>788.532087</ele>
        <time>2013-07-14T12:17:22Z</time>
      </trkpt>
      <trkpt lat="45.06377" lon="6.03836">
        <ele>778.429333</ele>
        <time>2013-07-14T12:17:27Z</time>
      </trkpt>
      <trkpt lat="45.06396" lon="6.03863">
        <ele>780.003311</ele>
        <time>2013-07-14T12:17:32Z</time>
      </trkpt>
      <trkpt lat="45.06414" lon="6.0389">
        <ele>779.384933</ele>
        <time>2013-07-14T12:17:37Z</time>
      </trkpt>
      <trkpt lat="45.06433" lon="6.03916">
        <ele>778.766689</ele>
        <time>2013-07-14T12:17:42Z</time>
      </trkpt>
      <trkpt lat="45.06449" lon="6.0394">
        <ele>773.05566</ele>
        <time>2013-07-14T12:17:47Z</time>
      </trkpt>
      <trkpt lat="45.06466" lon="6.03963">
        <ele>773.693812</ele>
        <time>2013-07-14T12:17:52Z</time>
      </trkpt>
      <trkpt lat="45.06482" lon="6.03986">
        <ele>772.841945</ele>
        <time>2013-07-14T12:17:57Z</time>
      </trkpt>
      <trkpt lat="45.065" lon="6.04012">
        <ele>780.052348</ele>
        <time>2013-07-14T12:18:02Z</time>
      </trkpt>
      <trkpt lat="45.06523" lon="6.04024">
        <ele>785.68522</ele>
        <time>2013-07-14T12:18:07Z</time>
      </trkpt>
      <trkpt lat="45.06544" lon="6.04015">
        <ele>786.515168</ele>
        <time>2013-07-14T12:18:12Z</time>
      </trkpt>
      <trkpt lat="45.06559" lon="6.04006">
        <ele>793.032989</ele>
        <time>2013-07-14T12:18:17Z</time>
      </trkpt>
      <trkpt lat="45.06571" lon="6.04">
        <ele>800.470643</ele>
        <time>2013-07-14T12:18:22Z</time>
      </trkpt>
      <trkpt lat="45.06581" lon="6.03993">
        <ele>804.299966</ele>
        <time>2013-07-14T12:18:27Z</time>
      </trkpt>
      <trkpt lat="45.06594" lon="6.03987">
        <ele>810.327392</ele>
        <time>2013-07-14T12:18:32Z</time>
      </trkpt>
      <trkpt lat="45.06606" lon="6.03983">
        <ele>814.310952</ele>
        <time>2013-07-14T12:18:37Z</time>
      </trkpt>
      <trkpt lat="45.06619" lon="6.03979">
        <ele>814.777144</ele>
        <time>2013-07-14T12:18:42Z</time>
      </trkpt>
      <trkpt lat="45.06634" lon="6.03968">
        <ele>804.856692</ele>
        <time>2013-07-14T12:18:47Z</time>
      </trkpt>
      <trkpt lat="45.06649" lon="6.03961">
        <ele>798.756495</ele>
        <time>2013-07-14T12:18:52Z</time>
      </trkpt>
      <trkpt lat="45.06662" lon="6.03959">
        <ele>800.707413</ele>
        <time>2013-07-14T12:18:57Z</time>
      </trkpt>
      <trkpt lat="45.06674" lon="6.03948">
        <ele>803.611656</ele>
        <time>2013-07-14T12:19:02Z</time>
      </trkpt>
      <trkpt lat="45.06683" lon="6.03936">
        <ele>802.907541</ele>
        <time>2013-07-14T12:19:07Z</time>
      </trkpt>
      <trkpt lat="45.06699" lon="6.03945">
        <ele>809.067003</ele>
        <time>2013-07-14T12:19:12Z</time>
      </trkpt>
      <trkpt lat="45.06711" lon="6.03949">
        <ele>809.973737</ele>
        <time>2013-07-14T12:19:17Z</time>
      </trkpt>
      <trkpt lat="45.06722" lon="6.03948">
        <ele>814.17493</ele>
        <time>2013-07-14T12:19:22Z</time>
      </trkpt>
      <trkpt lat="45.06733" lon="6.03944">
        <ele>818.158797</ele>
        <time>2013-07-14T12:19:27Z</time>
      </trkpt>
      <trkpt lat="45.06744" lon="6.0394">
        <ele>821.434753</ele>
        <time>2013-07-14T12:19:32Z</time>
      </trkpt>
      <trkpt lat="45.06755" lon="6.03937">
        <ele>826.195335</ele>
        <time>2013-07-14T12:19:37Z</time>
      </trkpt>
      <trkpt lat="45.06766" lon="6.03935">
        <ele>830.322308</ele>
        <time>2013-07-14T12:19:42Z</time>
      </trkpt>
      <trkpt lat="45.0678" lon="6.03933">
        <ele>822.407087</ele>
        <time>2013-07-14T12:19:47Z</time>
      </trkpt>
      <trkpt lat="45.06795" lon="6.0393">
        <ele>819.350826</ele>
        <time>2013-07-14T12:19:52Z</time>
      </trkpt>
      <trkpt lat="45.06806" lon="6.03921">
        <ele>818.098819</ele>
        <time>2013-07-14T12:19:57Z</time>
      </trkpt>
      <trkpt lat="45.06816" lon="6.03921">
        <ele>819.479616</ele>
        <time>2013-07-14T12:20:02Z</time>
      </trkpt>
      <trkpt lat="45.06825" lon="6.03919">
        <ele>823.601108</ele>
        <time>2013-07-14T12:20:07Z</time>
      </trkpt>
      <trkpt lat="45.06837" lon="6.03921">
        <ele>825.844111</ele>
        <time>2013-07-14T12:20:12Z</time>
      </trkpt>
      <trkpt lat="45.06849" lon="6.03924">
        <ele>830.274081</ele>
        <time>2013-07-14T12:20:17Z</time>
      </trkpt>
      <trkpt lat="45.06859" lon="6.03928">
        <ele>831.877878</ele>
        <time>2013-07-14T12:20:22Z</time>
      </trkpt>
      <trkpt lat="45.0687" lon="6.03932">
        <ele>836.382203</ele>
        <time>2013-07-14T12:20:27Z</time>
      </trkpt>
      <trkpt lat="45.06882" lon="6.03932">
        <ele>835.656116</ele>
        <time>2013-07-14T12:20:32Z</time>
      </trkpt>
      <trkpt lat="45.06895" lon="6.03931">
        <ele>839.794585</ele>
        <time>2013-07-14T12:20:37Z</time>
      </trkpt>
      <trkpt lat="45.06906" lon="6.0393">
        <ele>846.114394</ele>
        <time>2013-07-14T12:20:42Z</time>
      </trkpt>
      <trkpt lat="45.06916" lon="6.03927">
        <ele>848.75707</ele>
        <time>2013-07-14T12:20:47Z</time>
      </trkpt>
      <trkpt lat="45.06928" lon="6.03918">
        <ele>838.266942</ele>
        <time>2013-07-14T12:20:52Z</time>
      </trkpt>
      <trkpt lat="45.06939" lon="6.03908">
        <ele>834.12035</ele>
        <time>2013-07-14T12:20:57Z</time>
      </trkpt>
      <trkpt lat="45.06949" lon="6.039">
        <ele>833.639675</ele>
        <time>2013-07-14T12:21:02Z</time>
      </trkpt>
      <trkpt lat="45.06959" lon="6.03892">
        <ele>832.456695</ele>
        <time>2013-07-14T12:21:07Z</time>
      </trkpt>
      <trkpt lat="45.06968" lon="6.03891">
        <ele>842.293913</ele>
        <time>2013-07-14T12:21:12Z</time>
      </trkpt>
      <trkpt lat="45.06976" lon="6.03885">
        <ele>843.366551</ele>
        <time>2013-07-14T12:21:17Z</time>
      </trkpt>
      <trkpt lat="45.06987" lon="6.03881">
        <ele>846.643051</ele>
        <time>2013-07-14T12:21:22Z</time>
      </trkpt>
      <trkpt lat="45.06998" lon="6.03878">
        <ele>853.522431</ele>
        <time>2013-07-14T12:21:27Z</time>
      </trkpt>
      <trkpt lat="45.07005" lon="6.03874">
        <ele>858.968949</ele>
        <time>2013-07-14T12:21:32Z</time>
      </trkpt>
      <trkpt lat="45.07015" lon="6.03868">
        <ele>864.283834</ele>
        <time>2013-07-14T12:21:37Z</time>
      </trkpt>
      <trkpt lat="45.07023" lon="6.03864">
        <ele>866.841147</ele>
        <time>2013-07-14T12:21:42Z</time>
      </trkpt>
      <trkpt lat="45.07031" lon="6.03862">
        <ele>872.367651</ele>
        <time>2013-07-14T12:21:47Z</time>
      </trkpt>
      <trkpt lat="45.07041" lon="6.03859">
        <ele>875.010599</ele>
        <time>2013-07-14T12:21:52Z</time>
      </trkpt>
      <trkpt lat="45.07053" lon="6.0386">
        <ele>879.292406</ele>
        <time>2013-07-14T12:21:57Z</time>
      </trkpt>
      <trkpt lat="45.07064" lon="6.03857">
        <ele>882.643377</ele>
        <time>2013-07-14T12:22:02Z</time>
      </trkpt>
      <trkpt lat="45.07072" lon="6.03857">
        <ele>889.02651</ele>
        <time>2013-07-14T12:22:07Z</time>
      </trkpt>
      <trkpt lat="45.07084" lon="6.0385">
        <ele>892.862623</ele>
        <time>2013-07-14T12:22:12Z</time>
      </trkpt>
      <trkpt lat="45.07091" lon="6.03849">
        <ele>897.053221</ele>
        <time>2013-07-14T12:22:17Z</time>
      </trkpt>
      <trkpt lat="45.07102" lon="6.03852">
        <ele>897.172879</ele>
        <time>2013-07-14T12:22:22Z</time>
      </trkpt>
      <trkpt lat="45.07114" lon="6.03859">
        <ele>899.011374</ele>
        <time>2013-07-14T12:22:27Z</time>
      </trkpt>
      <trkpt lat="45.07127" lon="6.0388">
        <ele>897.367659</ele>
        <time>2013-07-14T12:22:32Z</time>
      </trkpt>
      <trkpt lat="45.0714" lon="6.03893">
        <ele>892.457642</ele>
        <time>2013-07-14T12:22:37Z</time>
      </trkpt>
      <trkpt lat="45.0715" lon="6.03901">
        <ele>890.054012</ele>
        <time>2013-07-14T12:22:42Z</time>
      </trkpt>
      <trkpt lat="45.07163" lon="6.03905">
        <ele>886.028591</ele>
        <time>2013-07-14T12:22:47Z</time>
      </trkpt>
      <trkpt lat="45.07172" lon="6.03909">
        <ele>877.052952</ele>
        <time>2013-07-14T12:22:52Z</time>
      </trkpt>
      <trkpt lat="45.07173" lon="6.0392">
        <ele>858.542637</ele>
        <time>2013-07-14T12:22:57Z</time>
      </trkpt>
      <trkpt lat="45.07169" lon="6.03923">
        <ele>862.271356</ele>
        <time>2013-07-14T12:23:02Z</time>
      </trkpt>
      <trkpt lat="45.07166" lon="6.03923">
        <ele>865.080563</ele>
        <time>2013-07-14T12:23:07Z</time>
      </trkpt>
      <trkpt lat="45.07156" lon="6.03921">
        <ele>869.265942</ele>
        <time>2013-07-14T12:23:12Z</time>
      </trkpt>
      <trkpt lat="45.07152" lon="6.03918">
        <ele>873.331161</ele>
        <time>2013-07-14T12:23:17Z</time>
      </trkpt>
      <trkpt lat="45.07143" lon="6.03917">
        <ele>875.403969</ele>
        <time>2013-07-14T12:23:22Z</time>
      </trkpt>
      <trkpt lat="45.07124" lon="6.0391">
        <ele>873.611267</ele>
        <time>2013-07-14T12:23:27Z</time>
      </trkpt>
      <trkpt lat="45.07112" lon="6.03908">
        <ele>875.672778</ele>
        <time>2013-07-14T12:23:32Z</time>
      </trkpt>
      <trkpt lat="45.071" lon="6.03909">
        <ele>876.472625</ele>
        <time>2013-07-14T12:23:37Z</time>
      </trkpt>
      <trkpt lat="45.07088" lon="6.03909">
        <ele>880.018786</ele>
        <time>2013-07-14T12:23:42Z</time>
      </trkpt>
      <trkpt lat="45.07081" lon="6.03909">
        <ele>885.705915</ele>
        <time>2013-07-14T12:23:47Z</time>
      </trkpt>
      <trkpt lat="45.07073" lon="6.03914">
        <ele>890.976611</ele>
        <time>2013-07-14T12:23:52Z</time>
      </trkpt>
      <trkpt lat="45.07063" lon="6.03915">
        <ele>894.608462</ele>
        <time>2013-07-14T12:23:57Z</time>
      </trkpt>
      <trkpt lat="45.07054" lon="6.03922">
        <ele>897.835224</ele>
        <time>2013-07-14T12:24:02Z</time>
      </trkpt>
      <trkpt lat="45.07045" lon="6.03928">
        <ele>901.062007</ele>
        <time>2013-07-14T12:24:07Z</time>
      </trkpt>
      <trkpt lat="45.0703" lon="6.03937">
        <ele>901.59421</ele>
        <time>2013-07-14T12:24:12Z</time>
      </trkpt>
      <trkpt lat="45.07018" lon="6.03954">
        <ele>897.650408</ele>
        <time>2013-07-14T12:24:17Z</time>
      </trkpt>
      <trkpt lat="45.07011" lon="6.03964">
        <ele>898.290916</ele>
        <time>2013-07-14T12:24:22Z</time>
      </trkpt>
      <trkpt lat="45.06997" lon="6.03979">
        <ele>895.597576</ele>
        <time>2013-07-14T12:24:27Z</time>
      </trkpt>
      <trkpt lat="45.06988" lon="6.03986">
        <ele>897.488516</ele>
        <time>2013-07-14T12:24:32Z</time>
      </trkpt>
      <trkpt lat="45.0698" lon="6.03995">
        <ele>900.167401</ele>
        <time>2013-07-14T12:24:37Z</time>
      </trkpt>
      <trkpt lat="45.06974" lon="6.04006">
        <ele>901.515971</ele>
        <time>2013-07-14T12:24:42Z</time>
      </trkpt>
      <trkpt lat="45.06966" lon="6.04019">
        <ele>903.007548</ele>
        <time>2013-07-14T12:24:47Z</time>
      </trkpt>
      <trkpt lat="45.06959" lon="6.04028">
        <ele>905.686495</ele>
        <time>2013-07-14T12:24:52Z</time>
      </trkpt>
      <trkpt lat="45.06951" lon="6.04036">
        <ele>908.291142</ele>
        <time>2013-07-14T12:24:57Z</time>
      </trkpt>
      <trkpt lat="45.06942" lon="6.04049">
        <ele>911.187448</ele>
        <time>2013-07-14T12:25:02Z</time>
      </trkpt>
      <trkpt lat="45.06937" lon="6.0406">
        <ele>913.244082</ele>
        <time>2013-07-14T12:25:07Z</time>
      </trkpt>
      <trkpt lat="45.06932" lon="6.04072">
        <ele>916.083017</ele>
        <time>2013-07-14T12:25:12Z</time>
      </trkpt>
      <trkpt lat="45.06926" lon="6.04076">
        <ele>917.768069</ele>
        <time>2013-07-14T12:25:17Z</time>
      </trkpt>
      <trkpt lat="45.06918" lon="6.04079">
        <ele>920.069876</ele>
        <time>2013-07-14T12:25:22Z</time>
      </trkpt>
      <trkpt lat="45.06912" lon="6.04082">
        <ele>922.382952</ele>
        <time>2013-07-14T12:25:27Z</time>
      </trkpt>
      <trkpt lat="45.06905" lon="6.04086">
        <ele>921.944154</ele>
        <time>2013-07-14T12:25:32Z</time>
      </trkpt>
      <trkpt lat="45.06895" lon="6.0409">
        <ele>927.13528</ele>
        <time>2013-07-14T12:25:37Z</time>
      </trkpt>
      <trkpt lat="45.06885" lon="6.04089">
        <ele>932.805783</ele>
        <time>2013-07-14T12:25:42Z</time>
      </trkpt>
      <trkpt lat="45.06874" lon="6.04093">
        <ele>938.699284</ele>
        <time>2013-07-14T12:25:47Z</time>
      </trkpt>
      <trkpt lat="45.06865" lon="6.04096">
        <ele>936.764692</ele>
        <time>2013-07-14T12:25:52Z</time>
      </trkpt>
      <trkpt lat="45.06853" lon="6.041">
        <ele>934.190881</ele>
        <time>2013-07-14T12:25:57Z</time>
      </trkpt>
      <trkpt lat="45.06845" lon="6.04103">
        <ele>932.969894</ele>
        <time>2013-07-14T12:26:02Z</time>
      </trkpt>
      <trkpt lat="45.06826" lon="6.04108">
        <ele>925.503597</ele>
        <time>2013-07-14T12:26:07Z</time>
      </trkpt>
      <trkpt lat="45.0681" lon="6.04113">
        <ele>925.100027</ele>
        <time>2013-07-14T12:26:12Z</time>
      </trkpt>
      <trkpt lat="45.06797" lon="6.04112">
        <ele>930.051551</ele>
        <time>2013-07-14T12:26:17Z</time>
      </trkpt>
      <trkpt lat="45.06788" lon="6.04115">
        <ele>937.286795</ele>
        <time>2013-07-14T12:26:22Z</time>
      </trkpt>
      <trkpt lat="45.06779" lon="6.04122">
        <ele>938.47587</ele>
        <time>2013-07-14T12:26:27Z</time>
      </trkpt>
      <trkpt lat="45.06765" lon="6.04126">
        <ele>940.121947</ele>
        <time>2013-07-14T12:26:32Z</time>
      </trkpt>
      <trkpt lat="45.06754" lon="6.04128">
        <ele>943.12079</ele>
        <time>2013-07-14T12:26:37Z</time>
      </trkpt>
      <trkpt lat="45.06744" lon="6.04135">
        <ele>943.522073</ele>
        <time>2013-07-14T12:26:42Z</time>
      </trkpt>
      <trkpt lat="45.06731" lon="6.04144">
        <ele>940.537948</ele>
        <time>2013-07-14T12:26:47Z</time>
      </trkpt>
      <trkpt lat="45.06723" lon="6.04152">
        <ele>940.316851</ele>
        <time>2013-07-14T12:26:52Z</time>
      </trkpt>
      <trkpt lat="45.06712" lon="6.04159">
        <ele>940.718214</ele>
        <time>2013-07-14T12:26:57Z</time>
      </trkpt>
      <trkpt lat="45.06701" lon="6.04168">
        <ele>939.857988</ele>
        <time>2013-07-14T12:27:02Z</time>
      </trkpt>
      <trkpt lat="45.06691" lon="6.04177">
        <ele>940.40808</ele>
        <time>2013-07-14T12:27:07Z</time>
      </trkpt>
      <trkpt lat="45.06679" lon="6.04183">
        <ele>940.803952</ele>
        <time>2013-07-14T12:27:12Z</time>
      </trkpt>
      <trkpt lat="45.06669" lon="6.04187">
        <ele>941.764673</ele>
        <time>2013-07-14T12:27:17Z</time>
      </trkpt>
      <trkpt lat="45.06657" lon="6.04192">
        <ele>943.496549</ele>
        <time>2013-07-14T12:27:22Z</time>
      </trkpt>
      <trkpt lat="45.06646" lon="6.04198">
        <ele>946.010722</ele>
        <time>2013-07-14T12:27:27Z</time>
      </trkpt>
      <trkpt lat="45.0664" lon="6.04212">
        <ele>946.806235</ele>
        <time>2013-07-14T12:27:32Z</time>
      </trkpt>
      <trkpt lat="45.06645" lon="6.04223">
        <ele>945.31059</ele>
        <time>2013-07-14T12:27:37Z</time>
      </trkpt>
      <trkpt lat="45.06655" lon="6.04225">
        <ele>944.019171</ele>
        <time>2013-07-14T12:27:42Z</time>
      </trkpt>
      <trkpt lat="45.06668" lon="6.04223">
        <ele>941.031246</ele>
        <time>2013-07-14T12:27:47Z</time>
      </trkpt>
      <trkpt lat="45.0668" lon="6.04224">
        <ele>943.199608</ele>
        <time>2013-07-14T12:27:52Z</time>
      </trkpt>
      <trkpt lat="45.06692" lon="6.04216">
        <ele>942.02144</ele>
        <time>2013-07-14T12:27:57Z</time>
      </trkpt>
      <trkpt lat="45.06704" lon="6.04208">
        <ele>944.371812</ele>
        <time>2013-07-14T12:28:02Z</time>
      </trkpt>
      <trkpt lat="45.06715" lon="6.04199">
        <ele>944.529653</ele>
        <time>2013-07-14T12:28:07Z</time>
      </trkpt>
      <trkpt lat="45.06726" lon="6.04193">
        <ele>943.425918</ele>
        <time>2013-07-14T12:28:12Z</time>
      </trkpt>
      <trkpt lat="45.06736" lon="6.04188">
        <ele>942.390964</ele>
        <time>2013-07-14T12:28:17Z</time>
      </trkpt>
      <trkpt lat="45.06745" lon="6.0418">
        <ele>944.022344</ele>
        <time>2013-07-14T12:28:22Z</time>
      </trkpt>
      <trkpt lat="45.06755" lon="6.04174">
        <ele>945.808011</ele>
        <time>2013-07-14T12:28:27Z</time>
      </trkpt>
      <trkpt lat="45.06764" lon="6.0417">
        <ele>946.960094</ele>
        <time>2013-07-14T12:28:32Z</time>
      </trkpt>
      <trkpt lat="45.06774" lon="6.04182">
        <ele>947.679478</ele>
        <time>2013-07-14T12:28:37Z</time>
      </trkpt>
      <trkpt lat="45.06786" lon="6.04189">
        <ele>949.437494</ele>
        <time>2013-07-14T12:28:42Z</time>
      </trkpt>
      <trkpt lat="45.06794" lon="6.04196">
        <ele>950.55073</ele>
        <time>2013-07-14T12:28:47Z</time>
      </trkpt>
      <trkpt lat="45.0679" lon="6.04203">
        <ele>954.50849</ele>
        <time>2013-07-14T12:28:52Z</time>
      </trkpt>
      <trkpt lat="45.06783" lon="6.04199">
        <ele>956.44445</ele>
        <time>2013-07-14T12:28:57Z</time>
      </trkpt>
      <trkpt lat="45.06777" lon="6.04191">
        <ele>958.791005</ele>
        <time>2013-07-14T12:29:02Z</time>
      </trkpt>
      <trkpt lat="45.06771" lon="6.04191">
        <ele>959.545308</ele>
        <time>2013-07-14T12:29:07Z</time>
      </trkpt>
      <trkpt lat="45.06757" lon="6.04196">
        <ele>959.855479</ele>
        <time>2013-07-14T12:29:12Z</time>
      </trkpt>
      <trkpt lat="45.06743" lon="6.04203">
        <ele>960.314374</ele>
        <time>2013-07-14T12:29:17Z</time>
      </trkpt>
      <trkpt lat="45.06732" lon="6.0421">
        <ele>963.536306</ele>
        <time>2013-07-14T12:29:22Z</time>
      </trkpt>
      <trkpt lat="45.06723" lon="6.04216">
        <ele>966.763845</ele>
        <time>2013-07-14T12:29:27Z</time>
      </trkpt>
      <trkpt lat="45.06715" lon="6.04225">
        <ele>969.443322</ele>
        <time>2013-07-14T12:29:32Z</time>
      </trkpt>
      <trkpt lat="45.06705" lon="6.04234">
        <ele>972.111658</ele>
        <time>2013-07-14T12:29:37Z</time>
      </trkpt>
      <trkpt lat="45.06698" lon="6.04241">
        <ele>976.052771</ele>
        <time>2013-07-14T12:29:42Z</time>
      </trkpt>
      <trkpt lat="45.06692" lon="6.04246">
        <ele>979.925128</ele>
        <time>2013-07-14T12:29:47Z</time>
      </trkpt>
      <trkpt lat="45.06681" lon="6.04256">
        <ele>980.549657</ele>
        <time>2013-07-14T12:29:52Z</time>
      </trkpt>
      <trkpt lat="45.0667" lon="6.04267">
        <ele>977.645714</ele>
        <time>2013-07-14T12:29:57Z</time>
      </trkpt>
      <trkpt lat="45.06657" lon="6.04273">
        <ele>975.923473</ele>
        <time>2013-07-14T12:30:02Z</time>
      </trkpt>
      <trkpt lat="45.06647" lon="6.0428">
        <ele>976.325046</ele>
        <time>2013-07-14T12:30:07Z</time>
      </trkpt>
      <trkpt lat="45.06635" lon="6.04286">
        <ele>976.721082</ele>
        <time>2013-07-14T12:30:12Z</time>
      </trkpt>
      <trkpt lat="45.06624" lon="6.04291">
        <ele>976.340432</ele>
        <time>2013-07-14T12:30:17Z</time>
      </trkpt>
      <trkpt lat="45.06615" lon="6.04297">
        <ele>976.673288</ele>
        <time>2013-07-14T12:30:22Z</time>
      </trkpt>
      <trkpt lat="45.06603" lon="6.04302">
        <ele>979.113262</ele>
        <time>2013-07-14T12:30:27Z</time>
      </trkpt>
      <trkpt lat="45.06594" lon="6.04308">
        <ele>979.520516</ele>
        <time>2013-07-14T12:30:32Z</time>
      </trkpt>
      <trkpt lat="45.06592" lon="6.04322">
        <ele>978.21468</ele>
        <time>2013-07-14T12:30:37Z</time>
      </trkpt>
      <trkpt lat="45.066" lon="6.04336">
        <ele>976.884484</ele>
        <time>2013-07-14T12:30:42Z</time>
      </trkpt>
      <trkpt lat="45.06614" lon="6.04336">
        <ele>977.573611</ele>
        <time>2013-07-14T12:30:47Z</time>
      </trkpt>
      <trkpt lat="45.06627" lon="6.04331">
        <ele>980.077989</ele>
        <time>2013-07-14T12:30:52Z</time>
      </trkpt>
      <trkpt lat="45.06636" lon="6.04327">
        <ele>982.640068</ele>
        <time>2013-07-14T12:30:57Z</time>
      </trkpt>
      <trkpt lat="45.06645" lon="6.04322">
        <ele>985.202166</ele>
        <time>2013-07-14T12:31:02Z</time>
      </trkpt>
      <trkpt lat="45.06654" lon="6.0432">
        <ele>990.733568</ele>
        <time>2013-07-14T12:31:07Z</time>
      </trkpt>
      <trkpt lat="45.06664" lon="6.04318">
        <ele>992.742054</ele>
        <time>2013-07-14T12:31:12Z</time>
      </trkpt>
      <trkpt lat="45.06672" lon="6.04314">
        <ele>994.596274</ele>
        <time>2013-07-14T12:31:17Z</time>
      </trkpt>
      <trkpt lat="45.0668" lon="6.04305">
        <ele>992.624587</ele>
        <time>2013-07-14T12:31:22Z</time>
      </trkpt>
      <trkpt lat="45.06691" lon="6.04295">
        <ele>996.305224</ele>
        <time>2013-07-14T12:31:27Z</time>
      </trkpt>
      <trkpt lat="45.06701" lon="6.04286">
        <ele>997.86767</ele>
        <time>2013-07-14T12:31:32Z</time>
      </trkpt>
      <trkpt lat="45.06712" lon="6.04279">
        <ele>1003.107355</ele>
        <time>2013-07-14T12:31:37Z</time>
      </trkpt>
      <trkpt lat="45.06723" lon="6.04284">
        <ele>1000.560079</ele>
        <time>2013-07-14T12:31:42Z</time>
      </trkpt>
      <trkpt lat="45.06731" lon="6.04288">
        <ele>1000.039942</ele>
        <time>2013-07-14T12:31:47Z</time>
      </trkpt>
      <trkpt lat="45.0674" lon="6.04284">
        <ele>999.073711</ele>
        <time>2013-07-14T12:31:52Z</time>
      </trkpt>
      <trkpt lat="45.06749" lon="6.04283">
        <ele>1000.448774</ele>
        <time>2013-07-14T12:31:57Z</time>
      </trkpt>
      <trkpt lat="45.0676" lon="6.04281">
        <ele>998.157822</ele>
        <time>2013-07-14T12:32:02Z</time>
      </trkpt>
      <trkpt lat="45.06771" lon="6.04273">
        <ele>1000.508302</ele>
        <time>2013-07-14T12:32:07Z</time>
      </trkpt>
      <trkpt lat="45.06782" lon="6.04269">
        <ele>1000.255685</ele>
        <time>2013-07-14T12:32:12Z</time>
      </trkpt>
      <trkpt lat="45.0679" lon="6.04265">
        <ele>1005.70739</ele>
        <time>2013-07-14T12:32:17Z</time>
      </trkpt>
      <trkpt lat="45.068" lon="6.04261">
        <ele>1008.275389</ele>
        <time>2013-07-14T12:32:22Z</time>
      </trkpt>
      <trkpt lat="45.06808" lon="6.04258">
        <ele>1012.316835</ele>
        <time>2013-07-14T12:32:27Z</time>
      </trkpt>
      <trkpt lat="45.06819" lon="6.04256">
        <ele>1015.039175</ele>
        <time>2013-07-14T12:32:32Z</time>
      </trkpt>
      <trkpt lat="45.0683" lon="6.04254">
        <ele>1020.576506</ele>
        <time>2013-07-14T12:32:37Z</time>
      </trkpt>
      <trkpt lat="45.06838" lon="6.04252">
        <ele>1025.400296</ele>
        <time>2013-07-14T12:32:42Z</time>
      </trkpt>
      <trkpt lat="45.06847" lon="6.04249">
        <ele>1028.037129</ele>
        <time>2013-07-14T12:32:47Z</time>
      </trkpt>
      <trkpt lat="45.06857" lon="6.04255">
        <ele>1031.200012</ele>
        <time>2013-07-14T12:32:52Z</time>
      </trkpt>
      <trkpt lat="45.06869" lon="6.04265">
        <ele>1031.068668</ele>
        <time>2013-07-14T12:32:57Z</time>
      </trkpt>
      <trkpt lat="45.06879" lon="6.04272">
        <ele>1020.836677</ele>
        <time>2013-07-14T12:33:02Z</time>
      </trkpt>
      <trkpt lat="45.06876" lon="6.04278">
        <ele>1019.786885</ele>
        <time>2013-07-14T12:33:07Z</time>
      </trkpt>
      <trkpt lat="45.06869" lon="6.04277">
        <ele>1025.394311</ele>
        <time>2013-07-14T12:33:12Z</time>
      </trkpt>
      <trkpt lat="45.06863" lon="6.04276">
        <ele>1030.305031</ele>
        <time>2013-07-14T12:33:17Z</time>
      </trkpt>
      <trkpt lat="45.06861" lon="6.04278">
        <ele>1028.329869</ele>
        <time>2013-07-14T12:33:22Z</time>
      </trkpt>
      <trkpt lat="45.06849" lon="6.04278">
        <ele>1030.46629</ele>
        <time>2013-07-14T12:33:27Z</time>
      </trkpt>
      <trkpt lat="45.06834" lon="6.04291">
        <ele>1020.642425</ele>
        <time>2013-07-14T12:33:32Z</time>
      </trkpt>
      <trkpt lat="45.0682" lon="6.04298">
        <ele>1022.442719</ele>
        <time>2013-07-14T12:33:37Z</time>
      </trkpt>
      <trkpt lat="45.06807" lon="6.04302">
        <ele>1024.168697</ele>
        <time>2013-07-14T12:33:42Z</time>
      </trkpt>
      <trkpt lat="45.06796" lon="6.04309">
        <ele>1026.682611</ele>
        <time>2013-07-14T12:33:47Z</time>
      </trkpt>
      <trkpt lat="45.06786" lon="6.04315">
        <ele>1029.202153</ele>
        <time>2013-07-14T12:33:52Z</time>
      </trkpt>
      <trkpt lat="45.06776" lon="6.04325">
        <ele>1029.124209</ele>
        <time>2013-07-14T12:33:57Z</time>
      </trkpt>
      <trkpt lat="45.06766" lon="6.04332">
        <ele>1028.823226</ele>
        <time>2013-07-14T12:34:02Z</time>
      </trkpt>
      <trkpt lat="45.06757" lon="6.04343">
        <ele>1030.16122</ele>
        <time>2013-07-14T12:34:07Z</time>
      </trkpt>
      <trkpt lat="45.06748" lon="6.04353">
        <ele>1029.381013</ele>
        <time>2013-07-14T12:34:12Z</time>
      </trkpt>
      <trkpt lat="45.06737" lon="6.04358">
        <ele>1031.820726</ele>
        <time>2013-07-14T12:34:17Z</time>
      </trkpt>
      <trkpt lat="45.06728" lon="6.04366">
        <ele>1033.010074</ele>
        <time>2013-07-14T12:34:22Z</time>
      </trkpt>
      <trkpt lat="45.06721" lon="6.0438">
        <ele>1033.87449</ele>
        <time>2013-07-14T12:34:27Z</time>
      </trkpt>
      <trkpt lat="45.06723" lon="6.04397">
        <ele>1034.150042</ele>
        <time>2013-07-14T12:34:32Z</time>
      </trkpt>
      <trkpt lat="45.06733" lon="6.04414">
        <ele>1032.974495</ele>
        <time>2013-07-14T12:34:37Z</time>
      </trkpt>
      <trkpt lat="45.06742" lon="6.04426">
        <ele>1031.570297</ele>
        <time>2013-07-14T12:34:42Z</time>
      </trkpt>
      <trkpt lat="45.06749" lon="6.04432">
        <ele>1030.491036</ele>
        <time>2013-07-14T12:34:47Z</time>
      </trkpt>
      <trkpt lat="45.06762" lon="6.04445">
        <ele>1034.744818</ele>
        <time>2013-07-14T12:34:52Z</time>
      </trkpt>
      <trkpt lat="45.06773" lon="6.04453">
        <ele>1035.943763</ele>
        <time>2013-07-14T12:34:57Z</time>
      </trkpt>
      <trkpt lat="45.06785" lon="6.04464">
        <ele>1036.520369</ele>
        <time>2013-07-14T12:35:02Z</time>
      </trkpt>
      <trkpt lat="45.06795" lon="6.04468">
        <ele>1037.496256</ele>
        <time>2013-07-14T12:35:07Z</time>
      </trkpt>
      <trkpt lat="45.06805" lon="6.04474">
        <ele>1039.951219</ele>
        <time>2013-07-14T12:35:12Z</time>
      </trkpt>
      <trkpt lat="45.06814" lon="6.04476">
        <ele>1042.18308</ele>
        <time>2013-07-14T12:35:17Z</time>
      </trkpt>
      <trkpt lat="45.06823" lon="6.04481">
        <ele>1044.563707</ele>
        <time>2013-07-14T12:35:22Z</time>
      </trkpt>
      <trkpt lat="45.06835" lon="6.04487">
        <ele>1048.440241</ele>
        <time>2013-07-14T12:35:27Z</time>
      </trkpt>
      <trkpt lat="45.0685" lon="6.04491">
        <ele>1052.887243</ele>
        <time>2013-07-14T12:35:32Z</time>
      </trkpt>
      <trkpt lat="45.06864" lon="6.0449">
        <ele>1035.802518</ele>
        <time>2013-07-14T12:35:37Z</time>
      </trkpt>
      <trkpt lat="45.06878" lon="6.04494">
        <ele>1030.371986</ele>
        <time>2013-07-14T12:35:42Z</time>
      </trkpt>
      <trkpt lat="45.06885" lon="6.04503">
        <ele>1032.26228</ele>
        <time>2013-07-14T12:35:47Z</time>
      </trkpt>
      <trkpt lat="45.06902" lon="6.04518">
        <ele>1042.323269</ele>
        <time>2013-07-14T12:35:52Z</time>
      </trkpt>
      <trkpt lat="45.06912" lon="6.04529">
        <ele>1040.850744</ele>
        <time>2013-07-14T12:35:57Z</time>
      </trkpt>
      <trkpt lat="45.06922" lon="6.04542">
        <ele>1030.990926</ele>
        <time>2013-07-14T12:36:02Z</time>
      </trkpt>
      <trkpt lat="45.06931" lon="6.0455">
        <ele>1029.992009</ele>
        <time>2013-07-14T12:36:07Z</time>
      </trkpt>
      <trkpt lat="45.06947" lon="6.04559">
        <ele>1036.152767</ele>
        <time>2013-07-14T12:36:12Z</time>
      </trkpt>
      <trkpt lat="45.06958" lon="6.04566">
        <ele>1037.985762</ele>
        <time>2013-07-14T12:36:17Z</time>
      </trkpt>
      <trkpt lat="45.0697" lon="6.04573">
        <ele>1042.645003</ele>
        <time>2013-07-14T12:36:22Z</time>
      </trkpt>
      <trkpt lat="45.0698" lon="6.04579">
        <ele>1045.808307</ele>
        <time>2013-07-14T12:36:27Z</time>
      </trkpt>
      <trkpt lat="45.06993" lon="6.04584">
        <ele>1048.908558</ele>
        <time>2013-07-14T12:36:32Z</time>
      </trkpt>
      <trkpt lat="45.07004" lon="6.04594">
        <ele>1050.188127</ele>
        <time>2013-07-14T12:36:37Z</time>
      </trkpt>
      <trkpt lat="45.07014" lon="6.04607">
        <ele>1047.379994</ele>
        <time>2013-07-14T12:36:42Z</time>
      </trkpt>
      <trkpt lat="45.07022" lon="6.04619">
        <ele>1048.083449</ele>
        <time>2013-07-14T12:36:47Z</time>
      </trkpt>
      <trkpt lat="45.07027" lon="6.04629">
        <ele>1045.811919</ele>
        <time>2013-07-14T12:36:52Z</time>
      </trkpt>
      <trkpt lat="45.07034" lon="6.04641">
        <ele>1045.105135</ele>
        <time>2013-07-14T12:36:57Z</time>
      </trkpt>
      <trkpt lat="45.07041" lon="6.04656">
        <ele>1048.070033</ele>
        <time>2013-07-14T12:37:02Z</time>
      </trkpt>
      <trkpt lat="45.07048" lon="6.0467">
        <ele>1053.153218</ele>
        <time>2013-07-14T12:37:07Z</time>
      </trkpt>
      <trkpt lat="45.07056" lon="6.04682">
        <ele>1054.570441</ele>
        <time>2013-07-14T12:37:12Z</time>
      </trkpt>
      <trkpt lat="45.07065" lon="6.04695">
        <ele>1058.174678</ele>
        <time>2013-07-14T12:37:17Z</time>
      </trkpt>
      <trkpt lat="45.07074" lon="6.04708">
        <ele>1059.591961</ele>
        <time>2013-07-14T12:37:22Z</time>
      </trkpt>
      <trkpt lat="45.07083" lon="6.04716">
        <ele>1060.786076</ele>
        <time>2013-07-14T12:37:27Z</time>
      </trkpt>
      <trkpt lat="45.07096" lon="6.04726">
        <ele>1064.189921</ele>
        <time>2013-07-14T12:37:32Z</time>
      </trkpt>
      <trkpt lat="45.07108" lon="6.04736">
        <ele>1067.588127</ele>
        <time>2013-07-14T12:37:37Z</time>
      </trkpt>
      <trkpt lat="45.07121" lon="6.04746">
        <ele>1067.463511</ele>
        <time>2013-07-14T12:37:42Z</time>
      </trkpt>
      <trkpt lat="45.07132" lon="6.04757">
        <ele>1068.03554</ele>
        <time>2013-07-14T12:37:47Z</time>
      </trkpt>
      <trkpt lat="45.07144" lon="6.04767">
        <ele>1067.905309</ele>
        <time>2013-07-14T12:37:52Z</time>
      </trkpt>
      <trkpt lat="45.07153" lon="6.04776">
        <ele>1070.584284</ele>
        <time>2013-07-14T12:37:57Z</time>
      </trkpt>
      <trkpt lat="45.07161" lon="6.04786">
        <ele>1070.437022</ele>
        <time>2013-07-14T12:38:02Z</time>
      </trkpt>
      <trkpt lat="45.07167" lon="6.04794">
        <ele>1070.209672</ele>
        <time>2013-07-14T12:38:07Z</time>
      </trkpt>
      <trkpt lat="45.07171" lon="6.04798">
        <ele>1067.555028</ele>
        <time>2013-07-14T12:38:12Z</time>
      </trkpt>
      <trkpt lat="45.07183" lon="6.04803">
        <ele>1060.783876</ele>
        <time>2013-07-14T12:38:17Z</time>
      </trkpt>
      <trkpt lat="45.07196" lon="6.04797">
        <ele>1062.507053</ele>
        <time>2013-07-14T12:38:22Z</time>
      </trkpt>
      <trkpt lat="45.07197" lon="6.04787">
        <ele>1071.155884</ele>
        <time>2013-07-14T12:38:27Z</time>
      </trkpt>
      <trkpt lat="45.07189" lon="6.04781">
        <ele>1078.577715</ele>
        <time>2013-07-14T12:38:32Z</time>
      </trkpt>
      <trkpt lat="45.07176" lon="6.04772">
        <ele>1085.902346</ele>
        <time>2013-07-14T12:38:37Z</time>
      </trkpt>
      <trkpt lat="45.07166" lon="6.04761">
        <ele>1089.492349</ele>
        <time>2013-07-14T12:38:42Z</time>
      </trkpt>
      <trkpt lat="45.07153" lon="6.04752">
        <ele>1098.227335</ele>
        <time>2013-07-14T12:38:47Z</time>
      </trkpt>
      <trkpt lat="45.07144" lon="6.04737">
        <ele>1097.363352</ele>
        <time>2013-07-14T12:38:52Z</time>
      </trkpt>
      <trkpt lat="45.07134" lon="6.04724">
        <ele>1101.581349</ele>
        <time>2013-07-14T12:38:57Z</time>
      </trkpt>
      <trkpt lat="45.07124" lon="6.04709">
        <ele>1104.94829</ele>
        <time>2013-07-14T12:39:02Z</time>
      </trkpt>
      <trkpt lat="45.07118" lon="6.04693">
        <ele>1099.088254</ele>
        <time>2013-07-14T12:39:07Z</time>
      </trkpt>
      <trkpt lat="45.07112" lon="6.04675">
        <ele>1099.42289</ele>
        <time>2013-07-14T12:39:12Z</time>
      </trkpt>
      <trkpt lat="45.07106" lon="6.04656">
        <ele>1102.583818</ele>
        <time>2013-07-14T12:39:17Z</time>
      </trkpt>
      <trkpt lat="45.07106" lon="6.04638">
        <ele>1102.946949</ele>
        <time>2013-07-14T12:39:22Z</time>
      </trkpt>
      <trkpt lat="45.07107" lon="6.04619">
        <ele>1102.539107</ele>
        <time>2013-07-14T12:39:27Z</time>
      </trkpt>
      <trkpt lat="45.07109" lon="6.04602">
        <ele>1100.795401</ele>
        <time>2013-07-14T12:39:32Z</time>
      </trkpt>
      <trkpt lat="45.07111" lon="6.04583">
        <ele>1098.977343</ele>
        <time>2013-07-14T12:39:37Z</time>
      </trkpt>
      <trkpt lat="45.07113" lon="6.04565">
        <ele>1097.941684</ele>
        <time>2013-07-14T12:39:42Z</time>
      </trkpt>
      <trkpt lat="45.07113" lon="6.04547">
        <ele>1098.304973</ele>
        <time>2013-07-14T12:39:47Z</time>
      </trkpt>
      <trkpt lat="45.07113" lon="6.04527">
        <ele>1100.637809</ele>
        <time>2013-07-14T12:39:52Z</time>
      </trkpt>
      <trkpt lat="45.07114" lon="6.04505">
        <ele>1097.963158</ele>
        <time>2013-07-14T12:39:57Z</time>
      </trkpt>
      <trkpt lat="45.07113" lon="6.04486">
        <ele>1095.425927</ele>
        <time>2013-07-14T12:40:02Z</time>
      </trkpt>
      <trkpt lat="45.07108" lon="6.04473">
        <ele>1098.18237</ele>
        <time>2013-07-14T12:40:07Z</time>
      </trkpt>
      <trkpt lat="45.07102" lon="6.04457">
        <ele>1100.082119</ele>
        <time>2013-07-14T12:40:12Z</time>
      </trkpt>
      <trkpt lat="45.07097" lon="6.04448">
        <ele>1108.074915</ele>
        <time>2013-07-14T12:40:17Z</time>
      </trkpt>
      <trkpt lat="45.07097" lon="6.04442">
        <ele>1115.531184</ele>
        <time>2013-07-14T12:40:22Z</time>
      </trkpt>
      <trkpt lat="45.07098" lon="6.0444">
        <ele>1113.269863</ele>
        <time>2013-07-14T12:40:28Z</time>
      </trkpt>
      <trkpt lat="45.07107" lon="6.0445">
        <ele>1109.605006</ele>
        <time>2013-07-14T12:40:33Z</time>
      </trkpt>
      <trkpt lat="45.07114" lon="6.04464">
        <ele>1111.867424</ele>
        <time>2013-07-14T12:40:38Z</time>
      </trkpt>
      <trkpt lat="45.07123" lon="6.04483">
        <ele>1116.476937</ele>
        <time>2013-07-14T12:40:43Z</time>
      </trkpt>
      <trkpt lat="45.07127" lon="6.04499">
        <ele>1115.273865</ele>
        <time>2013-07-14T12:40:48Z</time>
      </trkpt>
      <trkpt lat="45.07131" lon="6.04517">
        <ele>1118.45611</ele>
        <time>2013-07-14T12:40:53Z</time>
      </trkpt>
      <trkpt lat="45.07134" lon="6.04538">
        <ele>1116.842615</ele>
        <time>2013-07-14T12:40:58Z</time>
      </trkpt>
      <trkpt lat="45.07139" lon="6.04559">
        <ele>1115.94284</ele>
        <time>2013-07-14T12:41:03Z</time>
      </trkpt>
      <trkpt lat="45.07143" lon="6.04579">
        <ele>1112.148163</ele>
        <time>2013-07-14T12:41:08Z</time>
      </trkpt>
      <trkpt lat="45.07147" lon="6.04596">
        <ele>1112.42992</ele>
        <time>2013-07-14T12:41:13Z</time>
      </trkpt>
      <trkpt lat="45.07152" lon="6.04616">
        <ele>1109.343311</ele>
        <time>2013-07-14T12:41:18Z</time>
      </trkpt>
      <trkpt lat="45.07158" lon="6.0463">
        <ele>1109.48775</ele>
        <time>2013-07-14T12:41:23Z</time>
      </trkpt>
      <trkpt lat="45.07166" lon="6.04644">
        <ele>1109.563525</ele>
        <time>2013-07-14T12:41:28Z</time>
      </trkpt>
      <trkpt lat="45.07174" lon="6.04657">
        <ele>1110.347321</ele>
        <time>2013-07-14T12:41:33Z</time>
      </trkpt>
      <trkpt lat="45.07184" lon="6.04672">
        <ele>1111.211244</ele>
        <time>2013-07-14T12:41:38Z</time>
      </trkpt>
      <trkpt lat="45.07192" lon="6.04685">
        <ele>1116.225954</ele>
        <time>2013-07-14T12:41:43Z</time>
      </trkpt>
      <trkpt lat="45.07203" lon="6.04699">
        <ele>1120.549821</ele>
        <time>2013-07-14T12:41:48Z</time>
      </trkpt>
      <trkpt lat="45.07216" lon="6.04708">
        <ele>1122.463575</ele>
        <time>2013-07-14T12:41:53Z</time>
      </trkpt>
      <trkpt lat="45.0723" lon="6.04719">
        <ele>1126.650157</ele>
        <time>2013-07-14T12:41:58Z</time>
      </trkpt>
      <trkpt lat="45.07241" lon="6.04728">
        <ele>1127.147991</ele>
        <time>2013-07-14T12:42:03Z</time>
      </trkpt>
      <trkpt lat="45.07252" lon="6.04738">
        <ele>1127.017976</ele>
        <time>2013-07-14T12:42:08Z</time>
      </trkpt>
      <trkpt lat="45.07265" lon="6.04747">
        <ele>1130.342162</ele>
        <time>2013-07-14T12:42:13Z</time>
      </trkpt>
      <trkpt lat="45.07274" lon="6.04756">
        <ele>1132.319052</ele>
        <time>2013-07-14T12:42:18Z</time>
      </trkpt>
      <trkpt lat="45.07284" lon="6.04764">
        <ele>1134.147164</ele>
        <time>2013-07-14T12:42:23Z</time>
      </trkpt>
      <trkpt lat="45.07298" lon="6.04768">
        <ele>1134.359003</ele>
        <time>2013-07-14T12:42:28Z</time>
      </trkpt>
      <trkpt lat="45.07312" lon="6.04769">
        <ele>1135.130083</ele>
        <time>2013-07-14T12:42:33Z</time>
      </trkpt>
      <trkpt lat="45.07324" lon="6.0477">
        <ele>1135.889727</ele>
        <time>2013-07-14T12:42:38Z</time>
      </trkpt>
      <trkpt lat="45.07339" lon="6.04778">
        <ele>1139.151193</ele>
        <time>2013-07-14T12:42:43Z</time>
      </trkpt>
      <trkpt lat="45.07348" lon="6.04789">
        <ele>1140.494645</ele>
        <time>2013-07-14T12:42:48Z</time>
      </trkpt>
      <trkpt lat="45.0735" lon="6.04803">
        <ele>1140.616585</ele>
        <time>2013-07-14T12:42:53Z</time>
      </trkpt>
      <trkpt lat="45.07349" lon="6.04817">
        <ele>1143.553362</ele>
        <time>2013-07-14T12:42:58Z</time>
      </trkpt>
      <trkpt lat="45.0735" lon="6.0483">
        <ele>1145.713479</ele>
        <time>2013-07-14T12:43:03Z</time>
      </trkpt>
      <trkpt lat="45.07359" lon="6.04844">
        <ele>1148.690519</ele>
        <time>2013-07-14T12:43:08Z</time>
      </trkpt>
      <trkpt lat="45.0736" lon="6.04858">
        <ele>1153.043379</ele>
        <time>2013-07-14T12:43:13Z</time>
      </trkpt>
      <trkpt lat="45.07355" lon="6.0487">
        <ele>1157.293102</ele>
        <time>2013-07-14T12:43:18Z</time>
      </trkpt>
      <trkpt lat="45.07348" lon="6.04891">
        <ele>1155.006614</ele>
        <time>2013-07-14T12:43:23Z</time>
      </trkpt>
      <trkpt lat="45.07339" lon="6.04908">
        <ele>1160.244843</ele>
        <time>2013-07-14T12:43:28Z</time>
      </trkpt>
      <trkpt lat="45.07334" lon="6.0492">
        <ele>1161.674083</ele>
        <time>2013-07-14T12:43:33Z</time>
      </trkpt>
      <trkpt lat="45.07332" lon="6.04936">
        <ele>1164.046107</ele>
        <time>2013-07-14T12:43:38Z</time>
      </trkpt>
      <trkpt lat="45.07327" lon="6.04947">
        <ele>1172.526784</ele>
        <time>2013-07-14T12:43:43Z</time>
      </trkpt>
      <trkpt lat="45.07322" lon="6.04958">
        <ele>1179.522774</ele>
        <time>2013-07-14T12:43:48Z</time>
      </trkpt>
      <trkpt lat="45.07315" lon="6.04967">
        <ele>1184.320325</ele>
        <time>2013-07-14T12:43:53Z</time>
      </trkpt>
      <trkpt lat="45.07309" lon="6.04978">
        <ele>1187.862209</ele>
        <time>2013-07-14T12:43:58Z</time>
      </trkpt>
      <trkpt lat="45.07303" lon="6.04987">
        <ele>1192.659794</ele>
        <time>2013-07-14T12:44:03Z</time>
      </trkpt>
      <trkpt lat="45.07296" lon="6.05005">
        <ele>1192.970878</ele>
        <time>2013-07-14T12:44:08Z</time>
      </trkpt>
      <trkpt lat="45.07288" lon="6.05016">
        <ele>1199.321917</ele>
        <time>2013-07-14T12:44:13Z</time>
      </trkpt>
      <trkpt lat="45.0728" lon="6.05023">
        <ele>1205.449678</ele>
        <time>2013-07-14T12:44:18Z</time>
      </trkpt>
      <trkpt lat="45.07272" lon="6.05039">
        <ele>1208.501242</ele>
        <time>2013-07-14T12:44:23Z</time>
      </trkpt>
      <trkpt lat="45.07263" lon="6.05056">
        <ele>1208.098721</ele>
        <time>2013-07-14T12:44:28Z</time>
      </trkpt>
      <trkpt lat="45.07255" lon="6.05068">
        <ele>1210.219036</ele>
        <time>2013-07-14T12:44:33Z</time>
      </trkpt>
      <trkpt lat="45.07248" lon="6.05085">
        <ele>1209.822314</ele>
        <time>2013-07-14T12:44:38Z</time>
      </trkpt>
      <trkpt lat="45.07249" lon="6.051">
        <ele>1210.019082</ele>
        <time>2013-07-14T12:44:43Z</time>
      </trkpt>
      <trkpt lat="45.07254" lon="6.05106">
        <ele>1203.996375</ele>
        <time>2013-07-14T12:44:48Z</time>
      </trkpt>
      <trkpt lat="45.07261" lon="6.05103">
        <ele>1201.689121</ele>
        <time>2013-07-14T12:44:53Z</time>
      </trkpt>
      <trkpt lat="45.07264" lon="6.05099">
        <ele>1182.99475</ele>
        <time>2013-07-14T12:44:58Z</time>
      </trkpt>
      <trkpt lat="45.07273" lon="6.05089">
        <ele>1183.067138</ele>
        <time>2013-07-14T12:45:03Z</time>
      </trkpt>
      <trkpt lat="45.0728" lon="6.05074">
        <ele>1180.08421</ele>
        <time>2013-07-14T12:45:08Z</time>
      </trkpt>
      <trkpt lat="45.07287" lon="6.05068">
        <ele>1183.269231</ele>
        <time>2013-07-14T12:45:13Z</time>
      </trkpt>
      <trkpt lat="45.07293" lon="6.05056">
        <ele>1182.547775</ele>
        <time>2013-07-14T12:45:18Z</time>
      </trkpt>
      <trkpt lat="45.07306" lon="6.05049">
        <ele>1184.202357</ele>
        <time>2013-07-14T12:45:23Z</time>
      </trkpt>
      <trkpt lat="45.07317" lon="6.05041">
        <ele>1183.727213</ele>
        <time>2013-07-14T12:45:28Z</time>
      </trkpt>
      <trkpt lat="45.07323" lon="6.05029">
        <ele>1177.36471</ele>
        <time>2013-07-14T12:45:33Z</time>
      </trkpt>
      <trkpt lat="45.07332" lon="6.05019">
        <ele>1176.026992</ele>
        <time>2013-07-14T12:45:38Z</time>
      </trkpt>
      <trkpt lat="45.07345" lon="6.05012">
        <ele>1181.278961</ele>
        <time>2013-07-14T12:45:43Z</time>
      </trkpt>
      <trkpt lat="45.07358" lon="6.05001">
        <ele>1179.18185</ele>
        <time>2013-07-14T12:45:48Z</time>
      </trkpt>
      <trkpt lat="45.07367" lon="6.04989">
        <ele>1180.59035</ele>
        <time>2013-07-14T12:45:53Z</time>
      </trkpt>
      <trkpt lat="45.07378" lon="6.0498">
        <ele>1184.979801</ele>
        <time>2013-07-14T12:45:58Z</time>
      </trkpt>
      <trkpt lat="45.07389" lon="6.04975">
        <ele>1191.077272</ele>
        <time>2013-07-14T12:46:03Z</time>
      </trkpt>
      <trkpt lat="45.07402" lon="6.04971">
        <ele>1195.770249</ele>
        <time>2013-07-14T12:46:08Z</time>
      </trkpt>
      <trkpt lat="45.07411" lon="6.04966">
        <ele>1199.041453</ele>
        <time>2013-07-14T12:46:13Z</time>
      </trkpt>
      <trkpt lat="45.07422" lon="6.04965">
        <ele>1202.467293</ele>
        <time>2013-07-14T12:46:18Z</time>
      </trkpt>
      <trkpt lat="45.07433" lon="6.04963">
        <ele>1205.185133</ele>
        <time>2013-07-14T12:46:23Z</time>
      </trkpt>
      <trkpt lat="45.07443" lon="6.04956">
        <ele>1207.605296</ele>
        <time>2013-07-14T12:46:28Z</time>
      </trkpt>
      <trkpt lat="45.0745" lon="6.04953">
        <ele>1212.349744</ele>
        <time>2013-07-14T12:46:33Z</time>
      </trkpt>
      <trkpt lat="45.07459" lon="6.04948">
        <ele>1215.615274</ele>
        <time>2013-07-14T12:46:38Z</time>
      </trkpt>
      <trkpt lat="45.07469" lon="6.0494">
        <ele>1217.25305</ele>
        <time>2013-07-14T12:46:43Z</time>
      </trkpt>
      <trkpt lat="45.07476" lon="6.04931">
        <ele>1215.276287</ele>
        <time>2013-07-14T12:46:48Z</time>
      </trkpt>
      <trkpt lat="45.07483" lon="6.04921">
        <ele>1218.94066</ele>
        <time>2013-07-14T12:46:53Z</time>
      </trkpt>
      <trkpt lat="45.07484" lon="6.04913">
        <ele>1225.551326</ele>
        <time>2013-07-14T12:46:58Z</time>
      </trkpt>
      <trkpt lat="45.07484" lon="6.04903">
        <ele>1237.717141</ele>
        <time>2013-07-14T12:47:03Z</time>
      </trkpt>
      <trkpt lat="45.07484" lon="6.04893">
        <ele>1248.478466</ele>
        <time>2013-07-14T12:47:08Z</time>
      </trkpt>
      <trkpt lat="45.07484" lon="6.04878">
        <ele>1253.295243</ele>
        <time>2013-07-14T12:47:13Z</time>
      </trkpt>
      <trkpt lat="45.07482" lon="6.04858">
        <ele>1253.503361</ele>
        <time>2013-07-14T12:47:18Z</time>
      </trkpt>
      <trkpt lat="45.07478" lon="6.04843">
        <ele>1255.482293</ele>
        <time>2013-07-14T12:47:23Z</time>
      </trkpt>
      <trkpt lat="45.07474" lon="6.04826">
        <ele>1258.722715</ele>
        <time>2013-07-14T12:47:28Z</time>
      </trkpt>
      <trkpt lat="45.07481" lon="6.04804">
        <ele>1242.527038</ele>
        <time>2013-07-14T12:47:33Z</time>
      </trkpt>
      <trkpt lat="45.07482" lon="6.04782">
        <ele>1231.315803</ele>
        <time>2013-07-14T12:47:38Z</time>
      </trkpt>
      <trkpt lat="45.07487" lon="6.0477">
        <ele>1226.364055</ele>
        <time>2013-07-14T12:47:43Z</time>
      </trkpt>
      <trkpt lat="45.0749" lon="6.04778">
        <ele>1224.709488</ele>
        <time>2013-07-14T12:47:48Z</time>
      </trkpt>
      <trkpt lat="45.07489" lon="6.04785">
        <ele>1219.434593</ele>
        <time>2013-07-14T12:47:53Z</time>
      </trkpt>
      <trkpt lat="45.07493" lon="6.04797">
        <ele>1218.717061</ele>
        <time>2013-07-14T12:47:58Z</time>
      </trkpt>
      <trkpt lat="45.07495" lon="6.04813">
        <ele>1216.800919</ele>
        <time>2013-07-14T12:48:03Z</time>
      </trkpt>
      <trkpt lat="45.07498" lon="6.0483">
        <ele>1220.680524</ele>
        <time>2013-07-14T12:48:08Z</time>
      </trkpt>
      <trkpt lat="45.07509" lon="6.04849">
        <ele>1228.123458</ele>
        <time>2013-07-14T12:48:13Z</time>
      </trkpt>
      <trkpt lat="45.0751" lon="6.04865">
        <ele>1233.333215</ele>
        <time>2013-07-14T12:48:18Z</time>
      </trkpt>
      <trkpt lat="45.07507" lon="6.04884">
        <ele>1235.848124</ele>
        <time>2013-07-14T12:48:23Z</time>
      </trkpt>
      <trkpt lat="45.07511" lon="6.04903">
        <ele>1241.21834</ele>
        <time>2013-07-14T12:48:28Z</time>
      </trkpt>
      <trkpt lat="45.07513" lon="6.04922">
        <ele>1243.054215</ele>
        <time>2013-07-14T12:48:33Z</time>
      </trkpt>
      <trkpt lat="45.07513" lon="6.04933">
        <ele>1247.252585</ele>
        <time>2013-07-14T12:48:38Z</time>
      </trkpt>
      <trkpt lat="45.07515" lon="6.04943">
        <ele>1260.626465</ele>
        <time>2013-07-14T12:48:43Z</time>
      </trkpt>
      <trkpt lat="45.07513" lon="6.04954">
        <ele>1263.403004</ele>
        <time>2013-07-14T12:48:48Z</time>
      </trkpt>
      <trkpt lat="45.07506" lon="6.04967">
        <ele>1269.131603</ele>
        <time>2013-07-14T12:48:53Z</time>
      </trkpt>
      <trkpt lat="45.075" lon="6.04975">
        <ele>1270.331686</ele>
        <time>2013-07-14T12:48:58Z</time>
      </trkpt>
      <trkpt lat="45.07483" lon="6.04991">
        <ele>1257.829303</ele>
        <time>2013-07-14T12:49:03Z</time>
      </trkpt>
      <trkpt lat="45.07466" lon="6.05009">
        <ele>1242.580872</ele>
        <time>2013-07-14T12:49:08Z</time>
      </trkpt>
      <trkpt lat="45.07453" lon="6.05017">
        <ele>1241.633859</ele>
        <time>2013-07-14T12:49:13Z</time>
      </trkpt>
      <trkpt lat="45.07443" lon="6.05026">
        <ele>1242.891161</ele>
        <time>2013-07-14T12:49:18Z</time>
      </trkpt>
      <trkpt lat="45.07435" lon="6.05036">
        <ele>1242.116162</ele>
        <time>2013-07-14T12:49:23Z</time>
      </trkpt>
      <trkpt lat="45.07428" lon="6.05049">
        <ele>1245.726659</ele>
        <time>2013-07-14T12:49:28Z</time>
      </trkpt>
      <trkpt lat="45.07422" lon="6.05062">
        <ele>1247.224649</ele>
        <time>2013-07-14T12:49:33Z</time>
      </trkpt>
      <trkpt lat="45.07412" lon="6.05074">
        <ele>1253.569786</ele>
        <time>2013-07-14T12:49:38Z</time>
      </trkpt>
      <trkpt lat="45.07402" lon="6.05085">
        <ele>1254.273842</ele>
        <time>2013-07-14T12:49:43Z</time>
      </trkpt>
      <trkpt lat="45.07394" lon="6.05098">
        <ele>1256.468408</ele>
        <time>2013-07-14T12:49:48Z</time>
      </trkpt>
      <trkpt lat="45.07385" lon="6.05109">
        <ele>1258.508359</ele>
        <time>2013-07-14T12:49:53Z</time>
      </trkpt>
      <trkpt lat="45.07374" lon="6.05122">
        <ele>1262.884211</ele>
        <time>2013-07-14T12:49:58Z</time>
      </trkpt>
      <trkpt lat="45.07365" lon="6.05138">
        <ele>1264.519749</ele>
        <time>2013-07-14T12:50:03Z</time>
      </trkpt>
      <trkpt lat="45.07354" lon="6.05152">
        <ele>1267.479652</ele>
        <time>2013-07-14T12:50:08Z</time>
      </trkpt>
      <trkpt lat="45.07344" lon="6.05165">
        <ele>1266.848079</ele>
        <time>2013-07-14T12:50:13Z</time>
      </trkpt>
      <trkpt lat="45.07334" lon="6.05176">
        <ele>1262.539071</ele>
        <time>2013-07-14T12:50:18Z</time>
      </trkpt>
      <trkpt lat="45.07326" lon="6.05189">
        <ele>1264.499013</ele>
        <time>2013-07-14T12:50:23Z</time>
      </trkpt>
      <trkpt lat="45.07319" lon="6.05204">
        <ele>1260.665511</ele>
        <time>2013-07-14T12:50:28Z</time>
      </trkpt>
      <trkpt lat="45.07324" lon="6.05205">
        <ele>1256.457657</ele>
        <time>2013-07-14T12:50:33Z</time>
      </trkpt>
      <trkpt lat="45.07345" lon="6.0521">
        <ele>1250.499427</ele>
        <time>2013-07-14T12:50:38Z</time>
      </trkpt>
      <trkpt lat="45.07359" lon="6.05189">
        <ele>1257.321959</ele>
        <time>2013-07-14T12:50:43Z</time>
      </trkpt>
      <trkpt lat="45.07369" lon="6.05179">
        <ele>1259.615902</ele>
        <time>2013-07-14T12:50:48Z</time>
      </trkpt>
      <trkpt lat="45.07374" lon="6.05167">
        <ele>1262.680854</ele>
        <time>2013-07-14T12:50:53Z</time>
      </trkpt>
      <trkpt lat="45.07386" lon="6.05157">
        <ele>1262.764879</ele>
        <time>2013-07-14T12:50:58Z</time>
      </trkpt>
      <trkpt lat="45.07398" lon="6.05144">
        <ele>1263.408063</ele>
        <time>2013-07-14T12:51:03Z</time>
      </trkpt>
      <trkpt lat="45.07411" lon="6.05135">
        <ele>1263.572374</ele>
        <time>2013-07-14T12:51:08Z</time>
      </trkpt>
      <trkpt lat="45.07422" lon="6.05126">
        <ele>1265.141233</ele>
        <time>2013-07-14T12:51:13Z</time>
      </trkpt>
      <trkpt lat="45.07431" lon="6.05118">
        <ele>1268.89133</ele>
        <time>2013-07-14T12:51:18Z</time>
      </trkpt>
      <trkpt lat="45.0744" lon="6.05106">
        <ele>1268.889543</ele>
        <time>2013-07-14T12:51:23Z</time>
      </trkpt>
      <trkpt lat="45.07449" lon="6.05095">
        <ele>1270.372505</ele>
        <time>2013-07-14T12:51:28Z</time>
      </trkpt>
      <trkpt lat="45.07458" lon="6.05086">
        <ele>1271.227681</ele>
        <time>2013-07-14T12:51:33Z</time>
      </trkpt>
      <trkpt lat="45.0747" lon="6.05081">
        <ele>1271.609727</ele>
        <time>2013-07-14T12:51:38Z</time>
      </trkpt>
      <trkpt lat="45.07483" lon="6.05074">
        <ele>1271.220896</ele>
        <time>2013-07-14T12:51:43Z</time>
      </trkpt>
      <trkpt lat="45.07496" lon="6.05071">
        <ele>1272.391253</ele>
        <time>2013-07-14T12:51:48Z</time>
      </trkpt>
      <trkpt lat="45.07509" lon="6.05067">
        <ele>1273.561645</ele>
        <time>2013-07-14T12:51:53Z</time>
      </trkpt>
      <trkpt lat="45.07519" lon="6.0506">
        <ele>1276.684139</ele>
        <time>2013-07-14T12:51:58Z</time>
      </trkpt>
      <trkpt lat="45.07529" lon="6.05053">
        <ele>1279.104414</ele>
        <time>2013-07-14T12:52:03Z</time>
      </trkpt>
      <trkpt lat="45.07544" lon="6.05045">
        <ele>1284.288225</ele>
        <time>2013-07-14T12:52:08Z</time>
      </trkpt>
      <trkpt lat="45.07556" lon="6.05037">
        <ele>1285.937687</ele>
        <time>2013-07-14T12:52:13Z</time>
      </trkpt>
      <trkpt lat="45.07567" lon="6.05022">
        <ele>1285.01648</ele>
        <time>2013-07-14T12:52:18Z</time>
      </trkpt>
      <trkpt lat="45.07571" lon="6.05014">
        <ele>1284.512876</ele>
        <time>2013-07-14T12:52:23Z</time>
      </trkpt>
      <trkpt lat="45.0757" lon="6.05009">
        <ele>1289.9249</ele>
        <time>2013-07-14T12:52:28Z</time>
      </trkpt>
      <trkpt lat="45.07575" lon="6.05007">
        <ele>1303.268428</ele>
        <time>2013-07-14T12:52:33Z</time>
      </trkpt>
      <trkpt lat="45.07576" lon="6.04999">
        <ele>1311.289335</ele>
        <time>2013-07-14T12:52:38Z</time>
      </trkpt>
      <trkpt lat="45.07584" lon="6.04989">
        <ele>1317.072098</ele>
        <time>2013-07-14T12:52:43Z</time>
      </trkpt>
      <trkpt lat="45.07588" lon="6.04969">
        <ele>1313.07235</ele>
        <time>2013-07-14T12:52:48Z</time>
      </trkpt>
      <trkpt lat="45.07597" lon="6.04952">
        <ele>1316.30192</ele>
        <time>2013-07-14T12:52:53Z</time>
      </trkpt>
      <trkpt lat="45.07595" lon="6.04935">
        <ele>1316.727308</ele>
        <time>2013-07-14T12:52:58Z</time>
      </trkpt>
      <trkpt lat="45.07603" lon="6.04916">
        <ele>1315.571464</ele>
        <time>2013-07-14T12:53:03Z</time>
      </trkpt>
      <trkpt lat="45.07611" lon="6.04906">
        <ele>1319.944067</ele>
        <time>2013-07-14T12:53:08Z</time>
      </trkpt>
      <trkpt lat="45.07618" lon="6.04892">
        <ele>1324.093448</ele>
        <time>2013-07-14T12:53:13Z</time>
      </trkpt>
      <trkpt lat="45.07623" lon="6.04883">
        <ele>1326.410553</ele>
        <time>2013-07-14T12:53:18Z</time>
      </trkpt>
      <trkpt lat="45.07626" lon="6.04866">
        <ele>1323.970135</ele>
        <time>2013-07-14T12:53:23Z</time>
      </trkpt>
      <trkpt lat="45.07623" lon="6.04849">
        <ele>1327.918444</ele>
        <time>2013-07-14T12:53:28Z</time>
      </trkpt>
      <trkpt lat="45.0762" lon="6.0483">
        <ele>1327.49294</ele>
        <time>2013-07-14T12:53:33Z</time>
      </trkpt>
      <trkpt lat="45.07628" lon="6.04803">
        <ele>1315.305088</ele>
        <time>2013-07-14T12:53:38Z</time>
      </trkpt>
      <trkpt lat="45.07637" lon="6.04782">
        <ele>1309.067669</ele>
        <time>2013-07-14T12:53:43Z</time>
      </trkpt>
      <trkpt lat="45.07646" lon="6.04764">
        <ele>1305.166019</ele>
        <time>2013-07-14T12:53:48Z</time>
      </trkpt>
      <trkpt lat="45.07651" lon="6.04747">
        <ele>1304.849967</ele>
        <time>2013-07-14T12:53:53Z</time>
      </trkpt>
      <trkpt lat="45.07659" lon="6.04736">
        <ele>1306.327843</ele>
        <time>2013-07-14T12:53:58Z</time>
      </trkpt>
      <trkpt lat="45.0766" lon="6.04746">
        <ele>1304.81631</ele>
        <time>2013-07-14T12:54:03Z</time>
      </trkpt>
      <trkpt lat="45.07654" lon="6.04758">
        <ele>1306.239224</ele>
        <time>2013-07-14T12:54:08Z</time>
      </trkpt>
      <trkpt lat="45.07647" lon="6.04769">
        <ele>1309.700275</ele>
        <time>2013-07-14T12:54:13Z</time>
      </trkpt>
      <trkpt lat="45.07645" lon="6.04784">
        <ele>1310.587251</ele>
        <time>2013-07-14T12:54:18Z</time>
      </trkpt>
      <trkpt lat="45.07647" lon="6.04807">
        <ele>1312.646169</ele>
        <time>2013-07-14T12:54:23Z</time>
      </trkpt>
      <trkpt lat="45.0765" lon="6.04824">
        <ele>1315.041161</ele>
        <time>2013-07-14T12:54:28Z</time>
      </trkpt>
      <trkpt lat="45.07653" lon="6.04838">
        <ele>1313.764576</ele>
        <time>2013-07-14T12:54:33Z</time>
      </trkpt>
      <trkpt lat="45.07656" lon="6.04851">
        <ele>1312.407785</ele>
        <time>2013-07-14T12:54:38Z</time>
      </trkpt>
      <trkpt lat="45.07656" lon="6.04863">
        <ele>1313.083289</ele>
        <time>2013-07-14T12:54:43Z</time>
      </trkpt>
      <trkpt lat="45.07663" lon="6.0488">
        <ele>1317.608355</ele>
        <time>2013-07-14T12:54:48Z</time>
      </trkpt>
      <trkpt lat="45.07667" lon="6.04898">
        <ele>1321.493993</ele>
        <time>2013-07-14T12:54:53Z</time>
      </trkpt>
      <trkpt lat="45.07669" lon="6.04913">
        <ele>1327.337515</ele>
        <time>2013-07-14T12:54:58Z</time>
      </trkpt>
      <trkpt lat="45.0767" lon="6.04921">
        <ele>1333.505374</ele>
        <time>2013-07-14T12:55:03Z</time>
      </trkpt>
      <trkpt lat="45.07669" lon="6.04927">
        <ele>1335.989967</ele>
        <time>2013-07-14T12:55:08Z</time>
      </trkpt>
      <trkpt lat="45.07666" lon="6.04934">
        <ele>1343.476224</ele>
        <time>2013-07-14T12:55:13Z</time>
      </trkpt>
      <trkpt lat="45.0766" lon="6.04954">
        <ele>1349.656953</ele>
        <time>2013-07-14T12:55:18Z</time>
      </trkpt>
      <trkpt lat="45.07656" lon="6.04978">
        <ele>1347.530726</ele>
        <time>2013-07-14T12:55:23Z</time>
      </trkpt>
      <trkpt lat="45.07654" lon="6.04996">
        <ele>1347.156576</ele>
        <time>2013-07-14T12:55:28Z</time>
      </trkpt>
      <trkpt lat="45.07653" lon="6.05018">
        <ele>1344.19101</ele>
        <time>2013-07-14T12:55:33Z</time>
      </trkpt>
      <trkpt lat="45.07649" lon="6.05038">
        <ele>1345.370248</ele>
        <time>2013-07-14T12:55:38Z</time>
      </trkpt>
      <trkpt lat="45.07647" lon="6.05051">
        <ele>1346.183182</ele>
        <time>2013-07-14T12:55:43Z</time>
      </trkpt>
      <trkpt lat="45.07642" lon="6.05062">
        <ele>1348.94813</ele>
        <time>2013-07-14T12:55:48Z</time>
      </trkpt>
      <trkpt lat="45.07636" lon="6.05069">
        <ele>1352.894245</ele>
        <time>2013-07-14T12:55:53Z</time>
      </trkpt>
      <trkpt lat="45.07628" lon="6.05076">
        <ele>1358.319269</ele>
        <time>2013-07-14T12:55:58Z</time>
      </trkpt>
      <trkpt lat="45.07623" lon="6.05099">
        <ele>1356.113098</ele>
        <time>2013-07-14T12:56:03Z</time>
      </trkpt>
      <trkpt lat="45.07615" lon="6.05118">
        <ele>1348.738964</ele>
        <time>2013-07-14T12:56:08Z</time>
      </trkpt>
      <trkpt lat="45.07608" lon="6.05127">
        <ele>1350.71571</ele>
        <time>2013-07-14T12:56:13Z</time>
      </trkpt>
      <trkpt lat="45.07599" lon="6.05134">
        <ele>1352.531963</ele>
        <time>2013-07-14T12:56:18Z</time>
      </trkpt>
      <trkpt lat="45.07589" lon="6.05139">
        <ele>1356.386303</ele>
        <time>2013-07-14T12:56:23Z</time>
      </trkpt>
      <trkpt lat="45.0758" lon="6.05147">
        <ele>1356.866767</ele>
        <time>2013-07-14T12:56:28Z</time>
      </trkpt>
      <trkpt lat="45.07569" lon="6.05153">
        <ele>1358.677279</ele>
        <time>2013-07-14T12:56:33Z</time>
      </trkpt>
      <trkpt lat="45.0756" lon="6.05159">
        <ele>1362.606133</ele>
        <time>2013-07-14T12:56:38Z</time>
      </trkpt>
      <trkpt lat="45.07548" lon="6.05171">
        <ele>1364.496943</ele>
        <time>2013-07-14T12:56:43Z</time>
      </trkpt>
      <trkpt lat="45.0754" lon="6.05173">
        <ele>1367.717805</ele>
        <time>2013-07-14T12:56:48Z</time>
      </trkpt>
      <trkpt lat="45.07528" lon="6.0518">
        <ele>1368.112346</ele>
        <time>2013-07-14T12:56:53Z</time>
      </trkpt>
      <trkpt lat="45.07517" lon="6.05186">
        <ele>1372.035505</ele>
        <time>2013-07-14T12:56:58Z</time>
      </trkpt>
      <trkpt lat="45.07505" lon="6.05192">
        <ele>1375.958691</ele>
        <time>2013-07-14T12:57:03Z</time>
      </trkpt>
      <trkpt lat="45.07494" lon="6.05195">
        <ele>1376.129963</ele>
        <time>2013-07-14T12:57:08Z</time>
      </trkpt>
      <trkpt lat="45.07484" lon="6.05206">
        <ele>1367.589865</ele>
        <time>2013-07-14T12:57:13Z</time>
      </trkpt>
      <trkpt lat="45.07478" lon="6.05219">
        <ele>1366.273216</ele>
        <time>2013-07-14T12:57:18Z</time>
      </trkpt>
      <trkpt lat="45.0748" lon="6.05234">
        <ele>1366.395777</ele>
        <time>2013-07-14T12:57:23Z</time>
      </trkpt>
      <trkpt lat="45.07489" lon="6.05241">
        <ele>1366.81434</ele>
        <time>2013-07-14T12:57:28Z</time>
      </trkpt>
      <trkpt lat="45.07493" lon="6.05243">
        <ele>1364.085605</ele>
        <time>2013-07-14T12:57:33Z</time>
      </trkpt>
      <trkpt lat="45.07499" lon="6.05238">
        <ele>1364.518952</ele>
        <time>2013-07-14T12:57:38Z</time>
      </trkpt>
      <trkpt lat="45.0751" lon="6.05226">
        <ele>1362.335959</ele>
        <time>2013-07-14T12:57:43Z</time>
      </trkpt>
      <trkpt lat="45.07524" lon="6.05217">
        <ele>1362.506267</ele>
        <time>2013-07-14T12:57:48Z</time>
      </trkpt>
      <trkpt lat="45.07538" lon="6.05212">
        <ele>1363.608017</ele>
        <time>2013-07-14T12:57:53Z</time>
      </trkpt>
      <trkpt lat="45.07549" lon="6.05207">
        <ele>1364.69241</ele>
        <time>2013-07-14T12:57:58Z</time>
      </trkpt>
      <trkpt lat="45.07559" lon="6.052">
        <ele>1365.702374</ele>
        <time>2013-07-14T12:58:03Z</time>
      </trkpt>
      <trkpt lat="45.07573" lon="6.05196">
        <ele>1368.991195</ele>
        <time>2013-07-14T12:58:08Z</time>
      </trkpt>
      <trkpt lat="45.07585" lon="6.05191">
        <ele>1370.789516</ele>
        <time>2013-07-14T12:58:13Z</time>
      </trkpt>
      <trkpt lat="45.07595" lon="6.05189">
        <ele>1372.7996</ele>
        <time>2013-07-14T12:58:18Z</time>
      </trkpt>
      <trkpt lat="45.07605" lon="6.05186">
        <ele>1375.443297</ele>
        <time>2013-07-14T12:58:23Z</time>
      </trkpt>
      <trkpt lat="45.07617" lon="6.05185">
        <ele>1376.757004</ele>
        <time>2013-07-14T12:58:28Z</time>
      </trkpt>
      <trkpt lat="45.07628" lon="6.05183">
        <ele>1375.250185</ele>
        <time>2013-07-14T12:58:33Z</time>
      </trkpt>
      <trkpt lat="45.07638" lon="6.05181">
        <ele>1371.544796</ele>
        <time>2013-07-14T12:58:38Z</time>
      </trkpt>
      <trkpt lat="45.0765" lon="6.0518">
        <ele>1365.807195</ele>
        <time>2013-07-14T12:58:43Z</time>
      </trkpt>
      <trkpt lat="45.07662" lon="6.05178">
        <ele>1366.34433</ele>
        <time>2013-07-14T12:58:48Z</time>
      </trkpt>
      <trkpt lat="45.07669" lon="6.05171">
        <ele>1365.224557</ele>
        <time>2013-07-14T12:58:53Z</time>
      </trkpt>
      <trkpt lat="45.07678" lon="6.05166">
        <ele>1368.490353</ele>
        <time>2013-07-14T12:58:58Z</time>
      </trkpt>
      <trkpt lat="45.07685" lon="6.05157">
        <ele>1365.811442</ele>
        <time>2013-07-14T12:59:03Z</time>
      </trkpt>
      <trkpt lat="45.07691" lon="6.05148">
        <ele>1372.365043</ele>
        <time>2013-07-14T12:59:08Z</time>
      </trkpt>
      <trkpt lat="45.07696" lon="6.05137">
        <ele>1375.241162</ele>
        <time>2013-07-14T12:59:13Z</time>
      </trkpt>
      <trkpt lat="45.07703" lon="6.05125">
        <ele>1377.346472</ele>
        <time>2013-07-14T12:59:18Z</time>
      </trkpt>
      <trkpt lat="45.0771" lon="6.05114">
        <ele>1380.936524</ele>
        <time>2013-07-14T12:59:23Z</time>
      </trkpt>
      <trkpt lat="45.07715" lon="6.05102">
        <ele>1382.402421</ele>
        <time>2013-07-14T12:59:28Z</time>
      </trkpt>
      <trkpt lat="45.07719" lon="6.05092">
        <ele>1386.05527</ele>
        <time>2013-07-14T12:59:33Z</time>
      </trkpt>
      <trkpt lat="45.07728" lon="6.05084">
        <ele>1387.687596</ele>
        <time>2013-07-14T12:59:38Z</time>
      </trkpt>
      <trkpt lat="45.07734" lon="6.05073">
        <ele>1389.861604</ele>
        <time>2013-07-14T12:59:43Z</time>
      </trkpt>
      <trkpt lat="45.07737" lon="6.05064">
        <ele>1392.880869</ele>
        <time>2013-07-14T12:59:48Z</time>
      </trkpt>
      <trkpt lat="45.07745" lon="6.05055">
        <ele>1394.43297</ele>
        <time>2013-07-14T12:59:53Z</time>
      </trkpt>
      <trkpt lat="45.07748" lon="6.05047">
        <ele>1397.52669</ele>
        <time>2013-07-14T12:59:58Z</time>
      </trkpt>
      <trkpt lat="45.07751" lon="6.05042">
        <ele>1400.763432</ele>
        <time>2013-07-14T13:00:03Z</time>
      </trkpt>
      <trkpt lat="45.07753" lon="6.05032">
        <ele>1405.112737</ele>
        <time>2013-07-14T13:00:08Z</time>
      </trkpt>
      <trkpt lat="45.0775" lon="6.05019">
        <ele>1415.707566</ele>
        <time>2013-07-14T13:00:13Z</time>
      </trkpt>
      <trkpt lat="45.07753" lon="6.05007">
        <ele>1419.280252</ele>
        <time>2013-07-14T13:00:18Z</time>
      </trkpt>
      <trkpt lat="45.07759" lon="6.05">
        <ele>1422.385709</ele>
        <time>2013-07-14T13:00:23Z</time>
      </trkpt>
      <trkpt lat="45.07767" lon="6.04987">
        <ele>1422.304351</ele>
        <time>2013-07-14T13:00:28Z</time>
      </trkpt>
      <trkpt lat="45.0777" lon="6.04975">
        <ele>1424.466804</ele>
        <time>2013-07-14T13:00:33Z</time>
      </trkpt>
      <trkpt lat="45.07774" lon="6.04962">
        <ele>1422.957657</ele>
        <time>2013-07-14T13:00:38Z</time>
      </trkpt>
      <trkpt lat="45.07777" lon="6.0495">
        <ele>1425.120142</ele>
        <time>2013-07-14T13:00:43Z</time>
      </trkpt>
      <trkpt lat="45.07783" lon="6.04948">
        <ele>1429.231408</ele>
        <time>2013-07-14T13:00:48Z</time>
      </trkpt>
      <trkpt lat="45.07785" lon="6.04943">
        <ele>1430.349868</ele>
        <time>2013-07-14T13:00:53Z</time>
      </trkpt>
      <trkpt lat="45.07784" lon="6.04925">
        <ele>1431.414669</ele>
        <time>2013-07-14T13:00:58Z</time>
      </trkpt>
      <trkpt lat="45.07785" lon="6.04906">
        <ele>1433.119008</ele>
        <time>2013-07-14T13:01:03Z</time>
      </trkpt>
      <trkpt lat="45.07785" lon="6.0489">
        <ele>1437.159111</ele>
        <time>2013-07-14T13:01:08Z</time>
      </trkpt>
      <trkpt lat="45.07787" lon="6.04867">
        <ele>1431.514477</ele>
        <time>2013-07-14T13:01:13Z</time>
      </trkpt>
      <trkpt lat="45.07788" lon="6.04846">
        <ele>1425.316496</ele>
        <time>2013-07-14T13:01:18Z</time>
      </trkpt>
      <trkpt lat="45.07789" lon="6.0483">
        <ele>1418.000038</ele>
        <time>2013-07-14T13:01:23Z</time>
      </trkpt>
      <trkpt lat="45.0779" lon="6.04812">
        <ele>1409.832587</ele>
        <time>2013-07-14T13:01:28Z</time>
      </trkpt>
      <trkpt lat="45.07788" lon="6.04797">
        <ele>1409.710536</ele>
        <time>2013-07-14T13:01:33Z</time>
      </trkpt>
      <trkpt lat="45.07794" lon="6.04792">
        <ele>1407.951671</ele>
        <time>2013-07-14T13:01:38Z</time>
      </trkpt>
      <trkpt lat="45.078" lon="6.048">
        <ele>1402.786221</ele>
        <time>2013-07-14T13:01:43Z</time>
      </trkpt>
      <trkpt lat="45.07802" lon="6.04816">
        <ele>1402.988537</ele>
        <time>2013-07-14T13:01:48Z</time>
      </trkpt>
      <trkpt lat="45.07804" lon="6.04832">
        <ele>1407.496126</ele>
        <time>2013-07-14T13:01:53Z</time>
      </trkpt>
      <trkpt lat="45.07809" lon="6.04847">
        <ele>1407.635804</ele>
        <time>2013-07-14T13:01:58Z</time>
      </trkpt>
      <trkpt lat="45.07812" lon="6.0486">
        <ele>1411.218011</ele>
        <time>2013-07-14T13:02:03Z</time>
      </trkpt>
      <trkpt lat="45.07817" lon="6.04871">
        <ele>1414.731689</ele>
        <time>2013-07-14T13:02:08Z</time>
      </trkpt>
      <trkpt lat="45.07822" lon="6.04879">
        <ele>1416.611872</ele>
        <time>2013-07-14T13:02:13Z</time>
      </trkpt>
      <trkpt lat="45.07825" lon="6.04887">
        <ele>1417.075923</ele>
        <time>2013-07-14T13:02:18Z</time>
      </trkpt>
      <trkpt lat="45.07828" lon="6.04896">
        <ele>1419.024673</ele>
        <time>2013-07-14T13:02:23Z</time>
      </trkpt>
      <trkpt lat="45.07834" lon="6.04915">
        <ele>1422.214132</ele>
        <time>2013-07-14T13:02:28Z</time>
      </trkpt>
      <trkpt lat="45.07839" lon="6.04933">
        <ele>1425.397763</ele>
        <time>2013-07-14T13:02:33Z</time>
      </trkpt>
      <trkpt lat="45.07843" lon="6.04946">
        <ele>1424.047051</ele>
        <time>2013-07-14T13:02:38Z</time>
      </trkpt>
      <trkpt lat="45.07845" lon="6.0496">
        <ele>1423.467113</ele>
        <time>2013-07-14T13:02:43Z</time>
      </trkpt>
      <trkpt lat="45.07846" lon="6.04977">
        <ele>1425.148522</ele>
        <time>2013-07-14T13:02:48Z</time>
      </trkpt>
      <trkpt lat="45.07848" lon="6.04994">
        <ele>1422.604992</ele>
        <time>2013-07-14T13:02:53Z</time>
      </trkpt>
      <trkpt lat="45.07842" lon="6.05002">
        <ele>1420.984128</ele>
        <time>2013-07-14T13:02:58Z</time>
      </trkpt>
      <trkpt lat="45.07838" lon="6.05017">
        <ele>1419.747145</ele>
        <time>2013-07-14T13:03:03Z</time>
      </trkpt>
      <trkpt lat="45.07828" lon="6.05029">
        <ele>1431.807004</ele>
        <time>2013-07-14T13:03:08Z</time>
      </trkpt>
      <trkpt lat="45.07824" lon="6.05043">
        <ele>1442.554504</ele>
        <time>2013-07-14T13:03:13Z</time>
      </trkpt>
      <trkpt lat="45.07817" lon="6.05056">
        <ele>1448.282825</ele>
        <time>2013-07-14T13:03:18Z</time>
      </trkpt>
      <trkpt lat="45.07811" lon="6.0507">
        <ele>1454.085603</ele>
        <time>2013-07-14T13:03:23Z</time>
      </trkpt>
      <trkpt lat="45.07805" lon="6.05083">
        <ele>1460.522044</ele>
        <time>2013-07-14T13:03:28Z</time>
      </trkpt>
      <trkpt lat="45.07801" lon="6.05093">
        <ele>1468.225771</ele>
        <time>2013-07-14T13:03:33Z</time>
      </trkpt>
      <trkpt lat="45.07795" lon="6.05105">
        <ele>1475.295882</ele>
        <time>2013-07-14T13:03:38Z</time>
      </trkpt>
      <trkpt lat="45.07788" lon="6.05119">
        <ele>1478.98041</ele>
        <time>2013-07-14T13:03:43Z</time>
      </trkpt>
      <trkpt lat="45.07782" lon="6.05142">
        <ele>1474.655813</ele>
        <time>2013-07-14T13:03:48Z</time>
      </trkpt>
      <trkpt lat="45.07778" lon="6.05166">
        <ele>1467.596877</ele>
        <time>2013-07-14T13:03:53Z</time>
      </trkpt>
      <trkpt lat="45.07775" lon="6.05181">
        <ele>1467.776313</ele>
        <time>2013-07-14T13:03:58Z</time>
      </trkpt>
      <trkpt lat="45.07771" lon="6.052">
        <ele>1465.352714</ele>
        <time>2013-07-14T13:04:03Z</time>
      </trkpt>
      <trkpt lat="45.07763" lon="6.0522">
        <ele>1466.508811</ele>
        <time>2013-07-14T13:04:08Z</time>
      </trkpt>
      <trkpt lat="45.07755" lon="6.05242">
        <ele>1462.178616</ele>
        <time>2013-07-14T13:04:13Z</time>
      </trkpt>
      <trkpt lat="45.07746" lon="6.05257">
        <ele>1459.508377</ele>
        <time>2013-07-14T13:04:18Z</time>
      </trkpt>
      <trkpt lat="45.07735" lon="6.05271">
        <ele>1458.944818</ele>
        <time>2013-07-14T13:04:23Z</time>
      </trkpt>
      <trkpt lat="45.07724" lon="6.05283">
        <ele>1458.23238</ele>
        <time>2013-07-14T13:04:28Z</time>
      </trkpt>
      <trkpt lat="45.07713" lon="6.05298">
        <ele>1454.922815</ele>
        <time>2013-07-14T13:04:33Z</time>
      </trkpt>
      <trkpt lat="45.07706" lon="6.05317">
        <ele>1455.308352</ele>
        <time>2013-07-14T13:04:38Z</time>
      </trkpt>
      <trkpt lat="45.07712" lon="6.05336">
        <ele>1452.149255</ele>
        <time>2013-07-14T13:04:43Z</time>
      </trkpt>
      <trkpt lat="45.07726" lon="6.05353">
        <ele>1446.763834</ele>
        <time>2013-07-14T13:04:48Z</time>
      </trkpt>
      <trkpt lat="45.07739" lon="6.05355">
        <ele>1447.60483</ele>
        <time>2013-07-14T13:04:53Z</time>
      </trkpt>
      <trkpt lat="45.0775" lon="6.05361">
        <ele>1446.470611</ele>
        <time>2013-07-14T13:04:58Z</time>
      </trkpt>
      <trkpt lat="45.0776" lon="6.05368">
        <ele>1448.300055</ele>
        <time>2013-07-14T13:05:03Z</time>
      </trkpt>
      <trkpt lat="45.07772" lon="6.05374">
        <ele>1452.179246</ele>
        <time>2013-07-14T13:05:08Z</time>
      </trkpt>
      <trkpt lat="45.07777" lon="6.05379">
        <ele>1453.208626</ele>
        <time>2013-07-14T13:05:13Z</time>
      </trkpt>
      <trkpt lat="45.07792" lon="6.0539">
        <ele>1456.620797</ele>
        <time>2013-07-14T13:05:18Z</time>
      </trkpt>
      <trkpt lat="45.07804" lon="6.054">
        <ele>1457.200743</ele>
        <time>2013-07-14T13:05:23Z</time>
      </trkpt>
      <trkpt lat="45.07818" lon="6.0541">
        <ele>1458.494667</ele>
        <time>2013-07-14T13:05:28Z</time>
      </trkpt>
      <trkpt lat="45.07829" lon="6.05418">
        <ele>1458.919873</ele>
        <time>2013-07-14T13:05:33Z</time>
      </trkpt>
      <trkpt lat="45.07841" lon="6.05425">
        <ele>1460.053182</ele>
        <time>2013-07-14T13:05:38Z</time>
      </trkpt>
      <trkpt lat="45.07853" lon="6.05434">
        <ele>1461.969075</ele>
        <time>2013-07-14T13:05:43Z</time>
      </trkpt>
      <trkpt lat="45.07863" lon="6.05439">
        <ele>1462.941734</ele>
        <time>2013-07-14T13:05:48Z</time>
      </trkpt>
      <trkpt lat="45.07873" lon="6.05443">
        <ele>1464.62249</ele>
        <time>2013-07-14T13:05:53Z</time>
      </trkpt>
      <trkpt lat="45.07882" lon="6.05449">
        <ele>1464.259393</ele>
        <time>2013-07-14T13:05:58Z</time>
      </trkpt>
      <trkpt lat="45.07894" lon="6.05457">
        <ele>1464.690652</ele>
        <time>2013-07-14T13:06:03Z</time>
      </trkpt>
      <trkpt lat="45.07903" lon="6.05464">
        <ele>1467.222629</ele>
        <time>2013-07-14T13:06:08Z</time>
      </trkpt>
      <trkpt lat="45.07912" lon="6.0547">
        <ele>1468.972063</ele>
        <time>2013-07-14T13:06:13Z</time>
      </trkpt>
      <trkpt lat="45.07927" lon="6.05474">
        <ele>1466.371211</ele>
        <time>2013-07-14T13:06:18Z</time>
      </trkpt>
      <trkpt lat="45.07943" lon="6.05471">
        <ele>1468.964608</ele>
        <time>2013-07-14T13:06:23Z</time>
      </trkpt>
      <trkpt lat="45.07947" lon="6.05469">
        <ele>1469.541435</ele>
        <time>2013-07-14T13:06:28Z</time>
      </trkpt>
      <trkpt lat="45.07958" lon="6.05466">
        <ele>1472.185758</ele>
        <time>2013-07-14T13:06:33Z</time>
      </trkpt>
      <trkpt lat="45.07968" lon="6.05465">
        <ele>1474.979062</ele>
        <time>2013-07-14T13:06:38Z</time>
      </trkpt>
      <trkpt lat="45.07978" lon="6.05465">
        <ele>1477.772386</ele>
        <time>2013-07-14T13:06:43Z</time>
      </trkpt>
      <trkpt lat="45.07992" lon="6.05467">
        <ele>1479.322152</ele>
        <time>2013-07-14T13:06:48Z</time>
      </trkpt>
      <trkpt lat="45.08" lon="6.05467">
        <ele>1481.401516</ele>
        <time>2013-07-14T13:06:53Z</time>
      </trkpt>
      <trkpt lat="45.08006" lon="6.0547">
        <ele>1485.102773</ele>
        <time>2013-07-14T13:06:58Z</time>
      </trkpt>
      <trkpt lat="45.08011" lon="6.05472">
        <ele>1487.393765</ele>
        <time>2013-07-14T13:07:03Z</time>
      </trkpt>
      <trkpt lat="45.08025" lon="6.05476">
        <ele>1490.428374</ele>
        <time>2013-07-14T13:07:08Z</time>
      </trkpt>
      <trkpt lat="45.08036" lon="6.05481">
        <ele>1494.227831</ele>
        <time>2013-07-14T13:07:13Z</time>
      </trkpt>
      <trkpt lat="45.0805" lon="6.05493">
        <ele>1490.663962</ele>
        <time>2013-07-14T13:07:18Z</time>
      </trkpt>
      <trkpt lat="45.08061" lon="6.05504">
        <ele>1489.902904</ele>
        <time>2013-07-14T13:07:23Z</time>
      </trkpt>
      <trkpt lat="45.08073" lon="6.05514">
        <ele>1494.006316</ele>
        <time>2013-07-14T13:07:28Z</time>
      </trkpt>
      <trkpt lat="45.08074" lon="6.0552">
        <ele>1497.205217</ele>
        <time>2013-07-14T13:07:33Z</time>
      </trkpt>
      <trkpt lat="45.08069" lon="6.05523">
        <ele>1505.866577</ele>
        <time>2013-07-14T13:07:38Z</time>
      </trkpt>
      <trkpt lat="45.08056" lon="6.05534">
        <ele>1512.199155</ele>
        <time>2013-07-14T13:07:43Z</time>
      </trkpt>
      <trkpt lat="45.08045" lon="6.05547">
        <ele>1509.442458</ele>
        <time>2013-07-14T13:07:48Z</time>
      </trkpt>
      <trkpt lat="45.08033" lon="6.05558">
        <ele>1510.134031</ele>
        <time>2013-07-14T13:07:53Z</time>
      </trkpt>
      <trkpt lat="45.08022" lon="6.05569">
        <ele>1509.346802</ele>
        <time>2013-07-14T13:07:58Z</time>
      </trkpt>
      <trkpt lat="45.08013" lon="6.05579">
        <ele>1511.386067</ele>
        <time>2013-07-14T13:08:03Z</time>
      </trkpt>
      <trkpt lat="45.08003" lon="6.05597">
        <ele>1513.872329</ele>
        <time>2013-07-14T13:08:08Z</time>
      </trkpt>
      <trkpt lat="45.08" lon="6.0562">
        <ele>1511.67872</ele>
        <time>2013-07-14T13:08:13Z</time>
      </trkpt>
      <trkpt lat="45.07999" lon="6.05641">
        <ele>1510.832764</ele>
        <time>2013-07-14T13:08:18Z</time>
      </trkpt>
      <trkpt lat="45.08" lon="6.05662">
        <ele>1509.918266</ele>
        <time>2013-07-14T13:08:23Z</time>
      </trkpt>
      <trkpt lat="45.08003" lon="6.0568">
        <ele>1503.151048</ele>
        <time>2013-07-14T13:08:28Z</time>
      </trkpt>
      <trkpt lat="45.08009" lon="6.05696">
        <ele>1499.843907</ele>
        <time>2013-07-14T13:08:33Z</time>
      </trkpt>
      <trkpt lat="45.08017" lon="6.05712">
        <ele>1497.95891</ele>
        <time>2013-07-14T13:08:38Z</time>
      </trkpt>
      <trkpt lat="45.08023" lon="6.05726">
        <ele>1501.628671</ele>
        <time>2013-07-14T13:08:43Z</time>
      </trkpt>
      <trkpt lat="45.0803" lon="6.05744">
        <ele>1501.930698</ele>
        <time>2013-07-14T13:08:48Z</time>
      </trkpt>
      <trkpt lat="45.08036" lon="6.05758">
        <ele>1501.369711</ele>
        <time>2013-07-14T13:08:53Z</time>
      </trkpt>
      <trkpt lat="45.0804" lon="6.05775">
        <ele>1503.070223</ele>
        <time>2013-07-14T13:08:58Z</time>
      </trkpt>
      <trkpt lat="45.08045" lon="6.0579">
        <ele>1504.62173</ele>
        <time>2013-07-14T13:09:03Z</time>
      </trkpt>
      <trkpt lat="45.08049" lon="6.05803">
        <ele>1506.092811</ele>
        <time>2013-07-14T13:09:08Z</time>
      </trkpt>
      <trkpt lat="45.08055" lon="6.05818">
        <ele>1506.240029</ele>
        <time>2013-07-14T13:09:13Z</time>
      </trkpt>
      <trkpt lat="45.08063" lon="6.05832">
        <ele>1506.393209</ele>
        <time>2013-07-14T13:09:18Z</time>
      </trkpt>
      <trkpt lat="45.08068" lon="6.05847">
        <ele>1506.534549</ele>
        <time>2013-07-14T13:09:23Z</time>
      </trkpt>
      <trkpt lat="45.08075" lon="6.0586">
        <ele>1508.725696</ele>
        <time>2013-07-14T13:09:28Z</time>
      </trkpt>
      <trkpt lat="45.08083" lon="6.0587">
        <ele>1509.288957</ele>
        <time>2013-07-14T13:09:33Z</time>
      </trkpt>
      <trkpt lat="45.08093" lon="6.05885">
        <ele>1509.454137</ele>
        <time>2013-07-14T13:09:38Z</time>
      </trkpt>
      <trkpt lat="45.081" lon="6.05897">
        <ele>1508.750302</ele>
        <time>2013-07-14T13:09:43Z</time>
      </trkpt>
      <trkpt lat="45.08109" lon="6.05911">
        <ele>1509.537237</ele>
        <time>2013-07-14T13:09:48Z</time>
      </trkpt>
      <trkpt lat="45.08114" lon="6.05926">
        <ele>1510.38684</ele>
        <time>2013-07-14T13:09:53Z</time>
      </trkpt>
      <trkpt lat="45.08118" lon="6.05941">
        <ele>1513.417481</ele>
        <time>2013-07-14T13:09:58Z</time>
      </trkpt>
      <trkpt lat="45.08121" lon="6.05956">
        <ele>1514.329774</ele>
        <time>2013-07-14T13:10:03Z</time>
      </trkpt>
      <trkpt lat="45.08128" lon="6.05971">
        <ele>1518.005939</ele>
        <time>2013-07-14T13:10:08Z</time>
      </trkpt>
      <trkpt lat="45.08134" lon="6.0598">
        <ele>1522.788282</ele>
        <time>2013-07-14T13:10:13Z</time>
      </trkpt>
      <trkpt lat="45.08137" lon="6.05988">
        <ele>1524.663657</ele>
        <time>2013-07-14T13:10:18Z</time>
      </trkpt>
      <trkpt lat="45.08147" lon="6.06008">
        <ele>1530.066198</ele>
        <time>2013-07-14T13:10:23Z</time>
      </trkpt>
      <trkpt lat="45.08155" lon="6.06027">
        <ele>1531.928234</ele>
        <time>2013-07-14T13:10:28Z</time>
      </trkpt>
      <trkpt lat="45.08161" lon="6.06041">
        <ele>1533.411617</ele>
        <time>2013-07-14T13:10:33Z</time>
      </trkpt>
      <trkpt lat="45.08165" lon="6.06054">
        <ele>1536.293365</ele>
        <time>2013-07-14T13:10:38Z</time>
      </trkpt>
      <trkpt lat="45.08165" lon="6.06066">
        <ele>1535.634563</ele>
        <time>2013-07-14T13:10:43Z</time>
      </trkpt>
      <trkpt lat="45.08169" lon="6.06083">
        <ele>1540.150269</ele>
        <time>2013-07-14T13:10:48Z</time>
      </trkpt>
      <trkpt lat="45.08172" lon="6.061">
        <ele>1540.43521</ele>
        <time>2013-07-14T13:10:53Z</time>
      </trkpt>
      <trkpt lat="45.08175" lon="6.06113">
        <ele>1540.490546</ele>
        <time>2013-07-14T13:10:58Z</time>
      </trkpt>
      <trkpt lat="45.08179" lon="6.0613">
        <ele>1541.483657</ele>
        <time>2013-07-14T13:11:03Z</time>
      </trkpt>
      <trkpt lat="45.08183" lon="6.06148">
        <ele>1543.961623</ele>
        <time>2013-07-14T13:11:08Z</time>
      </trkpt>
      <trkpt lat="45.08188" lon="6.06166">
        <ele>1544.327213</ele>
        <time>2013-07-14T13:11:13Z</time>
      </trkpt>
      <trkpt lat="45.08197" lon="6.06183">
        <ele>1541.741097</ele>
        <time>2013-07-14T13:11:18Z</time>
      </trkpt>
      <trkpt lat="45.08205" lon="6.06198">
        <ele>1541.192864</ele>
        <time>2013-07-14T13:11:23Z</time>
      </trkpt>
      <trkpt lat="45.08212" lon="6.06214">
        <ele>1539.302994</ele>
        <time>2013-07-14T13:11:28Z</time>
      </trkpt>
      <trkpt lat="45.08219" lon="6.06229">
        <ele>1536.636447</ele>
        <time>2013-07-14T13:11:33Z</time>
      </trkpt>
      <trkpt lat="45.08231" lon="6.06234">
        <ele>1534.801567</ele>
        <time>2013-07-14T13:11:38Z</time>
      </trkpt>
      <trkpt lat="45.08237" lon="6.06226">
        <ele>1535.011625</ele>
        <time>2013-07-14T13:11:43Z</time>
      </trkpt>
      <trkpt lat="45.08229" lon="6.06209">
        <ele>1541.126251</ele>
        <time>2013-07-14T13:11:48Z</time>
      </trkpt>
      <trkpt lat="45.0822" lon="6.06195">
        <ele>1544.563545</ele>
        <time>2013-07-14T13:11:53Z</time>
      </trkpt>
      <trkpt lat="45.08212" lon="6.06178">
        <ele>1544.96263</ele>
        <time>2013-07-14T13:11:58Z</time>
      </trkpt>
      <trkpt lat="45.08211" lon="6.06159">
        <ele>1548.845713</ele>
        <time>2013-07-14T13:12:03Z</time>
      </trkpt>
      <trkpt lat="45.08211" lon="6.06141">
        <ele>1552.734803</ele>
        <time>2013-07-14T13:12:08Z</time>
      </trkpt>
      <trkpt lat="45.08211" lon="6.06125">
        <ele>1556.773039</ele>
        <time>2013-07-14T13:12:13Z</time>
      </trkpt>
      <trkpt lat="45.08213" lon="6.0611">
        <ele>1559.40701</ele>
        <time>2013-07-14T13:12:18Z</time>
      </trkpt>
      <trkpt lat="45.08214" lon="6.06088">
        <ele>1555.952626</ele>
        <time>2013-07-14T13:12:23Z</time>
      </trkpt>
      <trkpt lat="45.08218" lon="6.06068">
        <ele>1556.182017</ele>
        <time>2013-07-14T13:12:28Z</time>
      </trkpt>
      <trkpt lat="45.0822" lon="6.06046">
        <ele>1557.033071</ele>
        <time>2013-07-14T13:12:33Z</time>
      </trkpt>
      <trkpt lat="45.08221" lon="6.06027">
        <ele>1557.32514</ele>
        <time>2013-07-14T13:12:38Z</time>
      </trkpt>
      <trkpt lat="45.08223" lon="6.06009">
        <ele>1557.697764</ele>
        <time>2013-07-14T13:12:43Z</time>
      </trkpt>
      <trkpt lat="45.08225" lon="6.05993">
        <ele>1557.436839</ele>
        <time>2013-07-14T13:12:48Z</time>
      </trkpt>
      <trkpt lat="45.08226" lon="6.05975">
        <ele>1559.213813</ele>
        <time>2013-07-14T13:12:53Z</time>
      </trkpt>
      <trkpt lat="45.08226" lon="6.05957">
        <ele>1558.87243</ele>
        <time>2013-07-14T13:12:58Z</time>
      </trkpt>
      <trkpt lat="45.08225" lon="6.05938">
        <ele>1559.860835</ele>
        <time>2013-07-14T13:13:03Z</time>
      </trkpt>
      <trkpt lat="45.08225" lon="6.05918">
        <ele>1562.265519</ele>
        <time>2013-07-14T13:13:08Z</time>
      </trkpt>
      <trkpt lat="45.08226" lon="6.059">
        <ele>1564.744769</ele>
        <time>2013-07-14T13:13:13Z</time>
      </trkpt>
      <trkpt lat="45.08225" lon="6.05883">
        <ele>1568.000724</ele>
        <time>2013-07-14T13:13:18Z</time>
      </trkpt>
      <trkpt lat="45.08225" lon="6.05861">
        <ele>1569.548338</ele>
        <time>2013-07-14T13:13:23Z</time>
      </trkpt>
      <trkpt lat="45.08224" lon="6.05842">
        <ele>1571.947191</ele>
        <time>2013-07-14T13:13:28Z</time>
      </trkpt>
      <trkpt lat="45.08227" lon="6.05819">
        <ele>1573.432322</ele>
        <time>2013-07-14T13:13:33Z</time>
      </trkpt>
      <trkpt lat="45.08232" lon="6.05794">
        <ele>1570.549615</ele>
        <time>2013-07-14T13:13:38Z</time>
      </trkpt>
      <trkpt lat="45.08241" lon="6.05775">
        <ele>1565.870543</ele>
        <time>2013-07-14T13:13:43Z</time>
      </trkpt>
      <trkpt lat="45.0825" lon="6.05773">
        <ele>1562.160189</ele>
        <time>2013-07-14T13:13:48Z</time>
      </trkpt>
      <trkpt lat="45.08252" lon="6.05772">
        <ele>1562.097634</ele>
        <time>2013-07-14T13:13:53Z</time>
      </trkpt>
      <trkpt lat="45.08268" lon="6.0577">
        <ele>1558.423197</ele>
        <time>2013-07-14T13:13:58Z</time>
      </trkpt>
      <trkpt lat="45.08283" lon="6.0577">
        <ele>1561.943192</ele>
        <time>2013-07-14T13:14:03Z</time>
      </trkpt>
      <trkpt lat="45.08295" lon="6.05771">
        <ele>1559.884685</ele>
        <time>2013-07-14T13:14:08Z</time>
      </trkpt>
      <trkpt lat="45.08312" lon="6.05767">
        <ele>1566.715883</ele>
        <time>2013-07-14T13:14:13Z</time>
      </trkpt>
      <trkpt lat="45.08328" lon="6.05764">
        <ele>1571.428734</ele>
        <time>2013-07-14T13:14:18Z</time>
      </trkpt>
      <trkpt lat="45.08336" lon="6.05761">
        <ele>1570.539063</ele>
        <time>2013-07-14T13:14:23Z</time>
      </trkpt>
      <trkpt lat="45.08351" lon="6.05756">
        <ele>1568.822265</ele>
        <time>2013-07-14T13:14:28Z</time>
      </trkpt>
      <trkpt lat="45.0836" lon="6.05762">
        <ele>1569.870482</ele>
        <time>2013-07-14T13:14:33Z</time>
      </trkpt>
      <trkpt lat="45.08347" lon="6.05771">
        <ele>1573.9352</ele>
        <time>2013-07-14T13:14:38Z</time>
      </trkpt>
      <trkpt lat="45.0834" lon="6.05775">
        <ele>1577.725909</ele>
        <time>2013-07-14T13:14:43Z</time>
      </trkpt>
      <trkpt lat="45.08331" lon="6.05786">
        <ele>1582.659846</ele>
        <time>2013-07-14T13:14:48Z</time>
      </trkpt>
      <trkpt lat="45.08323" lon="6.05799">
        <ele>1583.449519</ele>
        <time>2013-07-14T13:14:53Z</time>
      </trkpt>
      <trkpt lat="45.08318" lon="6.05814">
        <ele>1585.027865</ele>
        <time>2013-07-14T13:14:58Z</time>
      </trkpt>
      <trkpt lat="45.08312" lon="6.05827">
        <ele>1580.88465</ele>
        <time>2013-07-14T13:15:03Z</time>
      </trkpt>
      <trkpt lat="45.08307" lon="6.05845">
        <ele>1581.909954</ele>
        <time>2013-07-14T13:15:08Z</time>
      </trkpt>
      <trkpt lat="45.08302" lon="6.0586">
        <ele>1586.383442</ele>
        <time>2013-07-14T13:15:13Z</time>
      </trkpt>
      <trkpt lat="45.08299" lon="6.05883">
        <ele>1589.831306</ele>
        <time>2013-07-14T13:15:18Z</time>
      </trkpt>
      <trkpt lat="45.08298" lon="6.05899">
        <ele>1592.918562</ele>
        <time>2013-07-14T13:15:23Z</time>
      </trkpt>
      <trkpt lat="45.083" lon="6.05921">
        <ele>1592.787289</ele>
        <time>2013-07-14T13:15:28Z</time>
      </trkpt>
      <trkpt lat="45.083" lon="6.05939">
        <ele>1592.426468</ele>
        <time>2013-07-14T13:15:33Z</time>
      </trkpt>
      <trkpt lat="45.08301" lon="6.05955">
        <ele>1594.10954</ele>
        <time>2013-07-14T13:15:38Z</time>
      </trkpt>
      <trkpt lat="45.08302" lon="6.05972">
        <ele>1595.792638</ele>
        <time>2013-07-14T13:15:43Z</time>
      </trkpt>
      <trkpt lat="45.08304" lon="6.05987">
        <ele>1596.699089</ele>
        <time>2013-07-14T13:15:48Z</time>
      </trkpt>
      <trkpt lat="45.08306" lon="6.06003">
        <ele>1598.313694</ele>
        <time>2013-07-14T13:15:53Z</time>
      </trkpt>
      <trkpt lat="45.08308" lon="6.06017">
        <ele>1600.555915</ele>
        <time>2013-07-14T13:15:58Z</time>
      </trkpt>
      <trkpt lat="45.0831" lon="6.06032">
        <ele>1602.872701</ele>
        <time>2013-07-14T13:16:03Z</time>
      </trkpt>
      <trkpt lat="45.08313" lon="6.06048">
        <ele>1603.785242</ele>
        <time>2013-07-14T13:16:08Z</time>
      </trkpt>
      <trkpt lat="45.08316" lon="6.06062">
        <ele>1605.331393</ele>
        <time>2013-07-14T13:16:13Z</time>
      </trkpt>
      <trkpt lat="45.08319" lon="6.06076">
        <ele>1607.579698</ele>
        <time>2013-07-14T13:16:18Z</time>
      </trkpt>
      <trkpt lat="45.08323" lon="6.06092">
        <ele>1609.200445</ele>
        <time>2013-07-14T13:16:23Z</time>
      </trkpt>
      <trkpt lat="45.08325" lon="6.06109">
        <ele>1610.25619</ele>
        <time>2013-07-14T13:16:28Z</time>
      </trkpt>
      <trkpt lat="45.08328" lon="6.06126">
        <ele>1610.541283</ele>
        <time>2013-07-14T13:16:33Z</time>
      </trkpt>
      <trkpt lat="45.08332" lon="6.06142">
        <ele>1613.572376</ele>
        <time>2013-07-14T13:16:38Z</time>
      </trkpt>
      <trkpt lat="45.08336" lon="6.06157">
        <ele>1615.901366</ele>
        <time>2013-07-14T13:16:43Z</time>
      </trkpt>
      <trkpt lat="45.08341" lon="6.06171">
        <ele>1617.379131</ele>
        <time>2013-07-14T13:16:48Z</time>
      </trkpt>
      <trkpt lat="45.08346" lon="6.06185">
        <ele>1618.223346</ele>
        <time>2013-07-14T13:16:53Z</time>
      </trkpt>
      <trkpt lat="45.08348" lon="6.06204">
        <ele>1618.651698</ele>
        <time>2013-07-14T13:16:58Z</time>
      </trkpt>
      <trkpt lat="45.08347" lon="6.06219">
        <ele>1620.956756</ele>
        <time>2013-07-14T13:17:03Z</time>
      </trkpt>
      <trkpt lat="45.08346" lon="6.06237">
        <ele>1619.180186</ele>
        <time>2013-07-14T13:17:08Z</time>
      </trkpt>
      <trkpt lat="45.08351" lon="6.06254">
        <ele>1620.881777</ele>
        <time>2013-07-14T13:17:13Z</time>
      </trkpt>
      <trkpt lat="45.08359" lon="6.06259">
        <ele>1621.147573</ele>
        <time>2013-07-14T13:17:18Z</time>
      </trkpt>
      <trkpt lat="45.08358" lon="6.06251">
        <ele>1619.985995</ele>
        <time>2013-07-14T13:17:23Z</time>
      </trkpt>
      <trkpt lat="45.08366" lon="6.06229">
        <ele>1616.561421</ele>
        <time>2013-07-14T13:17:28Z</time>
      </trkpt>
      <trkpt lat="45.08361" lon="6.0621">
        <ele>1618.941514</ele>
        <time>2013-07-14T13:17:33Z</time>
      </trkpt>
      <trkpt lat="45.08361" lon="6.0619">
        <ele>1619.929422</ele>
        <time>2013-07-14T13:17:38Z</time>
      </trkpt>
      <trkpt lat="45.0836" lon="6.06174">
        <ele>1620.364362</ele>
        <time>2013-07-14T13:17:43Z</time>
      </trkpt>
      <trkpt lat="45.08364" lon="6.06156">
        <ele>1620.742806</ele>
        <time>2013-07-14T13:17:48Z</time>
      </trkpt>
      <trkpt lat="45.08368" lon="6.06141">
        <ele>1623.3888</ele>
        <time>2013-07-14T13:17:53Z</time>
      </trkpt>
      <trkpt lat="45.08374" lon="6.06127">
        <ele>1624.711139</ele>
        <time>2013-07-14T13:17:58Z</time>
      </trkpt>
      <trkpt lat="45.08381" lon="6.06113">
        <ele>1624.548685</ele>
        <time>2013-07-14T13:18:03Z</time>
      </trkpt>
      <trkpt lat="45.08386" lon="6.06099">
        <ele>1625.865059</ele>
        <time>2013-07-14T13:18:08Z</time>
      </trkpt>
      <trkpt lat="45.08392" lon="6.06087">
        <ele>1626.553883</ele>
        <time>2013-07-14T13:18:13Z</time>
      </trkpt>
      <trkpt lat="45.08397" lon="6.06075">
        <ele>1626.534586</ele>
        <time>2013-07-14T13:18:18Z</time>
      </trkpt>
      <trkpt lat="45.08403" lon="6.06062">
        <ele>1627.931595</ele>
        <time>2013-07-14T13:18:23Z</time>
      </trkpt>
      <trkpt lat="45.08411" lon="6.0605">
        <ele>1630.042793</ele>
        <time>2013-07-14T13:18:28Z</time>
      </trkpt>
      <trkpt lat="45.08421" lon="6.06041">
        <ele>1630.898866</ele>
        <time>2013-07-14T13:18:33Z</time>
      </trkpt>
      <trkpt lat="45.08425" lon="6.06039">
        <ele>1632.886265</ele>
        <time>2013-07-14T13:18:38Z</time>
      </trkpt>
      <trkpt lat="45.08437" lon="6.06031">
        <ele>1633.828974</ele>
        <time>2013-07-14T13:18:43Z</time>
      </trkpt>
      <trkpt lat="45.08448" lon="6.06027">
        <ele>1634.989311</ele>
        <time>2013-07-14T13:18:48Z</time>
      </trkpt>
      <trkpt lat="45.08455" lon="6.06025">
        <ele>1635.578537</ele>
        <time>2013-07-14T13:18:53Z</time>
      </trkpt>
      <trkpt lat="45.08463" lon="6.06022">
        <ele>1635.391116</ele>
        <time>2013-07-14T13:18:58Z</time>
      </trkpt>
      <trkpt lat="45.08475" lon="6.06017">
        <ele>1635.780891</ele>
        <time>2013-07-14T13:19:03Z</time>
      </trkpt>
      <trkpt lat="45.08482" lon="6.06014">
        <ele>1634.885351</ele>
        <time>2013-07-14T13:19:08Z</time>
      </trkpt>
      <trkpt lat="45.08489" lon="6.06011">
        <ele>1636.810353</ele>
        <time>2013-07-14T13:19:13Z</time>
      </trkpt>
      <trkpt lat="45.08492" lon="6.06011">
        <ele>1635.412171</ele>
        <time>2013-07-14T13:19:18Z</time>
      </trkpt>
      <trkpt lat="45.08494" lon="6.06012">
        <ele>1634.013989</ele>
        <time>2013-07-14T13:19:28Z</time>
      </trkpt>
      <trkpt lat="45.08515" lon="6.06004">
        <ele>1642.752644</ele>
        <time>2013-07-14T13:19:33Z</time>
      </trkpt>
      <trkpt lat="45.08534" lon="6.0599">
        <ele>1651.820805</ele>
        <time>2013-07-14T13:19:38Z</time>
      </trkpt>
      <trkpt lat="45.08544" lon="6.05982">
        <ele>1654.87012</ele>
        <time>2013-07-14T13:19:43Z</time>
      </trkpt>
      <trkpt lat="45.08552" lon="6.05973">
        <ele>1659.317613</ele>
        <time>2013-07-14T13:19:48Z</time>
      </trkpt>
      <trkpt lat="45.08559" lon="6.05962">
        <ele>1666.436591</ele>
        <time>2013-07-14T13:19:53Z</time>
      </trkpt>
      <trkpt lat="45.08576" lon="6.05956">
        <ele>1661.837379</ele>
        <time>2013-07-14T13:19:58Z</time>
      </trkpt>
      <trkpt lat="45.08587" lon="6.05948">
        <ele>1662.774434</ele>
        <time>2013-07-14T13:20:03Z</time>
      </trkpt>
      <trkpt lat="45.08596" lon="6.05943">
        <ele>1660.325808</ele>
        <time>2013-07-14T13:20:08Z</time>
      </trkpt>
      <trkpt lat="45.08611" lon="6.05931">
        <ele>1653.229574</ele>
        <time>2013-07-14T13:20:13Z</time>
      </trkpt>
      <trkpt lat="45.08616" lon="6.05925">
        <ele>1654.993582</ele>
        <time>2013-07-14T13:20:18Z</time>
      </trkpt>
      <trkpt lat="45.08627" lon="6.05914">
        <ele>1655.005066</ele>
        <time>2013-07-14T13:20:23Z</time>
      </trkpt>
      <trkpt lat="45.08639" lon="6.05904">
        <ele>1654.389018</ele>
        <time>2013-07-14T13:20:28Z</time>
      </trkpt>
      <trkpt lat="45.08649" lon="6.05894">
        <ele>1655.953813</ele>
        <time>2013-07-14T13:20:33Z</time>
      </trkpt>
      <trkpt lat="45.08657" lon="6.05889">
        <ele>1657.027947</ele>
        <time>2013-07-14T13:20:38Z</time>
      </trkpt>
      <trkpt lat="45.08666" lon="6.05881">
        <ele>1658.661228</ele>
        <time>2013-07-14T13:20:43Z</time>
      </trkpt>
      <trkpt lat="45.08673" lon="6.05872">
        <ele>1658.878178</ele>
        <time>2013-07-14T13:20:48Z</time>
      </trkpt>
      <trkpt lat="45.0868" lon="6.05863">
        <ele>1661.132984</ele>
        <time>2013-07-14T13:20:53Z</time>
      </trkpt>
      <trkpt lat="45.08686" lon="6.05856">
        <ele>1661.418399</ele>
        <time>2013-07-14T13:20:58Z</time>
      </trkpt>
      <trkpt lat="45.08694" lon="6.05849">
        <ele>1663.120183</ele>
        <time>2013-07-14T13:21:03Z</time>
      </trkpt>
      <trkpt lat="45.08696" lon="6.05846">
        <ele>1662.983329</ele>
        <time>2013-07-14T13:21:08Z</time>
      </trkpt>
      <trkpt lat="45.08703" lon="6.05845">
        <ele>1660.752395</ele>
        <time>2013-07-14T13:21:13Z</time>
      </trkpt>
      <trkpt lat="45.08706" lon="6.05843">
        <ele>1660.615547</ele>
        <time>2013-07-14T13:21:18Z</time>
      </trkpt>
      <trkpt lat="45.08713" lon="6.05837">
        <ele>1661.683702</ele>
        <time>2013-07-14T13:21:23Z</time>
      </trkpt>
      <trkpt lat="45.08717" lon="6.05832">
        <ele>1659.993657</ele>
        <time>2013-07-14T13:21:28Z</time>
      </trkpt>
      <trkpt lat="45.08733" lon="6.05822">
        <ele>1663.627</ele>
        <time>2013-07-14T13:21:33Z</time>
      </trkpt>
      <trkpt lat="45.08757" lon="6.05804">
        <ele>1670.304166</ele>
        <time>2013-07-14T13:21:38Z</time>
      </trkpt>
      <trkpt lat="45.08769" lon="6.05793">
        <ele>1669.68853</ele>
        <time>2013-07-14T13:21:43Z</time>
      </trkpt>
      <trkpt lat="45.08778" lon="6.05784">
        <ele>1672.657838</ele>
        <time>2013-07-14T13:21:48Z</time>
      </trkpt>
      <trkpt lat="45.08788" lon="6.05771">
        <ele>1673.999492</ele>
        <time>2013-07-14T13:21:53Z</time>
      </trkpt>
      <trkpt lat="45.08797" lon="6.05756">
        <ele>1675.962641</ele>
        <time>2013-07-14T13:21:58Z</time>
      </trkpt>
      <trkpt lat="45.08806" lon="6.05744">
        <ele>1679.491217</ele>
        <time>2013-07-14T13:22:03Z</time>
      </trkpt>
      <trkpt lat="45.08815" lon="6.05728">
        <ele>1678.559394</ele>
        <time>2013-07-14T13:22:08Z</time>
      </trkpt>
      <trkpt lat="45.08824" lon="6.05716">
        <ele>1679.96957</ele>
        <time>2013-07-14T13:22:13Z</time>
      </trkpt>
      <trkpt lat="45.08831" lon="6.05704">
        <ele>1680.665459</ele>
        <time>2013-07-14T13:22:18Z</time>
      </trkpt>
      <trkpt lat="45.08836" lon="6.05689">
        <ele>1683.3186</ele>
        <time>2013-07-14T13:22:23Z</time>
      </trkpt>
      <trkpt lat="45.0884" lon="6.05673">
        <ele>1684.48088</ele>
        <time>2013-07-14T13:22:28Z</time>
      </trkpt>
      <trkpt lat="45.0884" lon="6.05654">
        <ele>1685.475835</ele>
        <time>2013-07-14T13:22:33Z</time>
      </trkpt>
      <trkpt lat="45.08835" lon="6.05638">
        <ele>1685.961607</ele>
        <time>2013-07-14T13:22:38Z</time>
      </trkpt>
      <trkpt lat="45.08829" lon="6.05622">
        <ele>1687.149486</ele>
        <time>2013-07-14T13:22:43Z</time>
      </trkpt>
      <trkpt lat="45.08824" lon="6.05609">
        <ele>1687.790411</ele>
        <time>2013-07-14T13:22:48Z</time>
      </trkpt>
      <trkpt lat="45.08819" lon="6.05594">
        <ele>1689.058949</ele>
        <time>2013-07-14T13:22:53Z</time>
      </trkpt>
      <trkpt lat="45.08825" lon="6.05592">
        <ele>1691.052919</ele>
        <time>2013-07-14T13:22:58Z</time>
      </trkpt>
      <trkpt lat="45.08832" lon="6.05601">
        <ele>1695.841843</ele>
        <time>2013-07-14T13:23:03Z</time>
      </trkpt>
      <trkpt lat="45.08841" lon="6.05609">
        <ele>1699.15215</ele>
        <time>2013-07-14T13:23:08Z</time>
      </trkpt>
      <trkpt lat="45.08849" lon="6.05614">
        <ele>1700.828747</ele>
        <time>2013-07-14T13:23:13Z</time>
      </trkpt>
      <trkpt lat="45.08857" lon="6.05618">
        <ele>1703.909505</ele>
        <time>2013-07-14T13:23:18Z</time>
      </trkpt>
      <trkpt lat="45.08866" lon="6.05623">
        <ele>1706.294333</ele>
        <time>2013-07-14T13:23:23Z</time>
      </trkpt>
      <trkpt lat="45.08876" lon="6.05629">
        <ele>1705.231056</ele>
        <time>2013-07-14T13:23:28Z</time>
      </trkpt>
      <trkpt lat="45.0889" lon="6.05639">
        <ele>1698.6941</ele>
        <time>2013-07-14T13:23:33Z</time>
      </trkpt>
      <trkpt lat="45.08901" lon="6.05647">
        <ele>1699.196266</ele>
        <time>2013-07-14T13:23:38Z</time>
      </trkpt>
      <trkpt lat="45.08906" lon="6.05662">
        <ele>1700.046357</ele>
        <time>2013-07-14T13:23:43Z</time>
      </trkpt>
      <trkpt lat="45.0891" lon="6.05679">
        <ele>1701.741387</ele>
        <time>2013-07-14T13:23:48Z</time>
      </trkpt>
      <trkpt lat="45.08912" lon="6.05697">
        <ele>1704.91507</ele>
        <time>2013-07-14T13:23:53Z</time>
      </trkpt>
      <trkpt lat="45.08914" lon="6.05714">
        <ele>1708.088785</ele>
        <time>2013-07-14T13:23:58Z</time>
      </trkpt>
      <trkpt lat="45.08917" lon="6.05731">
        <ele>1708.367493</ele>
        <time>2013-07-14T13:24:03Z</time>
      </trkpt>
      <trkpt lat="45.08917" lon="6.05748">
        <ele>1709.342148</ele>
        <time>2013-07-14T13:24:08Z</time>
      </trkpt>
      <trkpt lat="45.08919" lon="6.05763">
        <ele>1710.24847</ele>
        <time>2013-07-14T13:24:13Z</time>
      </trkpt>
      <trkpt lat="45.08921" lon="6.05777">
        <ele>1711.08031</ele>
        <time>2013-07-14T13:24:18Z</time>
      </trkpt>
      <trkpt lat="45.0892" lon="6.0579">
        <ele>1710.415104</ele>
        <time>2013-07-14T13:24:23Z</time>
      </trkpt>
      <trkpt lat="45.08918" lon="6.05805">
        <ele>1711.303057</ele>
        <time>2013-07-14T13:24:28Z</time>
      </trkpt>
      <trkpt lat="45.08916" lon="6.0582">
        <ele>1712.899238</ele>
        <time>2013-07-14T13:24:33Z</time>
      </trkpt>
      <trkpt lat="45.08913" lon="6.05834">
        <ele>1716.527115</ele>
        <time>2013-07-14T13:24:38Z</time>
      </trkpt>
      <trkpt lat="45.0891" lon="6.05847">
        <ele>1720.863218</ele>
        <time>2013-07-14T13:24:43Z</time>
      </trkpt>
      <trkpt lat="45.08907" lon="6.05862">
        <ele>1723.155382</ele>
        <time>2013-07-14T13:24:48Z</time>
      </trkpt>
      <trkpt lat="45.08904" lon="6.05878">
        <ele>1724.111819</ele>
        <time>2013-07-14T13:24:53Z</time>
      </trkpt>
      <trkpt lat="45.08899" lon="6.05891">
        <ele>1726.323371</ele>
        <time>2013-07-14T13:24:58Z</time>
      </trkpt>
      <trkpt lat="45.08893" lon="6.05906">
        <ele>1728.603326</ele>
        <time>2013-07-14T13:25:03Z</time>
      </trkpt>
      <trkpt lat="45.08891" lon="6.05921">
        <ele>1728.783254</ele>
        <time>2013-07-14T13:25:08Z</time>
      </trkpt>
      <trkpt lat="45.08886" lon="6.05938">
        <ele>1731.926652</ele>
        <time>2013-07-14T13:25:13Z</time>
      </trkpt>
      <trkpt lat="45.08882" lon="6.05951">
        <ele>1735.548564</ele>
        <time>2013-07-14T13:25:18Z</time>
      </trkpt>
      <trkpt lat="45.08878" lon="6.05968">
        <ele>1737.989954</ele>
        <time>2013-07-14T13:25:23Z</time>
      </trkpt>
      <trkpt lat="45.08875" lon="6.05986">
        <ele>1739.021109</ele>
        <time>2013-07-14T13:25:28Z</time>
      </trkpt>
      <trkpt lat="45.08871" lon="6.06002">
        <ele>1738.567496</ele>
        <time>2013-07-14T13:25:33Z</time>
      </trkpt>
      <trkpt lat="45.08867" lon="6.06016">
        <ele>1737.958705</ele>
        <time>2013-07-14T13:25:38Z</time>
      </trkpt>
      <trkpt lat="45.0886" lon="6.06034">
        <ele>1739.754285</ele>
        <time>2013-07-14T13:25:43Z</time>
      </trkpt>
      <trkpt lat="45.08868" lon="6.06049">
        <ele>1739.908948</ele>
        <time>2013-07-14T13:25:48Z</time>
      </trkpt>
      <trkpt lat="45.08877" lon="6.06046">
        <ele>1739.728284</ele>
        <time>2013-07-14T13:25:53Z</time>
      </trkpt>
      <trkpt lat="45.08887" lon="6.06034">
        <ele>1739.734074</ele>
        <time>2013-07-14T13:25:58Z</time>
      </trkpt>
      <trkpt lat="45.08896" lon="6.06024">
        <ele>1736.285697</ele>
        <time>2013-07-14T13:26:03Z</time>
      </trkpt>
      <trkpt lat="45.08908" lon="6.06015">
        <ele>1737.857029</ele>
        <time>2013-07-14T13:26:08Z</time>
      </trkpt>
      <trkpt lat="45.08911" lon="6.0601">
        <ele>1738.981447</ele>
        <time>2013-07-14T13:26:13Z</time>
      </trkpt>
      <trkpt lat="45.08919" lon="6.06001">
        <ele>1740.540528</ele>
        <time>2013-07-14T13:26:18Z</time>
      </trkpt>
      <trkpt lat="45.08936" lon="6.0599">
        <ele>1737.756673</ele>
        <time>2013-07-14T13:26:23Z</time>
      </trkpt>
      <trkpt lat="45.08949" lon="6.05979">
        <ele>1740.670013</ele>
        <time>2013-07-14T13:26:28Z</time>
      </trkpt>
      <trkpt lat="45.08959" lon="6.0597">
        <ele>1742.235343</ele>
        <time>2013-07-14T13:26:33Z</time>
      </trkpt>
      <trkpt lat="45.08966" lon="6.05962">
        <ele>1745.273179</ele>
        <time>2013-07-14T13:26:38Z</time>
      </trkpt>
      <trkpt lat="45.08974" lon="6.05952">
        <ele>1746.124185</ele>
        <time>2013-07-14T13:26:43Z</time>
      </trkpt>
      <trkpt lat="45.08982" lon="6.05941">
        <ele>1747.602741</ele>
        <time>2013-07-14T13:26:48Z</time>
      </trkpt>
      <trkpt lat="45.08989" lon="6.05929">
        <ele>1754.647864</ele>
        <time>2013-07-14T13:26:53Z</time>
      </trkpt>
      <trkpt lat="45.09004" lon="6.05911">
        <ele>1752.889635</ele>
        <time>2013-07-14T13:26:58Z</time>
      </trkpt>
      <trkpt lat="45.09012" lon="6.05901">
        <ele>1752.25596</ele>
        <time>2013-07-14T13:27:03Z</time>
      </trkpt>
      <trkpt lat="45.09023" lon="6.05887">
        <ele>1750.00083</ele>
        <time>2013-07-14T13:27:08Z</time>
      </trkpt>
      <trkpt lat="45.09029" lon="6.05878">
        <ele>1750.212118</ele>
        <time>2013-07-14T13:27:13Z</time>
      </trkpt>
      <trkpt lat="45.09035" lon="6.05871">
        <ele>1750.497936</ele>
        <time>2013-07-14T13:27:18Z</time>
      </trkpt>
      <trkpt lat="45.09039" lon="6.05866">
        <ele>1750.143884</ele>
        <time>2013-07-14T13:27:23Z</time>
      </trkpt>
      <trkpt lat="45.09044" lon="6.05857">
        <ele>1750.349033</ele>
        <time>2013-07-14T13:27:28Z</time>
      </trkpt>
      <trkpt lat="45.09053" lon="6.05843">
        <ele>1748.789897</ele>
        <time>2013-07-14T13:27:33Z</time>
      </trkpt>
      <trkpt lat="45.09062" lon="6.0583">
        <ele>1748.715575</ele>
        <time>2013-07-14T13:27:38Z</time>
      </trkpt>
      <trkpt lat="45.0907" lon="6.05813">
        <ele>1753.418937</ele>
        <time>2013-07-14T13:27:43Z</time>
      </trkpt>
      <trkpt lat="45.09078" lon="6.05801">
        <ele>1756.941767</ele>
        <time>2013-07-14T13:27:48Z</time>
      </trkpt>
      <trkpt lat="45.09085" lon="6.0579">
        <ele>1759.830903</ele>
        <time>2013-07-14T13:27:53Z</time>
      </trkpt>
      <trkpt lat="45.09092" lon="6.05778">
        <ele>1761.93733</ele>
        <time>2013-07-14T13:27:58Z</time>
      </trkpt>
      <trkpt lat="45.091" lon="6.05765">
        <ele>1761.85697</ele>
        <time>2013-07-14T13:28:03Z</time>
      </trkpt>
      <trkpt lat="45.0911" lon="6.05749">
        <ele>1763.752329</ele>
        <time>2013-07-14T13:28:08Z</time>
      </trkpt>
      <trkpt lat="45.09117" lon="6.05733">
        <ele>1765.635345</ele>
        <time>2013-07-14T13:28:13Z</time>
      </trkpt>
      <trkpt lat="45.09124" lon="6.05715">
        <ele>1765.250903</ele>
        <time>2013-07-14T13:28:18Z</time>
      </trkpt>
      <trkpt lat="45.09131" lon="6.05694">
        <ele>1766.836021</ele>
        <time>2013-07-14T13:28:23Z</time>
      </trkpt>
      <trkpt lat="45.09136" lon="6.05676">
        <ele>1766.513766</ele>
        <time>2013-07-14T13:28:28Z</time>
      </trkpt>
      <trkpt lat="45.09141" lon="6.05663">
        <ele>1767.12944</ele>
        <time>2013-07-14T13:28:33Z</time>
      </trkpt>
      <trkpt lat="45.09145" lon="6.05649">
        <ele>1766.32247</ele>
        <time>2013-07-14T13:28:38Z</time>
      </trkpt>
      <trkpt lat="45.09144" lon="6.05632">
        <ele>1766.049992</ele>
        <time>2013-07-14T13:28:43Z</time>
      </trkpt>
      <trkpt lat="45.09144" lon="6.05611">
        <ele>1766.896081</ele>
        <time>2013-07-14T13:28:48Z</time>
      </trkpt>
      <trkpt lat="45.09143" lon="6.05591">
        <ele>1768.587014</ele>
        <time>2013-07-14T13:28:53Z</time>
      </trkpt>
      <trkpt lat="45.09141" lon="6.05571">
        <ele>1768.793236</ele>
        <time>2013-07-14T13:28:58Z</time>
      </trkpt>
      <trkpt lat="45.0914" lon="6.05551">
        <ele>1771.19248</ele>
        <time>2013-07-14T13:29:03Z</time>
      </trkpt>
      <trkpt lat="45.09151" lon="6.05548">
        <ele>1775.249448</ele>
        <time>2013-07-14T13:29:08Z</time>
      </trkpt>
      <trkpt lat="45.09156" lon="6.05562">
        <ele>1777.509943</ele>
        <time>2013-07-14T13:29:13Z</time>
      </trkpt>
      <trkpt lat="45.09159" lon="6.05575">
        <ele>1779.683584</ele>
        <time>2013-07-14T13:29:18Z</time>
      </trkpt>
      <trkpt lat="45.09158" lon="6.05592">
        <ele>1782.062079</ele>
        <time>2013-07-14T13:29:23Z</time>
      </trkpt>
      <trkpt lat="45.0916" lon="6.05606">
        <ele>1782.893766</ele>
        <time>2013-07-14T13:29:28Z</time>
      </trkpt>
      <trkpt lat="45.09164" lon="6.0562">
        <ele>1784.439913</ele>
        <time>2013-07-14T13:29:33Z</time>
      </trkpt>
      <trkpt lat="45.09168" lon="6.05633">
        <ele>1785.209564</ele>
        <time>2013-07-14T13:29:38Z</time>
      </trkpt>
      <trkpt lat="45.09172" lon="6.05648">
        <ele>1786.755755</ele>
        <time>2013-07-14T13:29:43Z</time>
      </trkpt>
      <trkpt lat="45.09177" lon="6.05662">
        <ele>1786.897903</ele>
        <time>2013-07-14T13:29:48Z</time>
      </trkpt>
      <trkpt lat="45.09181" lon="6.05679">
        <ele>1787.182849</ele>
        <time>2013-07-14T13:29:53Z</time>
      </trkpt>
      <trkpt lat="45.09183" lon="6.05694">
        <ele>1788.797396</ele>
        <time>2013-07-14T13:29:58Z</time>
      </trkpt>
      <trkpt lat="45.09184" lon="6.05714">
        <ele>1790.62924</ele>
        <time>2013-07-14T13:30:03Z</time>
      </trkpt>
      <trkpt lat="45.09183" lon="6.05731">
        <ele>1793.082445</ele>
        <time>2013-07-14T13:30:08Z</time>
      </trkpt>
      <trkpt lat="45.0918" lon="6.05745">
        <ele>1796.008007</ele>
        <time>2013-07-14T13:30:13Z</time>
      </trkpt>
      <trkpt lat="45.09177" lon="6.0576">
        <ele>1799.784619</ele>
        <time>2013-07-14T13:30:18Z</time>
      </trkpt>
      <trkpt lat="45.09175" lon="6.05777">
        <ele>1801.455164</ele>
        <time>2013-07-14T13:30:23Z</time>
      </trkpt>
      <trkpt lat="45.09173" lon="6.05794">
        <ele>1802.492002</ele>
        <time>2013-07-14T13:30:28Z</time>
      </trkpt>
      <trkpt lat="45.0917" lon="6.05809">
        <ele>1804.78392</ele>
        <time>2013-07-14T13:30:33Z</time>
      </trkpt>
      <trkpt lat="45.09168" lon="6.05821">
        <ele>1809.051558</ele>
        <time>2013-07-14T13:30:38Z</time>
      </trkpt>
      <trkpt lat="45.09165" lon="6.05836">
        <ele>1814.164055</ele>
        <time>2013-07-14T13:30:43Z</time>
      </trkpt>
      <trkpt lat="45.09164" lon="6.05853">
        <ele>1815.909234</ele>
        <time>2013-07-14T13:30:48Z</time>
      </trkpt>
      <trkpt lat="45.09161" lon="6.05871">
        <ele>1817.648239</ele>
        <time>2013-07-14T13:30:53Z</time>
      </trkpt>
      <trkpt lat="45.09158" lon="6.0589">
        <ele>1817.349491</ele>
        <time>2013-07-14T13:30:58Z</time>
      </trkpt>
      <trkpt lat="45.09159" lon="6.05906">
        <ele>1815.503884</ele>
        <time>2013-07-14T13:31:03Z</time>
      </trkpt>
      <trkpt lat="45.09159" lon="6.05925">
        <ele>1810.912291</ele>
        <time>2013-07-14T13:31:08Z</time>
      </trkpt>
      <trkpt lat="45.09155" lon="6.05938">
        <ele>1813.831914</ele>
        <time>2013-07-14T13:31:13Z</time>
      </trkpt>
      <trkpt lat="45.09151" lon="6.0595">
        <ele>1817.379065</ele>
        <time>2013-07-14T13:31:18Z</time>
      </trkpt>
      <trkpt lat="45.09149" lon="6.05964">
        <ele>1818.900867</ele>
        <time>2013-07-14T13:31:23Z</time>
      </trkpt>
      <trkpt lat="45.09147" lon="6.05981">
        <ele>1820.640066</ele>
        <time>2013-07-14T13:31:28Z</time>
      </trkpt>
      <trkpt lat="45.09144" lon="6.06">
        <ele>1821.04356</ele>
        <time>2013-07-14T13:31:33Z</time>
      </trkpt>
      <trkpt lat="45.0914" lon="6.06016">
        <ele>1822.000058</ele>
        <time>2013-07-14T13:31:38Z</time>
      </trkpt>
      <trkpt lat="45.09137" lon="6.06034">
        <ele>1822.329085</ele>
        <time>2013-07-14T13:31:43Z</time>
      </trkpt>
      <trkpt lat="45.09134" lon="6.0605">
        <ele>1824.695905</ele>
        <time>2013-07-14T13:31:48Z</time>
      </trkpt>
      <trkpt lat="45.0913" lon="6.06071">
        <ele>1823.13011</ele>
        <time>2013-07-14T13:31:53Z</time>
      </trkpt>
      <trkpt lat="45.09134" lon="6.06087">
        <ele>1819.110361</ele>
        <time>2013-07-14T13:31:58Z</time>
      </trkpt>
      <trkpt lat="45.09131" lon="6.06098">
        <ele>1820.477065</ele>
        <time>2013-07-14T13:32:03Z</time>
      </trkpt>
      <trkpt lat="45.09126" lon="6.06113">
        <ele>1822.055014</ele>
        <time>2013-07-14T13:32:08Z</time>
      </trkpt>
      <trkpt lat="45.09123" lon="6.06129">
        <ele>1824.421965</ele>
        <time>2013-07-14T13:32:13Z</time>
      </trkpt>
      <trkpt lat="45.09118" lon="6.06141">
        <ele>1828.671399</ele>
        <time>2013-07-14T13:32:18Z</time>
      </trkpt>
      <trkpt lat="45.09109" lon="6.06151">
        <ele>1832.12568</ele>
        <time>2013-07-14T13:32:23Z</time>
      </trkpt>
      <trkpt lat="45.09103" lon="6.06168">
        <ele>1834.554862</ele>
        <time>2013-07-14T13:32:28Z</time>
      </trkpt>
      <trkpt lat="45.09097" lon="6.06184">
        <ele>1837.611562</ele>
        <time>2013-07-14T13:32:33Z</time>
      </trkpt>
      <trkpt lat="45.09091" lon="6.06199">
        <ele>1841.376521</ele>
        <time>2013-07-14T13:32:38Z</time>
      </trkpt>
      <trkpt lat="45.09087" lon="6.06217">
        <ele>1843.818187</ele>
        <time>2013-07-14T13:32:43Z</time>
      </trkpt>
      <trkpt lat="45.09086" lon="6.06233">
        <ele>1845.489479</ele>
        <time>2013-07-14T13:32:48Z</time>
      </trkpt>
      <trkpt lat="45.09084" lon="6.06259">
        <ele>1840.631416</ele>
        <time>2013-07-14T13:32:53Z</time>
      </trkpt>
      <trkpt lat="45.09082" lon="6.06275">
        <ele>1840.184286</ele>
        <time>2013-07-14T13:32:58Z</time>
      </trkpt>
      <trkpt lat="45.09079" lon="6.0629">
        <ele>1838.954391</ele>
        <time>2013-07-14T13:33:03Z</time>
      </trkpt>
      <trkpt lat="45.09075" lon="6.06305">
        <ele>1839.128592</ele>
        <time>2013-07-14T13:33:08Z</time>
      </trkpt>
      <trkpt lat="45.09073" lon="6.06316">
        <ele>1842.614047</ele>
        <time>2013-07-14T13:33:13Z</time>
      </trkpt>
      <trkpt lat="45.09069" lon="6.06331">
        <ele>1845.608814</ele>
        <time>2013-07-14T13:33:18Z</time>
      </trkpt>
      <trkpt lat="45.09065" lon="6.06343">
        <ele>1847.044196</ele>
        <time>2013-07-14T13:33:23Z</time>
      </trkpt>
      <trkpt lat="45.09061" lon="6.06363">
        <ele>1848.927046</ele>
        <time>2013-07-14T13:33:28Z</time>
      </trkpt>
      <trkpt lat="45.09063" lon="6.06383">
        <ele>1848.722386</ele>
        <time>2013-07-14T13:33:33Z</time>
      </trkpt>
      <trkpt lat="45.0906" lon="6.06401">
        <ele>1849.760305</ele>
        <time>2013-07-14T13:33:38Z</time>
      </trkpt>
      <trkpt lat="45.09054" lon="6.06417">
        <ele>1851.407151</ele>
        <time>2013-07-14T13:33:43Z</time>
      </trkpt>
      <trkpt lat="45.0905" lon="6.06432">
        <ele>1852.289777</ele>
        <time>2013-07-14T13:33:48Z</time>
      </trkpt>
      <trkpt lat="45.09046" lon="6.06442">
        <ele>1858.583528</ele>
        <time>2013-07-14T13:33:53Z</time>
      </trkpt>
      <trkpt lat="45.09043" lon="6.06465">
        <ele>1859.211683</ele>
        <time>2013-07-14T13:33:58Z</time>
      </trkpt>
      <trkpt lat="45.09038" lon="6.06489">
        <ele>1852.856998</ele>
        <time>2013-07-14T13:34:03Z</time>
      </trkpt>
      <trkpt lat="45.09039" lon="6.0651">
        <ele>1852.646401</ele>
        <time>2013-07-14T13:34:08Z</time>
      </trkpt>
      <trkpt lat="45.09042" lon="6.06526">
        <ele>1857.163424</ele>
        <time>2013-07-14T13:34:13Z</time>
      </trkpt>
      <trkpt lat="45.09045" lon="6.0653">
        <ele>1849.571651</ele>
        <time>2013-07-14T13:34:18Z</time>
      </trkpt>
      <trkpt lat="45.0905" lon="6.06526">
        <ele>1840.128231</ele>
        <time>2013-07-14T13:34:23Z</time>
      </trkpt>
      <trkpt lat="45.09058" lon="6.06523">
        <ele>1839.941568</ele>
        <time>2013-07-14T13:34:28Z</time>
      </trkpt>
      <trkpt lat="45.09077" lon="6.06516">
        <ele>1849.458673</ele>
        <time>2013-07-14T13:34:33Z</time>
      </trkpt>
      <trkpt lat="45.09098" lon="6.06524">
        <ele>1843.513106</ele>
        <time>2013-07-14T13:34:38Z</time>
      </trkpt>
      <trkpt lat="45.09102" lon="6.06513">
        <ele>1847.793165</ele>
        <time>2013-07-14T13:34:43Z</time>
      </trkpt>
      <trkpt lat="45.09108" lon="6.06504">
        <ele>1858.58409</ele>
        <time>2013-07-14T13:34:48Z</time>
      </trkpt>
      <trkpt lat="45.09115" lon="6.06481">
        <ele>1862.907302</ele>
        <time>2013-07-14T13:34:53Z</time>
      </trkpt>
      <trkpt lat="45.09121" lon="6.06451">
        <ele>1861.142015</ele>
        <time>2013-07-14T13:34:58Z</time>
      </trkpt>
      <trkpt lat="45.09131" lon="6.06424">
        <ele>1860.246628</ele>
        <time>2013-07-14T13:35:03Z</time>
      </trkpt>
      <trkpt lat="45.09137" lon="6.06406">
        <ele>1864.160127</ele>
        <time>2013-07-14T13:35:08Z</time>
      </trkpt>
      <trkpt lat="45.09146" lon="6.06389">
        <ele>1865.271763</ele>
        <time>2013-07-14T13:35:13Z</time>
      </trkpt>
      <trkpt lat="45.09157" lon="6.0637">
        <ele>1862.717954</ele>
        <time>2013-07-14T13:35:18Z</time>
      </trkpt>
      <trkpt lat="45.09166" lon="6.06351">
        <ele>1860.860016</ele>
        <time>2013-07-14T13:35:23Z</time>
      </trkpt>
      <trkpt lat="45.09178" lon="6.0633">
        <ele>1858.157182</ele>
        <time>2013-07-14T13:35:28Z</time>
      </trkpt>
      <trkpt lat="45.09186" lon="6.06311">
        <ele>1857.777971</ele>
        <time>2013-07-14T13:35:33Z</time>
      </trkpt>
      <trkpt lat="45.09194" lon="6.06292">
        <ele>1855.913977</ele>
        <time>2013-07-14T13:35:38Z</time>
      </trkpt>
      <trkpt lat="45.09204" lon="6.06269">
        <ele>1857.361333</ele>
        <time>2013-07-14T13:35:43Z</time>
      </trkpt>
      <trkpt lat="45.09213" lon="6.0625">
        <ele>1859.100776</ele>
        <time>2013-07-14T13:35:48Z</time>
      </trkpt>
      <trkpt lat="45.09223" lon="6.06236">
        <ele>1858.957881</ele>
        <time>2013-07-14T13:35:53Z</time>
      </trkpt>
      <trkpt lat="45.09234" lon="6.06221">
        <ele>1859.448716</ele>
        <time>2013-07-14T13:35:58Z</time>
      </trkpt>
      <trkpt lat="45.09246" lon="6.06212">
        <ele>1858.908335</ele>
        <time>2013-07-14T13:36:03Z</time>
      </trkpt>
      <trkpt lat="45.09257" lon="6.06195">
        <ele>1856.504176</ele>
        <time>2013-07-14T13:36:08Z</time>
      </trkpt>
      <trkpt lat="45.09266" lon="6.06172">
        <ele>1856.535377</ele>
        <time>2013-07-14T13:36:13Z</time>
      </trkpt>
      <trkpt lat="45.09272" lon="6.06153">
        <ele>1859.672888</ele>
        <time>2013-07-14T13:36:18Z</time>
      </trkpt>
      <trkpt lat="45.09278" lon="6.06133">
        <ele>1861.325632</ele>
        <time>2013-07-14T13:36:23Z</time>
      </trkpt>
      <trkpt lat="45.09285" lon="6.06141">
        <ele>1866.743136</ele>
        <time>2013-07-14T13:36:28Z</time>
      </trkpt>
      <trkpt lat="45.09279" lon="6.06154">
        <ele>1871.768984</ele>
        <time>2013-07-14T13:36:33Z</time>
      </trkpt>
      <trkpt lat="45.0927" lon="6.06173">
        <ele>1877.155127</ele>
        <time>2013-07-14T13:36:38Z</time>
      </trkpt>
      <trkpt lat="45.09263" lon="6.06191">
        <ele>1880.360724</ele>
        <time>2013-07-14T13:36:43Z</time>
      </trkpt>
      <trkpt lat="45.09258" lon="6.06207">
        <ele>1886.244014</ele>
        <time>2013-07-14T13:36:48Z</time>
      </trkpt>
      <trkpt lat="45.09258" lon="6.06228">
        <ele>1886.10742</ele>
        <time>2013-07-14T13:36:53Z</time>
      </trkpt>
      <trkpt lat="45.09253" lon="6.06246">
        <ele>1890.729625</ele>
        <time>2013-07-14T13:36:58Z</time>
      </trkpt>
      <trkpt lat="45.09247" lon="6.06266">
        <ele>1898.246955</ele>
        <time>2013-07-14T13:37:03Z</time>
      </trkpt>
      <trkpt lat="45.09246" lon="6.06287">
        <ele>1899.514515</ele>
        <time>2013-07-14T13:37:08Z</time>
      </trkpt>
      <trkpt lat="45.09247" lon="6.06308">
        <ele>1902.906862</ele>
        <time>2013-07-14T13:37:13Z</time>
      </trkpt>
      <trkpt lat="45.09248" lon="6.06336">
        <ele>1898.844206</ele>
        <time>2013-07-14T13:37:18Z</time>
      </trkpt>
      <trkpt lat="45.09254" lon="6.06355">
        <ele>1893.576302</ele>
        <time>2013-07-14T13:37:23Z</time>
      </trkpt>
      <trkpt lat="45.09259" lon="6.06376">
        <ele>1890.569864</ele>
        <time>2013-07-14T13:37:28Z</time>
      </trkpt>
      <trkpt lat="45.09264" lon="6.06399">
        <ele>1884.817529</ele>
        <time>2013-07-14T13:37:33Z</time>
      </trkpt>
      <trkpt lat="45.09267" lon="6.06424">
        <ele>1882.022455</ele>
        <time>2013-07-14T13:37:38Z</time>
      </trkpt>
      <trkpt lat="45.09265" lon="6.06446">
        <ele>1882.656675</ele>
        <time>2013-07-14T13:37:43Z</time>
      </trkpt>
      <trkpt lat="45.09272" lon="6.06468">
        <ele>1882.477197</ele>
        <time>2013-07-14T13:37:48Z</time>
      </trkpt>
      <trkpt lat="45.09276" lon="6.06495">
        <ele>1883.36648</ele>
        <time>2013-07-14T13:37:53Z</time>
      </trkpt>
      <trkpt lat="45.0928" lon="6.06519">
        <ele>1884.106655</ele>
        <time>2013-07-14T13:37:58Z</time>
      </trkpt>
      <trkpt lat="45.09285" lon="6.06544">
        <ele>1883.436633</ele>
        <time>2013-07-14T13:38:03Z</time>
      </trkpt>
      <trkpt lat="45.09288" lon="6.06568">
        <ele>1884.096091</ele>
        <time>2013-07-14T13:38:08Z</time>
      </trkpt>
      <trkpt lat="45.09292" lon="6.06591">
        <ele>1888.284373</ele>
        <time>2013-07-14T13:38:13Z</time>
      </trkpt>
      <trkpt lat="45.09296" lon="6.06611">
        <ele>1892.323503</ele>
        <time>2013-07-14T13:38:18Z</time>
      </trkpt>
      <trkpt lat="45.09295" lon="6.06634">
        <ele>1894.374631</ele>
        <time>2013-07-14T13:38:23Z</time>
      </trkpt>
      <trkpt lat="45.09295" lon="6.06658">
        <ele>1895.798413</ele>
        <time>2013-07-14T13:38:28Z</time>
      </trkpt>
      <trkpt lat="45.093" lon="6.06681">
        <ele>1897.172637</ele>
        <time>2013-07-14T13:38:33Z</time>
      </trkpt>
      <trkpt lat="45.09307" lon="6.06709">
        <ele>1895.9565</ele>
        <time>2013-07-14T13:38:38Z</time>
      </trkpt>
      <trkpt lat="45.09317" lon="6.06726">
        <ele>1890.558882</ele>
        <time>2013-07-14T13:38:43Z</time>
      </trkpt>
      <trkpt lat="45.09323" lon="6.0674">
        <ele>1890.708949</ele>
        <time>2013-07-14T13:38:48Z</time>
      </trkpt>
      <trkpt lat="45.09328" lon="6.06755">
        <ele>1891.561044</ele>
        <time>2013-07-14T13:38:53Z</time>
      </trkpt>
      <trkpt lat="45.09327" lon="6.0677">
        <ele>1891.748238</ele>
        <time>2013-07-14T13:38:58Z</time>
      </trkpt>
      <trkpt lat="45.09319" lon="6.06786">
        <ele>1890.56854</ele>
        <time>2013-07-14T13:39:03Z</time>
      </trkpt>
      <trkpt lat="45.09316" lon="6.06804">
        <ele>1890.190523</ele>
        <time>2013-07-14T13:39:08Z</time>
      </trkpt>
      <trkpt lat="45.09312" lon="6.0682">
        <ele>1888.327654</ele>
        <time>2013-07-14T13:39:13Z</time>
      </trkpt>
      <trkpt lat="45.09301" lon="6.06836">
        <ele>1884.308787</ele>
        <time>2013-07-14T13:39:18Z</time>
      </trkpt>
      <trkpt lat="45.09298" lon="6.06853">
        <ele>1884.63912</ele>
        <time>2013-07-14T13:39:23Z</time>
      </trkpt>
      <trkpt lat="45.09301" lon="6.0686">
        <ele>1884.322787</ele>
        <time>2013-07-14T13:39:28Z</time>
      </trkpt>
      <trkpt lat="45.09307" lon="6.06861">
        <ele>1885.764307</ele>
        <time>2013-07-14T13:39:33Z</time>
      </trkpt>
      <trkpt lat="45.0932" lon="6.06861">
        <ele>1885.050228</ele>
        <time>2013-07-14T13:39:38Z</time>
      </trkpt>
      <trkpt lat="45.09331" lon="6.06867">
        <ele>1887.517341</ele>
        <time>2013-07-14T13:39:43Z</time>
      </trkpt>
      <trkpt lat="45.0934" lon="6.06878">
        <ele>1890.276754</ele>
        <time>2013-07-14T13:39:48Z</time>
      </trkpt>
      <trkpt lat="45.09344" lon="6.06892">
        <ele>1893.943308</ele>
        <time>2013-07-14T13:39:53Z</time>
      </trkpt>
      <trkpt lat="45.09346" lon="6.06913">
        <ele>1897.343192</ele>
        <time>2013-07-14T13:39:58Z</time>
      </trkpt>
      <trkpt lat="45.09346" lon="6.06918">
        <ele>1900.462259</ele>
        <time>2013-07-14T13:40:03Z</time>
      </trkpt>
      <trkpt lat="45.09339" lon="6.06936">
        <ele>1903.669068</ele>
        <time>2013-07-14T13:40:08Z</time>
      </trkpt>
      <trkpt lat="45.09335" lon="6.06957">
        <ele>1911.268493</ele>
        <time>2013-07-14T13:40:13Z</time>
      </trkpt>
      <trkpt lat="45.09328" lon="6.06975">
        <ele>1913.065131</ele>
        <time>2013-07-14T13:40:18Z</time>
      </trkpt>
      <trkpt lat="45.09321" lon="6.06998">
        <ele>1915.160409</ele>
        <time>2013-07-14T13:40:23Z</time>
      </trkpt>
      <trkpt lat="45.09322" lon="6.07026">
        <ele>1903.340077</ele>
        <time>2013-07-14T13:40:28Z</time>
      </trkpt>
      <trkpt lat="45.09317" lon="6.07049">
        <ele>1903.963088</ele>
        <time>2013-07-14T13:40:33Z</time>
      </trkpt>
      <trkpt lat="45.09322" lon="6.07075">
        <ele>1901.958779</ele>
        <time>2013-07-14T13:40:38Z</time>
      </trkpt>
      <trkpt lat="45.09335" lon="6.07095">
        <ele>1898.84215</ele>
        <time>2013-07-14T13:40:43Z</time>
      </trkpt>
      <trkpt lat="45.09348" lon="6.07114">
        <ele>1897.135842</ele>
        <time>2013-07-14T13:40:48Z</time>
      </trkpt>
      <trkpt lat="45.09363" lon="6.07129">
        <ele>1895.143483</ele>
        <time>2013-07-14T13:40:53Z</time>
      </trkpt>
      <trkpt lat="45.09381" lon="6.07132">
        <ele>1895.305976</ele>
        <time>2013-07-14T13:40:58Z</time>
      </trkpt>
      <trkpt lat="45.09397" lon="6.07128">
        <ele>1898.611413</ele>
        <time>2013-07-14T13:41:03Z</time>
      </trkpt>
      <trkpt lat="45.09413" lon="6.07121">
        <ele>1898.16414</ele>
        <time>2013-07-14T13:41:08Z</time>
      </trkpt>
      <trkpt lat="45.09431" lon="6.07111">
        <ele>1899.692404</ele>
        <time>2013-07-14T13:41:13Z</time>
      </trkpt>
      <trkpt lat="45.09448" lon="6.07104">
        <ele>1903.482292</ele>
        <time>2013-07-14T13:41:18Z</time>
      </trkpt>
      <trkpt lat="45.09467" lon="6.07097">
        <ele>1902.345803</ele>
        <time>2013-07-14T13:41:23Z</time>
      </trkpt>
      <trkpt lat="45.09482" lon="6.07091">
        <ele>1905.495902</ele>
        <time>2013-07-14T13:41:28Z</time>
      </trkpt>
      <trkpt lat="45.09495" lon="6.07086">
        <ele>1905.8939</ele>
        <time>2013-07-14T13:41:33Z</time>
      </trkpt>
      <trkpt lat="45.09511" lon="6.07081">
        <ele>1904.894297</ele>
        <time>2013-07-14T13:41:38Z</time>
      </trkpt>
      <trkpt lat="45.09528" lon="6.07074">
        <ele>1903.745434</ele>
        <time>2013-07-14T13:41:43Z</time>
      </trkpt>
      <trkpt lat="45.0954" lon="6.07068">
        <ele>1908.368005</ele>
        <time>2013-07-14T13:41:48Z</time>
      </trkpt>
      <trkpt lat="45.09555" lon="6.07061">
        <ele>1907.212924</ele>
        <time>2013-07-14T13:41:53Z</time>
      </trkpt>
      <trkpt lat="45.09565" lon="6.07055">
        <ele>1907.517516</ele>
        <time>2013-07-14T13:41:58Z</time>
      </trkpt>
      <trkpt lat="45.09575" lon="6.07046">
        <ele>1909.157731</ele>
        <time>2013-07-14T13:42:03Z</time>
      </trkpt>
      <trkpt lat="45.09589" lon="6.07042">
        <ele>1907.443781</ele>
        <time>2013-07-14T13:42:08Z</time>
      </trkpt>
      <trkpt lat="45.09602" lon="6.07036">
        <ele>1907.059146</ele>
        <time>2013-07-14T13:42:13Z</time>
      </trkpt>
      <trkpt lat="45.09614" lon="6.07032">
        <ele>1906.817517</ele>
        <time>2013-07-14T13:42:18Z</time>
      </trkpt>
      <trkpt lat="45.09628" lon="6.07028">
        <ele>1907.290543</ele>
        <time>2013-07-14T13:42:23Z</time>
      </trkpt>
      <trkpt lat="45.09638" lon="6.07024">
        <ele>1902.811877</ele>
        <time>2013-07-14T13:42:28Z</time>
      </trkpt>
      <trkpt lat="45.09651" lon="6.07015">
        <ele>1899.382926</ele>
        <time>2013-07-14T13:42:33Z</time>
      </trkpt>
      <trkpt lat="45.0966" lon="6.0701">
        <ele>1905.471697</ele>
        <time>2013-07-14T13:42:38Z</time>
      </trkpt>
      <trkpt lat="45.0967" lon="6.07008">
        <ele>1913.834675</ele>
        <time>2013-07-14T13:42:43Z</time>
      </trkpt>
      <trkpt lat="45.09686" lon="6.06996">
        <ele>1917.395142</ele>
        <time>2013-07-14T13:42:48Z</time>
      </trkpt>
      <trkpt lat="45.09696" lon="6.06996">
        <ele>1918.07325</ele>
        <time>2013-07-14T13:42:53Z</time>
      </trkpt>
      <trkpt lat="45.09707" lon="6.06996">
        <ele>1918.757729</ele>
        <time>2013-07-14T13:42:58Z</time>
      </trkpt>
      <trkpt lat="45.09716" lon="6.06995">
        <ele>1918.72757</ele>
        <time>2013-07-14T13:43:03Z</time>
      </trkpt>
      <trkpt lat="45.09716" lon="6.06992">
        <ele>1919.211942</ele>
        <time>2013-07-14T13:43:08Z</time>
      </trkpt>
      <trkpt lat="45.09715" lon="6.0698">
        <ele>1919.235746</ele>
        <time>2013-07-14T13:43:13Z</time>
      </trkpt>
      <trkpt lat="45.09718" lon="6.06969">
        <ele>1919.278631</ele>
        <time>2013-07-14T13:43:18Z</time>
      </trkpt>
      <trkpt lat="45.09715" lon="6.06969">
        <ele>1917.855665</ele>
        <time>2013-07-14T13:43:29Z</time>
      </trkpt>
      <trkpt lat="45.09704" lon="6.06975">
        <ele>1916.134122</ele>
        <time>2013-07-14T13:43:34Z</time>
      </trkpt>
      <trkpt lat="45.09696" lon="6.06979">
        <ele>1916.39458</ele>
        <time>2013-07-14T13:43:39Z</time>
      </trkpt>
      <trkpt lat="45.09695" lon="6.0698">
        <ele>1919.991681</ele>
        <time>2013-07-14T13:45:08Z</time>
      </trkpt>
      <trkpt lat="45.09695" lon="6.06983">
        <ele>1922.253172</ele>
        <time>2013-07-14T13:45:16Z</time>
      </trkpt>
      <trkpt lat="45.09695" lon="6.06982">
        <ele>1919.358022</ele>
        <time>2013-07-14T13:45:24Z</time>
      </trkpt>
      <trkpt lat="45.09694" lon="6.06979">
        <ele>1917.09018</ele>
        <time>2013-07-14T13:45:56Z</time>
      </trkpt>
      <trkpt lat="45.09692" lon="6.06984">
        <ele>1916.6741</ele>
        <time>2013-07-14T13:51:24Z</time>
      </trkpt>
      <trkpt lat="45.09679" lon="6.06991">
        <ele>1919.251675</ele>
        <time>2013-07-14T13:51:29Z</time>
      </trkpt>
      <trkpt lat="45.09662" lon="6.06996">
        <ele>1920.244367</ele>
        <time>2013-07-14T13:51:34Z</time>
      </trkpt>
      <trkpt lat="45.09645" lon="6.07009">
        <ele>1919.647435</ele>
        <time>2013-07-14T13:51:39Z</time>
      </trkpt>
      <trkpt lat="45.09635" lon="6.07014">
        <ele>1927.027574</ele>
        <time>2013-07-14T13:51:44Z</time>
      </trkpt>
      <trkpt lat="45.09617" lon="6.07017">
        <ele>1921.521823</ele>
        <time>2013-07-14T13:51:49Z</time>
      </trkpt>
      <trkpt lat="45.09594" lon="6.07021">
        <ele>1916.140124</ele>
        <time>2013-07-14T13:51:54Z</time>
      </trkpt>
      <trkpt lat="45.0957" lon="6.07037">
        <ele>1909.311848</ele>
        <time>2013-07-14T13:51:59Z</time>
      </trkpt>
      <trkpt lat="45.09549" lon="6.07053">
        <ele>1907.435384</ele>
        <time>2013-07-14T13:52:04Z</time>
      </trkpt>
      <trkpt lat="45.09526" lon="6.07063">
        <ele>1905.956071</ele>
        <time>2013-07-14T13:52:09Z</time>
      </trkpt>
      <trkpt lat="45.09507" lon="6.07073">
        <ele>1906.539661</ele>
        <time>2013-07-14T13:52:14Z</time>
      </trkpt>
      <trkpt lat="45.09494" lon="6.07077">
        <ele>1905.364993</ele>
        <time>2013-07-14T13:52:19Z</time>
      </trkpt>
      <trkpt lat="45.09478" lon="6.07081">
        <ele>1904.246119</ele>
        <time>2013-07-14T13:52:24Z</time>
      </trkpt>
      <trkpt lat="45.09457" lon="6.07092">
        <ele>1904.891969</ele>
        <time>2013-07-14T13:52:29Z</time>
      </trkpt>
      <trkpt lat="45.09438" lon="6.07101">
        <ele>1904.76756</ele>
        <time>2013-07-14T13:52:34Z</time>
      </trkpt>
      <trkpt lat="45.09417" lon="6.0711">
        <ele>1901.033512</ele>
        <time>2013-07-14T13:52:39Z</time>
      </trkpt>
      <trkpt lat="45.09393" lon="6.07122">
        <ele>1901.816408</ele>
        <time>2013-07-14T13:52:44Z</time>
      </trkpt>
      <trkpt lat="45.09365" lon="6.07135">
        <ele>1896.231344</ele>
        <time>2013-07-14T13:52:49Z</time>
      </trkpt>
      <trkpt lat="45.09336" lon="6.0715">
        <ele>1892.90803</ele>
        <time>2013-07-14T13:52:54Z</time>
      </trkpt>
      <trkpt lat="45.09313" lon="6.07165">
        <ele>1891.653769</ele>
        <time>2013-07-14T13:52:59Z</time>
      </trkpt>
      <trkpt lat="45.09308" lon="6.07172">
        <ele>1899.202686</ele>
        <time>2013-07-14T13:53:04Z</time>
      </trkpt>
      <trkpt lat="45.09297" lon="6.07181">
        <ele>1903.980761</ele>
        <time>2013-07-14T13:53:09Z</time>
      </trkpt>
      <trkpt lat="45.09281" lon="6.07193">
        <ele>1903.316875</ele>
        <time>2013-07-14T13:53:14Z</time>
      </trkpt>
      <trkpt lat="45.09259" lon="6.07219">
        <ele>1905.561762</ele>
        <time>2013-07-14T13:53:19Z</time>
      </trkpt>
      <trkpt lat="45.09221" lon="6.07249">
        <ele>1895.338411</ele>
        <time>2013-07-14T13:53:24Z</time>
      </trkpt>
      <trkpt lat="45.09187" lon="6.07285">
        <ele>1891.856785</ele>
        <time>2013-07-14T13:53:29Z</time>
      </trkpt>
      <trkpt lat="45.09148" lon="6.07317">
        <ele>1881.000613</ele>
        <time>2013-07-14T13:53:34Z</time>
      </trkpt>
      <trkpt lat="45.09123" lon="6.0734">
        <ele>1880.264066</ele>
        <time>2013-07-14T13:53:39Z</time>
      </trkpt>
      <trkpt lat="45.09108" lon="6.07352">
        <ele>1877.488641</ele>
        <time>2013-07-14T13:53:44Z</time>
      </trkpt>
      <trkpt lat="45.09081" lon="6.07373">
        <ele>1873.06804</ele>
        <time>2013-07-14T13:53:49Z</time>
      </trkpt>
      <trkpt lat="45.09058" lon="6.07373">
        <ele>1871.695552</ele>
        <time>2013-07-14T13:53:54Z</time>
      </trkpt>
      <trkpt lat="45.09046" lon="6.07369">
        <ele>1872.894424</ele>
        <time>2013-07-14T13:53:59Z</time>
      </trkpt>
      <trkpt lat="45.09025" lon="6.07371">
        <ele>1873.019424</ele>
        <time>2013-07-14T13:54:04Z</time>
      </trkpt>
      <trkpt lat="45.09009" lon="6.07388">
        <ele>1871.947195</ele>
        <time>2013-07-14T13:54:09Z</time>
      </trkpt>
      <trkpt lat="45.09003" lon="6.07404">
        <ele>1871.483337</ele>
        <time>2013-07-14T13:54:14Z</time>
      </trkpt>
      <trkpt lat="45.09005" lon="6.07416">
        <ele>1870.055771</ele>
        <time>2013-07-14T13:54:19Z</time>
      </trkpt>
      <trkpt lat="45.09007" lon="6.07428">
        <ele>1869.330251</ele>
        <time>2013-07-14T13:54:24Z</time>
      </trkpt>
      <trkpt lat="45.09007" lon="6.07441">
        <ele>1869.375295</ele>
        <time>2013-07-14T13:54:29Z</time>
      </trkpt>
      <trkpt lat="45.09006" lon="6.07456">
        <ele>1869.563587</ele>
        <time>2013-07-14T13:54:34Z</time>
      </trkpt>
      <trkpt lat="45.09" lon="6.07473">
        <ele>1867.764303</ele>
        <time>2013-07-14T13:54:39Z</time>
      </trkpt>
      <trkpt lat="45.08991" lon="6.07494">
        <ele>1866.885045</ele>
        <time>2013-07-14T13:54:44Z</time>
      </trkpt>
      <trkpt lat="45.08983" lon="6.07516">
        <ele>1866.782592</ele>
        <time>2013-07-14T13:54:49Z</time>
      </trkpt>
      <trkpt lat="45.08975" lon="6.07536">
        <ele>1866.536942</ele>
        <time>2013-07-14T13:54:54Z</time>
      </trkpt>
      <trkpt lat="45.08975" lon="6.07545">
        <ele>1865.649742</ele>
        <time>2013-07-14T13:54:59Z</time>
      </trkpt>
      <trkpt lat="45.08973" lon="6.07552">
        <ele>1867.502138</ele>
        <time>2013-07-14T13:55:04Z</time>
      </trkpt>
      <trkpt lat="45.08968" lon="6.07566">
        <ele>1868.305552</ele>
        <time>2013-07-14T13:55:09Z</time>
      </trkpt>
      <trkpt lat="45.08965" lon="6.07586">
        <ele>1868.786765</ele>
        <time>2013-07-14T13:55:14Z</time>
      </trkpt>
      <trkpt lat="45.08964" lon="6.07599">
        <ele>1866.005335</ele>
        <time>2013-07-14T13:55:19Z</time>
      </trkpt>
      <trkpt lat="45.08962" lon="6.07609">
        <ele>1865.888774</ele>
        <time>2013-07-14T13:55:24Z</time>
      </trkpt>
      <trkpt lat="45.08956" lon="6.07617">
        <ele>1866.387171</ele>
        <time>2013-07-14T13:55:29Z</time>
      </trkpt>
      <trkpt lat="45.08953" lon="6.07624">
        <ele>1864.704747</ele>
        <time>2013-07-14T13:55:34Z</time>
      </trkpt>
      <trkpt lat="45.08958" lon="6.0763">
        <ele>1862.916104</ele>
        <time>2013-07-14T13:55:39Z</time>
      </trkpt>
      <trkpt lat="45.08966" lon="6.07617">
        <ele>1864.951624</ele>
        <time>2013-07-14T13:55:44Z</time>
      </trkpt>
      <trkpt lat="45.08974" lon="6.07598">
        <ele>1867.390294</ele>
        <time>2013-07-14T13:55:49Z</time>
      </trkpt>
      <trkpt lat="45.08981" lon="6.07578">
        <ele>1871.158347</ele>
        <time>2013-07-14T13:55:54Z</time>
      </trkpt>
      <trkpt lat="45.08985" lon="6.07557">
        <ele>1871.31065</ele>
        <time>2013-07-14T13:55:59Z</time>
      </trkpt>
      <trkpt lat="45.08989" lon="6.0753">
        <ele>1868.26891</ele>
        <time>2013-07-14T13:56:04Z</time>
      </trkpt>
      <trkpt lat="45.08998" lon="6.07506">
        <ele>1867.594598</ele>
        <time>2013-07-14T13:56:09Z</time>
      </trkpt>
      <trkpt lat="45.09008" lon="6.07484">
        <ele>1866.99507</ele>
        <time>2013-07-14T13:56:14Z</time>
      </trkpt>
      <trkpt lat="45.09015" lon="6.07466">
        <ele>1867.315577</ele>
        <time>2013-07-14T13:56:19Z</time>
      </trkpt>
      <trkpt lat="45.09025" lon="6.07454">
        <ele>1868.022057</ele>
        <time>2013-07-14T13:56:24Z</time>
      </trkpt>
      <trkpt lat="45.09035" lon="6.07439">
        <ele>1867.802418</ele>
        <time>2013-07-14T13:56:29Z</time>
      </trkpt>
      <trkpt lat="45.09041" lon="6.07419">
        <ele>1870.154418</ele>
        <time>2013-07-14T13:56:34Z</time>
      </trkpt>
      <trkpt lat="45.09041" lon="6.07388">
        <ele>1872.586091</ele>
        <time>2013-07-14T13:56:39Z</time>
      </trkpt>
      <trkpt lat="45.09043" lon="6.07358">
        <ele>1875.80697</ele>
        <time>2013-07-14T13:56:44Z</time>
      </trkpt>
      <trkpt lat="45.09047" lon="6.07332">
        <ele>1877.77327</ele>
        <time>2013-07-14T13:56:49Z</time>
      </trkpt>
      <trkpt lat="45.09047" lon="6.07308">
        <ele>1882.063598</ele>
        <time>2013-07-14T13:56:54Z</time>
      </trkpt>
      <trkpt lat="45.09051" lon="6.07278">
        <ele>1874.567753</ele>
        <time>2013-07-14T13:56:59Z</time>
      </trkpt>
      <trkpt lat="45.09052" lon="6.07247">
        <ele>1869.954795</ele>
        <time>2013-07-14T13:57:04Z</time>
      </trkpt>
      <trkpt lat="45.09051" lon="6.07229">
        <ele>1871.015316</ele>
        <time>2013-07-14T13:57:09Z</time>
      </trkpt>
      <trkpt lat="45.09049" lon="6.07212">
        <ele>1874.964855</ele>
        <time>2013-07-14T13:57:14Z</time>
      </trkpt>
      <trkpt lat="45.09049" lon="6.07193">
        <ele>1879.479486</ele>
        <time>2013-07-14T13:57:19Z</time>
      </trkpt>
      <trkpt lat="45.09047" lon="6.07167">
        <ele>1880.085863</ele>
        <time>2013-07-14T13:57:24Z</time>
      </trkpt>
      <trkpt lat="45.09048" lon="6.07142">
        <ele>1877.884189</ele>
        <time>2013-07-14T13:57:29Z</time>
      </trkpt>
      <trkpt lat="45.09047" lon="6.07112">
        <ele>1876.862633</ele>
        <time>2013-07-14T13:57:34Z</time>
      </trkpt>
      <trkpt lat="45.09045" lon="6.07084">
        <ele>1875.201409</ele>
        <time>2013-07-14T13:57:39Z</time>
      </trkpt>
      <trkpt lat="45.09041" lon="6.07049">
        <ele>1866.028658</ele>
        <time>2013-07-14T13:57:44Z</time>
      </trkpt>
      <trkpt lat="45.09037" lon="6.07018">
        <ele>1864.212109</ele>
        <time>2013-07-14T13:57:49Z</time>
      </trkpt>
      <trkpt lat="45.09035" lon="6.06993">
        <ele>1867.005866</ele>
        <time>2013-07-14T13:57:54Z</time>
      </trkpt>
      <trkpt lat="45.09033" lon="6.06971">
        <ele>1868.544918</ele>
        <time>2013-07-14T13:57:59Z</time>
      </trkpt>
      <trkpt lat="45.09029" lon="6.06954">
        <ele>1873.190744</ele>
        <time>2013-07-14T13:58:04Z</time>
      </trkpt>
      <trkpt lat="45.09015" lon="6.06937">
        <ele>1872.22076</ele>
        <time>2013-07-14T13:58:09Z</time>
      </trkpt>
      <trkpt lat="45.09002" lon="6.06907">
        <ele>1871.920839</ele>
        <time>2013-07-14T13:58:14Z</time>
      </trkpt>
      <trkpt lat="45.08991" lon="6.06868">
        <ele>1870.321883</ele>
        <time>2013-07-14T13:58:19Z</time>
      </trkpt>
      <trkpt lat="45.08989" lon="6.06828">
        <ele>1867.28143</ele>
        <time>2013-07-14T13:58:24Z</time>
      </trkpt>
      <trkpt lat="45.08994" lon="6.06787">
        <ele>1865.539178</ele>
        <time>2013-07-14T13:58:29Z</time>
      </trkpt>
      <trkpt lat="45.09003" lon="6.06747">
        <ele>1863.890253</ele>
        <time>2013-07-14T13:58:34Z</time>
      </trkpt>
      <trkpt lat="45.0901" lon="6.06704">
        <ele>1857.774513</ele>
        <time>2013-07-14T13:58:39Z</time>
      </trkpt>
      <trkpt lat="45.09021" lon="6.06662">
        <ele>1852.460338</ele>
        <time>2013-07-14T13:58:44Z</time>
      </trkpt>
      <trkpt lat="45.09035" lon="6.06622">
        <ele>1843.710776</ele>
        <time>2013-07-14T13:58:49Z</time>
      </trkpt>
      <trkpt lat="45.0905" lon="6.06593">
        <ele>1833.445938</ele>
        <time>2013-07-14T13:58:54Z</time>
      </trkpt>
      <trkpt lat="45.09048" lon="6.06576">
        <ele>1833.873988</ele>
        <time>2013-07-14T13:58:59Z</time>
      </trkpt>
      <trkpt lat="45.09058" lon="6.0656">
        <ele>1828.642114</ele>
        <time>2013-07-14T13:59:04Z</time>
      </trkpt>
      <trkpt lat="45.0906" lon="6.0654">
        <ele>1835.990881</ele>
        <time>2013-07-14T13:59:09Z</time>
      </trkpt>
      <trkpt lat="45.09045" lon="6.06527">
        <ele>1852.242977</ele>
        <time>2013-07-14T13:59:14Z</time>
      </trkpt>
      <trkpt lat="45.09042" lon="6.06523">
        <ele>1840.643966</ele>
        <time>2013-07-14T13:59:19Z</time>
      </trkpt>
      <trkpt lat="45.09047" lon="6.06517">
        <ele>1838.885472</ele>
        <time>2013-07-14T13:59:24Z</time>
      </trkpt>
      <trkpt lat="45.09048" lon="6.06498">
        <ele>1846.302723</ele>
        <time>2013-07-14T13:59:29Z</time>
      </trkpt>
      <trkpt lat="45.09053" lon="6.06487">
        <ele>1854.111516</ele>
        <time>2013-07-14T13:59:34Z</time>
      </trkpt>
      <trkpt lat="45.09055" lon="6.06469">
        <ele>1856.602192</ele>
        <time>2013-07-14T13:59:39Z</time>
      </trkpt>
      <trkpt lat="45.09064" lon="6.06448">
        <ele>1858.191857</ele>
        <time>2013-07-14T13:59:44Z</time>
      </trkpt>
      <trkpt lat="45.09068" lon="6.06423">
        <ele>1855.302289</ele>
        <time>2013-07-14T13:59:49Z</time>
      </trkpt>
      <trkpt lat="45.09072" lon="6.06403">
        <ele>1852.009069</ele>
        <time>2013-07-14T13:59:54Z</time>
      </trkpt>
      <trkpt lat="45.09084" lon="6.06381">
        <ele>1847.119046</ele>
        <time>2013-07-14T13:59:59Z</time>
      </trkpt>
      <trkpt lat="45.09087" lon="6.06375">
        <ele>1844.640059</ele>
        <time>2013-07-14T14:00:04Z</time>
      </trkpt>
      <trkpt lat="45.09088" lon="6.06367">
        <ele>1844.90083</ele>
        <time>2013-07-14T14:00:09Z</time>
      </trkpt>
      <trkpt lat="45.09099" lon="6.06341">
        <ele>1836.258452</ele>
        <time>2013-07-14T14:00:14Z</time>
      </trkpt>
      <trkpt lat="45.09099" lon="6.06339">
        <ele>1830.46826</ele>
        <time>2013-07-14T14:00:19Z</time>
      </trkpt>
      <trkpt lat="45.091" lon="6.06338">
        <ele>1826.162903</ele>
        <time>2013-07-14T14:00:24Z</time>
      </trkpt>
      <trkpt lat="45.09098" lon="6.06337">
        <ele>1828.902659</ele>
        <time>2013-07-14T14:00:32Z</time>
      </trkpt>
      <trkpt lat="45.09097" lon="6.06335">
        <ele>1831.642415</ele>
        <time>2013-07-14T14:00:37Z</time>
      </trkpt>
      <trkpt lat="45.09096" lon="6.06335">
        <ele>1834.456744</ele>
        <time>2013-07-14T14:00:47Z</time>
      </trkpt>
      <trkpt lat="45.09095" lon="6.06334">
        <ele>1837.271073</ele>
        <time>2013-07-14T14:01:01Z</time>
      </trkpt>
      <trkpt lat="45.09095" lon="6.06333">
        <ele>1840.017025</ele>
        <time>2013-07-14T14:01:08Z</time>
      </trkpt>
      <trkpt lat="45.09093" lon="6.06332">
        <ele>1842.123127</ele>
        <time>2013-07-14T14:01:18Z</time>
      </trkpt>
      <trkpt lat="45.09092" lon="6.0633">
        <ele>1844.08628</ele>
        <time>2013-07-14T14:01:35Z</time>
      </trkpt>
      <trkpt lat="45.09091" lon="6.06328">
        <ele>1846.826039</ele>
        <time>2013-07-14T14:01:54Z</time>
      </trkpt>
      <trkpt lat="45.09089" lon="6.06329">
        <ele>1849.006713</ele>
        <time>2013-07-14T14:02:06Z</time>
      </trkpt>
      <trkpt lat="45.09088" lon="6.06327">
        <ele>1851.746473</ele>
        <time>2013-07-14T14:02:23Z</time>
      </trkpt>
      <trkpt lat="45.09088" lon="6.06328">
        <ele>1854.641568</ele>
        <time>2013-07-14T14:03:09Z</time>
      </trkpt>
      <trkpt lat="45.09087" lon="6.06326">
        <ele>1857.381328</ele>
        <time>2013-07-14T14:03:29Z</time>
      </trkpt>
      <trkpt lat="45.09085" lon="6.06326">
        <ele>1860.19566</ele>
        <time>2013-07-14T14:04:08Z</time>
      </trkpt>
      <trkpt lat="45.09085" lon="6.06329">
        <ele>1858.226312</ele>
        <time>2013-07-14T14:05:58Z</time>
      </trkpt>
      <trkpt lat="45.09085" lon="6.06318">
        <ele>1859.040012</ele>
        <time>2013-07-14T14:06:03Z</time>
      </trkpt>
      <trkpt lat="45.0909" lon="6.06286">
        <ele>1860.64239</ele>
        <time>2013-07-14T14:06:08Z</time>
      </trkpt>
      <trkpt lat="45.09104" lon="6.06245">
        <ele>1863.878612</ele>
        <time>2013-07-14T14:06:13Z</time>
      </trkpt>
      <trkpt lat="45.09111" lon="6.0619">
        <ele>1857.094133</ele>
        <time>2013-07-14T14:06:18Z</time>
      </trkpt>
      <trkpt lat="45.09133" lon="6.06124">
        <ele>1833.337003</ele>
        <time>2013-07-14T14:06:23Z</time>
      </trkpt>
      <trkpt lat="45.09164" lon="6.06067">
        <ele>1820.023657</ele>
        <time>2013-07-14T14:06:28Z</time>
      </trkpt>
      <trkpt lat="45.09182" lon="6.06015">
        <ele>1816.893192</ele>
        <time>2013-07-14T14:06:33Z</time>
      </trkpt>
      <trkpt lat="45.0918" lon="6.05957">
        <ele>1814.222839</ele>
        <time>2013-07-14T14:06:38Z</time>
      </trkpt>
      <trkpt lat="45.09187" lon="6.05905">
        <ele>1806.880792</ele>
        <time>2013-07-14T14:06:43Z</time>
      </trkpt>
      <trkpt lat="45.09188" lon="6.05851">
        <ele>1802.962223</ele>
        <time>2013-07-14T14:06:48Z</time>
      </trkpt>
      <trkpt lat="45.09201" lon="6.058">
        <ele>1802.77764</ele>
        <time>2013-07-14T14:06:53Z</time>
      </trkpt>
      <trkpt lat="45.09191" lon="6.05734">
        <ele>1808.154129</ele>
        <time>2013-07-14T14:06:58Z</time>
      </trkpt>
      <trkpt lat="45.09191" lon="6.05666">
        <ele>1788.525438</ele>
        <time>2013-07-14T14:07:03Z</time>
      </trkpt>
      <trkpt lat="45.09179" lon="6.05585">
        <ele>1768.873053</ele>
        <time>2013-07-14T14:07:08Z</time>
      </trkpt>
      <trkpt lat="45.09167" lon="6.05532">
        <ele>1764.334844</ele>
        <time>2013-07-14T14:07:13Z</time>
      </trkpt>
      <trkpt lat="45.09145" lon="6.05527">
        <ele>1770.498111</ele>
        <time>2013-07-14T14:07:18Z</time>
      </trkpt>
      <trkpt lat="45.09143" lon="6.05526">
        <ele>1768.298936</ele>
        <time>2013-07-14T14:07:23Z</time>
      </trkpt>
      <trkpt lat="45.0914" lon="6.05524">
        <ele>1769.622345</ele>
        <time>2013-07-14T14:07:28Z</time>
      </trkpt>
      <trkpt lat="45.09138" lon="6.05527">
        <ele>1769.05686</ele>
        <time>2013-07-14T14:07:35Z</time>
      </trkpt>
      <trkpt lat="45.09136" lon="6.0553">
        <ele>1771.386393</ele>
        <time>2013-07-14T14:07:43Z</time>
      </trkpt>
      <trkpt lat="45.09139" lon="6.05532">
        <ele>1771.473255</ele>
        <time>2013-07-14T14:08:02Z</time>
      </trkpt>
      <trkpt lat="45.09136" lon="6.05533">
        <ele>1771.535338</ele>
        <time>2013-07-14T14:08:29Z</time>
      </trkpt>
      <trkpt lat="45.09134" lon="6.05532">
        <ele>1772.933222</ele>
        <time>2013-07-14T14:08:45Z</time>
      </trkpt>
      <trkpt lat="45.09132" lon="6.05535">
        <ele>1773.778014</ele>
        <time>2013-07-14T14:09:00Z</time>
      </trkpt>
      <trkpt lat="45.09133" lon="6.05535">
        <ele>1771.671896</ele>
        <time>2013-07-14T14:09:16Z</time>
      </trkpt>
      <trkpt lat="45.09134" lon="6.05538">
        <ele>1769.708531</ele>
        <time>2013-07-14T14:09:39Z</time>
      </trkpt>
      <trkpt lat="45.09134" lon="6.05542">
        <ele>1769.229912</ele>
        <time>2013-07-14T14:10:03Z</time>
      </trkpt>
      <trkpt lat="45.0914" lon="6.05564">
        <ele>1760.580585</ele>
        <time>2013-07-14T14:10:08Z</time>
      </trkpt>
      <trkpt lat="45.09145" lon="6.05605">
        <ele>1744.593082</ele>
        <time>2013-07-14T14:10:13Z</time>
      </trkpt>
      <trkpt lat="45.09138" lon="6.05661">
        <ele>1736.569662</ele>
        <time>2013-07-14T14:10:18Z</time>
      </trkpt>
      <trkpt lat="45.09116" lon="6.05727">
        <ele>1733.373507</ele>
        <time>2013-07-14T14:10:23Z</time>
      </trkpt>
      <trkpt lat="45.0908" lon="6.05795">
        <ele>1734.570333</ele>
        <time>2013-07-14T14:10:28Z</time>
      </trkpt>
      <trkpt lat="45.09047" lon="6.0585">
        <ele>1731.506307</ele>
        <time>2013-07-14T14:10:33Z</time>
      </trkpt>
      <trkpt lat="45.09009" lon="6.05907">
        <ele>1735.618493</ele>
        <time>2013-07-14T14:10:38Z</time>
      </trkpt>
      <trkpt lat="45.08961" lon="6.05948">
        <ele>1750.846403</ele>
        <time>2013-07-14T14:10:43Z</time>
      </trkpt>
      <trkpt lat="45.08909" lon="6.05991">
        <ele>1753.438624</ele>
        <time>2013-07-14T14:10:48Z</time>
      </trkpt>
      <trkpt lat="45.08875" lon="6.06021">
        <ele>1757.409855</ele>
        <time>2013-07-14T14:10:53Z</time>
      </trkpt>
      <trkpt lat="45.08882" lon="6.06018">
        <ele>1734.503608</ele>
        <time>2013-07-14T14:10:58Z</time>
      </trkpt>
      <trkpt lat="45.08888" lon="6.05972">
        <ele>1741.00865</ele>
        <time>2013-07-14T14:11:03Z</time>
      </trkpt>
      <trkpt lat="45.08895" lon="6.05903">
        <ele>1741.935555</ele>
        <time>2013-07-14T14:11:08Z</time>
      </trkpt>
      <trkpt lat="45.08909" lon="6.05828">
        <ele>1734.618639</ele>
        <time>2013-07-14T14:11:13Z</time>
      </trkpt>
      <trkpt lat="45.08912" lon="6.05755">
        <ele>1726.060264</ele>
        <time>2013-07-14T14:11:18Z</time>
      </trkpt>
      <trkpt lat="45.08915" lon="6.05683">
        <ele>1703.399704</ele>
        <time>2013-07-14T14:11:23Z</time>
      </trkpt>
      <trkpt lat="45.08903" lon="6.0563">
        <ele>1688.213176</ele>
        <time>2013-07-14T14:11:28Z</time>
      </trkpt>
      <trkpt lat="45.08878" lon="6.05601">
        <ele>1675.946165</ele>
        <time>2013-07-14T14:11:33Z</time>
      </trkpt>
      <trkpt lat="45.08845" lon="6.05575">
        <ele>1671.619479</ele>
        <time>2013-07-14T14:11:38Z</time>
      </trkpt>
      <trkpt lat="45.0883" lon="6.056">
        <ele>1678.757376</ele>
        <time>2013-07-14T14:11:43Z</time>
      </trkpt>
      <trkpt lat="45.08843" lon="6.05648">
        <ele>1670.230231</ele>
        <time>2013-07-14T14:11:48Z</time>
      </trkpt>
      <trkpt lat="45.08823" lon="6.05701">
        <ele>1667.004617</ele>
        <time>2013-07-14T14:11:53Z</time>
      </trkpt>
      <trkpt lat="45.08766" lon="6.05803">
        <ele>1773.952525</ele>
        <time>2013-07-14T14:11:58Z</time>
      </trkpt>
      <trkpt lat="45.08676" lon="6.05864">
        <ele>1877.629651</ele>
        <time>2013-07-14T14:12:03Z</time>
      </trkpt>
      <trkpt lat="45.0861" lon="6.05917">
        <ele>1965.813183</ele>
        <time>2013-07-14T14:12:08Z</time>
      </trkpt>
      <trkpt lat="45.08599" lon="6.05936">
        <ele>1781.845582</ele>
        <time>2013-07-14T14:12:13Z</time>
      </trkpt>
      <trkpt lat="45.0859" lon="6.05935">
        <ele>1764.842733</ele>
        <time>2013-07-14T14:12:18Z</time>
      </trkpt>
      <trkpt lat="45.08587" lon="6.05952">
        <ele>1821.848338</ele>
        <time>2013-07-14T14:12:23Z</time>
      </trkpt>
      <trkpt lat="45.08574" lon="6.05955">
        <ele>1851.811353</ele>
        <time>2013-07-14T14:12:28Z</time>
      </trkpt>
      <trkpt lat="45.0856" lon="6.05965">
        <ele>1849.556768</ele>
        <time>2013-07-14T14:12:33Z</time>
      </trkpt>
      <trkpt lat="45.08541" lon="6.05982">
        <ele>1808.750989</ele>
        <time>2013-07-14T14:12:38Z</time>
      </trkpt>
      <trkpt lat="45.08526" lon="6.05996">
        <ele>1795.087595</ele>
        <time>2013-07-14T14:12:43Z</time>
      </trkpt>
      <trkpt lat="45.08427" lon="6.06038">
        <ele>1757.965994</ele>
        <time>2013-07-14T14:12:48Z</time>
      </trkpt>
      <trkpt lat="45.0838" lon="6.06084">
        <ele>1695.554386</ele>
        <time>2013-07-14T14:12:53Z</time>
      </trkpt>
      <trkpt lat="45.08364" lon="6.06136">
        <ele>1651.216349</ele>
        <time>2013-07-14T14:12:58Z</time>
      </trkpt>
      <trkpt lat="45.08359" lon="6.06256">
        <ele>1558.575529</ele>
        <time>2013-07-14T14:13:03Z</time>
      </trkpt>
      <trkpt lat="45.08334" lon="6.06156">
        <ele>1531.846873</ele>
        <time>2013-07-14T14:13:08Z</time>
      </trkpt>
      <trkpt lat="45.08303" lon="6.05941">
        <ele>1497.687122</ele>
        <time>2013-07-14T14:13:13Z</time>
      </trkpt>
      <trkpt lat="45.08316" lon="6.05842">
        <ele>1466.648453</ele>
        <time>2013-07-14T14:13:18Z</time>
      </trkpt>
      <trkpt lat="45.08333" lon="6.05806">
        <ele>1446.133084</ele>
        <time>2013-07-14T14:13:23Z</time>
      </trkpt>
      <trkpt lat="45.08361" lon="6.05776">
        <ele>1444.88638</ele>
        <time>2013-07-14T14:13:28Z</time>
      </trkpt>
      <trkpt lat="45.08367" lon="6.05763">
        <ele>1461.479374</ele>
        <time>2013-07-14T14:13:33Z</time>
      </trkpt>
      <trkpt lat="45.08355" lon="6.05757">
        <ele>1495.403751</ele>
        <time>2013-07-14T14:13:38Z</time>
      </trkpt>
      <trkpt lat="45.08244" lon="6.05775">
        <ele>1575.815984</ele>
        <time>2013-07-14T14:13:43Z</time>
      </trkpt>
      <trkpt lat="45.08214" lon="6.06169">
        <ele>1526.193462</ele>
        <time>2013-07-14T14:14:58Z</time>
      </trkpt>
      <trkpt lat="45.08003" lon="6.05623">
        <ele>1516.150776</ele>
        <time>2013-07-14T14:15:03Z</time>
      </trkpt>
      <trkpt lat="45.0803" lon="6.05568">
        <ele>1506.487297</ele>
        <time>2013-07-14T14:15:08Z</time>
      </trkpt>
      <trkpt lat="45.08067" lon="6.05541">
        <ele>1510.50659</ele>
        <time>2013-07-14T14:15:13Z</time>
      </trkpt>
      <trkpt lat="45.08057" lon="6.05495">
        <ele>1533.299703</ele>
        <time>2013-07-14T14:15:18Z</time>
      </trkpt>
      <trkpt lat="45.07988" lon="6.05459">
        <ele>1565.331062</ele>
        <time>2013-07-14T14:15:23Z</time>
      </trkpt>
      <trkpt lat="45.07903" lon="6.05455">
        <ele>1592.177794</ele>
        <time>2013-07-14T14:15:28Z</time>
      </trkpt>
      <trkpt lat="45.07833" lon="6.05443">
        <ele>1588.735863</ele>
        <time>2013-07-14T14:15:33Z</time>
      </trkpt>
      <trkpt lat="45.07767" lon="6.05405">
        <ele>1584.519274</ele>
        <time>2013-07-14T14:15:38Z</time>
      </trkpt>
      <trkpt lat="45.07739" lon="6.05363">
        <ele>1519.645764</ele>
        <time>2013-07-14T14:15:43Z</time>
      </trkpt>
      <trkpt lat="45.07692" lon="6.05345">
        <ele>1508.030453</ele>
        <time>2013-07-14T14:15:48Z</time>
      </trkpt>
      <trkpt lat="45.07689" lon="6.05315">
        <ele>1485.699379</ele>
        <time>2013-07-14T14:15:53Z</time>
      </trkpt>
      <trkpt lat="45.07739" lon="6.05272">
        <ele>1474.624304</ele>
        <time>2013-07-14T14:15:58Z</time>
      </trkpt>
      <trkpt lat="45.07771" lon="6.05199">
        <ele>1465.278265</ele>
        <time>2013-07-14T14:16:03Z</time>
      </trkpt>
      <trkpt lat="45.07806" lon="6.05104">
        <ele>1453.965289</ele>
        <time>2013-07-14T14:16:08Z</time>
      </trkpt>
      <trkpt lat="45.07843" lon="6.04997">
        <ele>1439.10035</ele>
        <time>2013-07-14T14:16:13Z</time>
      </trkpt>
      <trkpt lat="45.0785" lon="6.04904">
        <ele>1418.011781</ele>
        <time>2013-07-14T14:16:18Z</time>
      </trkpt>
      <trkpt lat="45.07816" lon="6.04863">
        <ele>1379.254883</ele>
        <time>2013-07-14T14:16:23Z</time>
      </trkpt>
      <trkpt lat="45.07809" lon="6.04825">
        <ele>1370.602463</ele>
        <time>2013-07-14T14:16:28Z</time>
      </trkpt>
      <trkpt lat="45.07803" lon="6.04802">
        <ele>1402.878191</ele>
        <time>2013-07-14T14:16:33Z</time>
      </trkpt>
      <trkpt lat="45.07811" lon="6.04875">
        <ele>1394.405068</ele>
        <time>2013-07-14T14:16:38Z</time>
      </trkpt>
      <trkpt lat="45.07797" lon="6.04932">
        <ele>1458.012823</ele>
        <time>2013-07-14T14:16:43Z</time>
      </trkpt>
      <trkpt lat="45.0778" lon="6.04954">
        <ele>1535.958108</ele>
        <time>2013-07-14T14:16:48Z</time>
      </trkpt>
      <trkpt lat="45.0775" lon="6.05036">
        <ele>1709.750554</ele>
        <time>2013-07-14T14:16:53Z</time>
      </trkpt>
      <trkpt lat="45.07713" lon="6.05092">
        <ele>1988.267243</ele>
        <time>2013-07-14T14:16:58Z</time>
      </trkpt>
      <trkpt lat="45.07658" lon="6.05177">
        <ele>2117.811154</ele>
        <time>2013-07-14T14:17:03Z</time>
      </trkpt>
      <trkpt lat="45.07599" lon="6.05192">
        <ele>1827.890362</ele>
        <time>2013-07-14T14:17:08Z</time>
      </trkpt>
      <trkpt lat="45.07492" lon="6.05249">
        <ele>1829.339826</ele>
        <time>2013-07-14T14:17:14Z</time>
      </trkpt>
      <trkpt lat="45.07547" lon="6.05181">
        <ele>1839.607241</ele>
        <time>2013-07-14T14:17:23Z</time>
      </trkpt>
      <trkpt lat="45.07598" lon="6.05156">
        <ele>1864.138942</ele>
        <time>2013-07-14T14:17:28Z</time>
      </trkpt>
      <trkpt lat="45.07658" lon="6.05049">
        <ele>1839.034707</ele>
        <time>2013-07-14T14:17:33Z</time>
      </trkpt>
      <trkpt lat="45.07668" lon="6.04884">
        <ele>1737.242692</ele>
        <time>2013-07-14T14:17:38Z</time>
      </trkpt>
      <trkpt lat="45.07652" lon="6.04813">
        <ele>1616.695937</ele>
        <time>2013-07-14T14:17:43Z</time>
      </trkpt>
      <trkpt lat="45.07649" lon="6.04794">
        <ele>1508.214259</ele>
        <time>2013-07-14T14:17:48Z</time>
      </trkpt>
      <trkpt lat="45.07651" lon="6.04781">
        <ele>1397.151393</ele>
        <time>2013-07-14T14:17:53Z</time>
      </trkpt>
      <trkpt lat="45.07663" lon="6.0477">
        <ele>1274.211157</ele>
        <time>2013-07-14T14:17:58Z</time>
      </trkpt>
      <trkpt lat="45.07662" lon="6.0473">
        <ele>1397.915778</ele>
        <time>2013-07-14T14:18:03Z</time>
      </trkpt>
      <trkpt lat="45.07638" lon="6.04751">
        <ele>1459.000642</ele>
        <time>2013-07-14T14:18:08Z</time>
      </trkpt>
      <trkpt lat="45.07625" lon="6.04809">
        <ele>1425.96087</ele>
        <time>2013-07-14T14:18:13Z</time>
      </trkpt>
      <trkpt lat="45.07635" lon="6.04869">
        <ele>1389.047909</ele>
        <time>2013-07-14T14:18:18Z</time>
      </trkpt>
      <trkpt lat="45.07624" lon="6.04927">
        <ele>1363.918419</ele>
        <time>2013-07-14T14:18:23Z</time>
      </trkpt>
      <trkpt lat="45.07606" lon="6.04959">
        <ele>1387.170315</ele>
        <time>2013-07-14T14:18:28Z</time>
      </trkpt>
      <trkpt lat="45.07596" lon="6.0499">
        <ele>1320.652961</ele>
        <time>2013-07-14T14:18:33Z</time>
      </trkpt>
      <trkpt lat="45.07586" lon="6.05025">
        <ele>1265.991038</ele>
        <time>2013-07-14T14:18:38Z</time>
      </trkpt>
      <trkpt lat="45.0756" lon="6.05058">
        <ele>1196.403077</ele>
        <time>2013-07-14T14:18:43Z</time>
      </trkpt>
      <trkpt lat="45.07381" lon="6.0515">
        <ele>1621.896218</ele>
        <time>2013-07-14T14:18:51Z</time>
      </trkpt>
      <trkpt lat="45.07505" lon="6.04998">
        <ele>1623.665662</ele>
        <time>2013-07-14T14:18:56Z</time>
      </trkpt>
      <trkpt lat="45.07524" lon="6.04856">
        <ele>1624.861181</ele>
        <time>2013-07-14T14:19:03Z</time>
      </trkpt>
      <trkpt lat="45.07507" lon="6.0482">
        <ele>1627.557651</ele>
        <time>2013-07-14T14:19:08Z</time>
      </trkpt>
      <trkpt lat="45.07483" lon="6.04757">
        <ele>1626.395716</ele>
        <time>2013-07-14T14:19:13Z</time>
      </trkpt>
      <trkpt lat="45.07477" lon="6.04781">
        <ele>1622.587447</ele>
        <time>2013-07-14T14:19:18Z</time>
      </trkpt>
      <trkpt lat="45.07502" lon="6.04871">
        <ele>1614.15043</ele>
        <time>2013-07-14T14:19:23Z</time>
      </trkpt>
      <trkpt lat="45.07469" lon="6.04948">
        <ele>1576.180687</ele>
        <time>2013-07-14T14:19:28Z</time>
      </trkpt>
      <trkpt lat="45.07402" lon="6.04962">
        <ele>1469.989552</ele>
        <time>2013-07-14T14:19:33Z</time>
      </trkpt>
      <trkpt lat="45.07357" lon="6.05017">
        <ele>1329.771504</ele>
        <time>2013-07-14T14:19:38Z</time>
      </trkpt>
      <trkpt lat="45.07314" lon="6.05059">
        <ele>1217.643952</ele>
        <time>2013-07-14T14:19:43Z</time>
      </trkpt>
      <trkpt lat="45.07251" lon="6.05129">
        <ele>1239.114982</ele>
        <time>2013-07-14T14:19:48Z</time>
      </trkpt>
      <trkpt lat="45.07243" lon="6.05113">
        <ele>1243.486957</ele>
        <time>2013-07-14T14:19:53Z</time>
      </trkpt>
      <trkpt lat="45.0736" lon="6.04891">
        <ele>1625.206974</ele>
        <time>2013-07-14T14:20:02Z</time>
      </trkpt>
      <trkpt lat="45.07346" lon="6.04777">
        <ele>1663.134399</ele>
        <time>2013-07-14T14:20:07Z</time>
      </trkpt>
      <trkpt lat="45.07161" lon="6.04641">
        <ele>1686.645273</ele>
        <time>2013-07-14T14:20:12Z</time>
      </trkpt>
      <trkpt lat="45.07093" lon="6.04431">
        <ele>1680.838522</ele>
        <time>2013-07-14T14:20:17Z</time>
      </trkpt>
      <trkpt lat="45.07101" lon="6.04651">
        <ele>1597.454595</ele>
        <time>2013-07-14T14:20:22Z</time>
      </trkpt>
      <trkpt lat="45.07203" lon="6.04798">
        <ele>1474.629718</ele>
        <time>2013-07-14T14:20:27Z</time>
      </trkpt>
      <trkpt lat="45.07089" lon="6.04728">
        <ele>1392.522657</ele>
        <time>2013-07-14T14:20:32Z</time>
      </trkpt>
      <trkpt lat="45.07016" lon="6.04604">
        <ele>1345.775066</ele>
        <time>2013-07-14T14:20:37Z</time>
      </trkpt>
      <trkpt lat="45.06936" lon="6.04557">
        <ele>1630.37993</ele>
        <time>2013-07-14T14:20:50Z</time>
      </trkpt>
      <trkpt lat="45.06877" lon="6.04485">
        <ele>1643.265807</ele>
        <time>2013-07-14T14:20:55Z</time>
      </trkpt>
      <trkpt lat="45.06813" lon="6.04471">
        <ele>1660.36984</ele>
        <time>2013-07-14T14:21:00Z</time>
      </trkpt>
      <trkpt lat="45.06755" lon="6.04427">
        <ele>1637.70338</ele>
        <time>2013-07-14T14:21:05Z</time>
      </trkpt>
      <trkpt lat="45.06848" lon="6.04523">
        <ele>1612.826011</ele>
        <time>2013-07-14T14:21:10Z</time>
      </trkpt>
      <trkpt lat="45.06857" lon="6.04571">
        <ele>1517.851492</ele>
        <time>2013-07-14T14:21:15Z</time>
      </trkpt>
      <trkpt lat="45.06869" lon="6.04596">
        <ele>1599.39966</ele>
        <time>2013-07-14T14:23:27Z</time>
      </trkpt>
      <trkpt lat="45.06909" lon="6.04609">
        <ele>1550.789647</ele>
        <time>2013-07-14T14:23:32Z</time>
      </trkpt>
      <trkpt lat="45.06969" lon="6.04674">
        <ele>1478.670631</ele>
        <time>2013-07-14T14:23:37Z</time>
      </trkpt>
      <trkpt lat="45.06995" lon="6.04741">
        <ele>1619.71009</ele>
        <time>2013-07-14T14:23:49Z</time>
      </trkpt>
      <trkpt lat="45.07006" lon="6.04807">
        <ele>1617.238914</ele>
        <time>2013-07-14T14:23:54Z</time>
      </trkpt>
      <trkpt lat="45.07075" lon="6.0485">
        <ele>1595.032614</ele>
        <time>2013-07-14T14:23:59Z</time>
      </trkpt>
      <trkpt lat="45.07055" lon="6.04895">
        <ele>1479.499737</ele>
        <time>2013-07-14T14:24:04Z</time>
      </trkpt>
      <trkpt lat="45.07037" lon="6.0494">
        <ele>1444.66558</ele>
        <time>2013-07-14T14:24:09Z</time>
      </trkpt>
      <trkpt lat="45.0706" lon="6.05014">
        <ele>1625.648536</ele>
        <time>2013-07-14T14:24:30Z</time>
      </trkpt>
      <trkpt lat="45.07053" lon="6.05145">
        <ele>1607.319325</ele>
        <time>2013-07-14T14:24:35Z</time>
      </trkpt>
      <trkpt lat="45.07043" lon="6.05231">
        <ele>1559.909607</ele>
        <time>2013-07-14T14:24:40Z</time>
      </trkpt>
      <trkpt lat="45.07028" lon="6.05316">
        <ele>1526.997586</ele>
        <time>2013-07-14T14:24:45Z</time>
      </trkpt>
      <trkpt lat="45.07001" lon="6.05373">
        <ele>1531.501693</ele>
        <time>2013-07-14T14:25:12Z</time>
      </trkpt>
      <trkpt lat="45.0698" lon="6.05316">
        <ele>1491.451955</ele>
        <time>2013-07-14T14:25:17Z</time>
      </trkpt>
      <trkpt lat="45.06905" lon="6.0516">
        <ele>1519.352558</ele>
        <time>2013-07-14T14:25:22Z</time>
      </trkpt>
      <trkpt lat="45.06847" lon="6.05136">
        <ele>1561.58653</ele>
        <time>2013-07-14T14:25:27Z</time>
      </trkpt>
      <trkpt lat="45.06841" lon="6.05102">
        <ele>1602.592455</ele>
        <time>2013-07-14T14:25:32Z</time>
      </trkpt>
      <trkpt lat="45.06821" lon="6.05065">
        <ele>1622.735103</ele>
        <time>2013-07-14T14:25:37Z</time>
      </trkpt>
      <trkpt lat="45.06791" lon="6.05063">
        <ele>1635.590124</ele>
        <time>2013-07-14T14:25:42Z</time>
      </trkpt>
      <trkpt lat="45.06727" lon="6.04953">
        <ele>1557.212338</ele>
        <time>2013-07-14T14:25:47Z</time>
      </trkpt>
      <trkpt lat="45.06712" lon="6.04943">
        <ele>1624.011543</ele>
        <time>2013-07-14T14:26:37Z</time>
      </trkpt>
      <trkpt lat="45.06702" lon="6.04935">
        <ele>1635.767171</ele>
        <time>2013-07-14T14:26:42Z</time>
      </trkpt>
      <trkpt lat="45.0668" lon="6.04919">
        <ele>1630.89404</ele>
        <time>2013-07-14T14:26:47Z</time>
      </trkpt>
      <trkpt lat="45.06649" lon="6.04902">
        <ele>1610.582341</ele>
        <time>2013-07-14T14:26:52Z</time>
      </trkpt>
      <trkpt lat="45.06625" lon="6.04871">
        <ele>1569.027701</ele>
        <time>2013-07-14T14:26:57Z</time>
      </trkpt>
      <trkpt lat="45.06594" lon="6.0483">
        <ele>1504.076603</ele>
        <time>2013-07-14T14:27:02Z</time>
      </trkpt>
      <trkpt lat="45.06533" lon="6.04794">
        <ele>1433.265506</ele>
        <time>2013-07-14T14:27:07Z</time>
      </trkpt>
      <trkpt lat="45.06411" lon="6.04822">
        <ele>1622.242699</ele>
        <time>2013-07-14T14:28:55Z</time>
      </trkpt>
      <trkpt lat="45.06388" lon="6.04798">
        <ele>1643.044641</ele>
        <time>2013-07-14T14:29:00Z</time>
      </trkpt>
      <trkpt lat="45.06368" lon="6.04782">
        <ele>1641.314655</ele>
        <time>2013-07-14T14:29:05Z</time>
      </trkpt>
      <trkpt lat="45.06351" lon="6.04777">
        <ele>1550.024593</ele>
        <time>2013-07-14T14:29:10Z</time>
      </trkpt>
      <trkpt lat="45.06299" lon="6.04762">
        <ele>1576.316198</ele>
        <time>2013-07-14T14:29:35Z</time>
      </trkpt>
      <trkpt lat="45.06245" lon="6.04741">
        <ele>1598.371565</ele>
        <time>2013-07-14T14:29:40Z</time>
      </trkpt>
      <trkpt lat="45.0623" lon="6.04735">
        <ele>1616.383464</ele>
        <time>2013-07-14T14:29:45Z</time>
      </trkpt>
      <trkpt lat="45.06196" lon="6.04734">
        <ele>1628.224746</ele>
        <time>2013-07-14T14:29:50Z</time>
      </trkpt>
      <trkpt lat="45.06147" lon="6.04798">
        <ele>1621.064912</ele>
        <time>2013-07-14T14:31:00Z</time>
      </trkpt>
      <trkpt lat="45.06139" lon="6.04794">
        <ele>1620.88338</ele>
        <time>2013-07-14T14:31:05Z</time>
      </trkpt>
      <trkpt lat="45.06131" lon="6.04821">
        <ele>1622.123032</ele>
        <time>2013-07-14T14:31:10Z</time>
      </trkpt>
      <trkpt lat="45.06067" lon="6.04969">
        <ele>1620.879927</ele>
        <time>2013-07-14T14:31:35Z</time>
      </trkpt>
      <trkpt lat="45.05931" lon="6.04989">
        <ele>1621.655218</ele>
        <time>2013-07-14T14:32:25Z</time>
      </trkpt>
      <trkpt lat="45.05923" lon="6.05173">
        <ele>1621.129753</ele>
        <time>2013-07-14T14:34:42Z</time>
      </trkpt>
      <trkpt lat="45.05819" lon="6.05179">
        <ele>1622.139916</ele>
        <time>2013-07-14T14:34:47Z</time>
      </trkpt>
      <trkpt lat="45.05781" lon="6.0528">
        <ele>1619.685167</ele>
        <time>2013-07-14T14:36:28Z</time>
      </trkpt>
      <trkpt lat="45.05716" lon="6.05208">
        <ele>1621.233198</ele>
        <time>2013-07-14T14:36:33Z</time>
      </trkpt>
      <trkpt lat="45.0557" lon="6.05157">
        <ele>1619.863017</ele>
        <time>2013-07-14T14:37:31Z</time>
      </trkpt>
      <trkpt lat="45.05527" lon="6.05258">
        <ele>1620.321337</ele>
        <time>2013-07-14T14:38:41Z</time>
      </trkpt>
      <trkpt lat="45.05514" lon="6.05254">
        <ele>1620.821841</ele>
        <time>2013-07-14T14:38:46Z</time>
      </trkpt>
      <trkpt lat="45.05511" lon="6.0528">
        <ele>1284.867979</ele>
        <time>2013-07-14T14:40:11Z</time>
      </trkpt>
      <trkpt lat="45.05505" lon="6.05303">
        <ele>1270.600109</ele>
        <time>2013-07-14T14:40:16Z</time>
      </trkpt>
      <trkpt lat="45.05497" lon="6.05326">
        <ele>1257.103981</ele>
        <time>2013-07-14T14:40:21Z</time>
      </trkpt>
      <trkpt lat="45.05489" lon="6.0534">
        <ele>1252.25057</ele>
        <time>2013-07-14T14:40:26Z</time>
      </trkpt>
      <trkpt lat="45.05485" lon="6.05359">
        <ele>1250.536903</ele>
        <time>2013-07-14T14:40:31Z</time>
      </trkpt>
      <trkpt lat="45.05475" lon="6.05373">
        <ele>1247.163036</ele>
        <time>2013-07-14T14:40:36Z</time>
      </trkpt>
      <trkpt lat="45.05471" lon="6.0539">
        <ele>1246.002924</ele>
        <time>2013-07-14T14:40:41Z</time>
      </trkpt>
      <trkpt lat="45.05474" lon="6.05411">
        <ele>1244.39032</ele>
        <time>2013-07-14T14:40:46Z</time>
      </trkpt>
      <trkpt lat="45.05474" lon="6.05429">
        <ele>1242.618159</ele>
        <time>2013-07-14T14:40:51Z</time>
      </trkpt>
      <trkpt lat="45.05479" lon="6.05445">
        <ele>1249.956813</ele>
        <time>2013-07-14T14:40:56Z</time>
      </trkpt>
      <trkpt lat="45.0548" lon="6.05463">
        <ele>1253.8258</ele>
        <time>2013-07-14T14:41:01Z</time>
      </trkpt>
      <trkpt lat="45.0547" lon="6.05469">
        <ele>1250.707502</ele>
        <time>2013-07-14T14:41:06Z</time>
      </trkpt>
      <trkpt lat="45.05461" lon="6.0547">
        <ele>1249.334712</ele>
        <time>2013-07-14T14:41:11Z</time>
      </trkpt>
      <trkpt lat="45.05453" lon="6.05468">
        <ele>1250.638743</ele>
        <time>2013-07-14T14:41:16Z</time>
      </trkpt>
      <trkpt lat="45.0544" lon="6.05471">
        <ele>1252.996706</ele>
        <time>2013-07-14T14:41:21Z</time>
      </trkpt>
      <trkpt lat="45.05428" lon="6.05479">
        <ele>1255.58881</ele>
        <time>2013-07-14T14:41:26Z</time>
      </trkpt>
      <trkpt lat="45.05417" lon="6.05492">
        <ele>1254.248193</ele>
        <time>2013-07-14T14:41:31Z</time>
      </trkpt>
      <trkpt lat="45.05408" lon="6.05507">
        <ele>1252.364709</ele>
        <time>2013-07-14T14:41:36Z</time>
      </trkpt>
      <trkpt lat="45.05402" lon="6.05523">
        <ele>1254.014853</ele>
        <time>2013-07-14T14:41:41Z</time>
      </trkpt>
      <trkpt lat="45.05393" lon="6.05535">
        <ele>1252.610375</ele>
        <time>2013-07-14T14:41:46Z</time>
      </trkpt>
      <trkpt lat="45.05386" lon="6.05549">
        <ele>1250.583222</ele>
        <time>2013-07-14T14:41:51Z</time>
      </trkpt>
      <trkpt lat="45.05379" lon="6.05565">
        <ele>1250.823187</ele>
        <time>2013-07-14T14:41:56Z</time>
      </trkpt>
      <trkpt lat="45.05369" lon="6.05572">
        <ele>1252.010488</ele>
        <time>2013-07-14T14:42:01Z</time>
      </trkpt>
      <trkpt lat="45.05361" lon="6.05584">
        <ele>1252.724162</ele>
        <time>2013-07-14T14:42:06Z</time>
      </trkpt>
      <trkpt lat="45.05352" lon="6.05595">
        <ele>1252.655566</ele>
        <time>2013-07-14T14:42:11Z</time>
      </trkpt>
      <trkpt lat="45.05346" lon="6.05606">
        <ele>1256.902861</ele>
        <time>2013-07-14T14:42:16Z</time>
      </trkpt>
      <trkpt lat="45.05336" lon="6.05616">
        <ele>1256.052016</ele>
        <time>2013-07-14T14:42:21Z</time>
      </trkpt>
      <trkpt lat="45.05329" lon="6.05625">
        <ele>1260.852792</ele>
        <time>2013-07-14T14:42:26Z</time>
      </trkpt>
      <trkpt lat="45.0532" lon="6.0563">
        <ele>1262.598929</ele>
        <time>2013-07-14T14:42:31Z</time>
      </trkpt>
      <trkpt lat="45.05311" lon="6.05639">
        <ele>1263.158422</ele>
        <time>2013-07-14T14:42:36Z</time>
      </trkpt>
      <trkpt lat="45.05304" lon="6.0565">
        <ele>1265.921012</ele>
        <time>2013-07-14T14:42:41Z</time>
      </trkpt>
      <trkpt lat="45.05296" lon="6.05668">
        <ele>1262.074257</ele>
        <time>2013-07-14T14:42:46Z</time>
      </trkpt>
      <trkpt lat="45.0529" lon="6.05682">
        <ele>1262.165439</ele>
        <time>2013-07-14T14:42:51Z</time>
      </trkpt>
      <trkpt lat="45.05282" lon="6.05695">
        <ele>1262.251397</ele>
        <time>2013-07-14T14:42:56Z</time>
      </trkpt>
      <trkpt lat="45.05274" lon="6.05704">
        <ele>1261.405994</ele>
        <time>2013-07-14T14:43:01Z</time>
      </trkpt>
      <trkpt lat="45.05266" lon="6.05714">
        <ele>1262.678638</ele>
        <time>2013-07-14T14:43:06Z</time>
      </trkpt>
      <trkpt lat="45.05262" lon="6.05727">
        <ele>1263.482914</ele>
        <time>2013-07-14T14:43:11Z</time>
      </trkpt>
      <trkpt lat="45.05261" lon="6.05742">
        <ele>1266.490271</ele>
        <time>2013-07-14T14:43:16Z</time>
      </trkpt>
      <trkpt lat="45.05259" lon="6.05754">
        <ele>1268.640792</ele>
        <time>2013-07-14T14:43:21Z</time>
      </trkpt>
      <trkpt lat="45.05254" lon="6.05765">
        <ele>1269.296025</ele>
        <time>2013-07-14T14:43:26Z</time>
      </trkpt>
      <trkpt lat="45.05245" lon="6.05772">
        <ele>1272.527188</ele>
        <time>2013-07-14T14:43:31Z</time>
      </trkpt>
      <trkpt lat="45.05237" lon="6.05782">
        <ele>1272.464222</ele>
        <time>2013-07-14T14:43:36Z</time>
      </trkpt>
      <trkpt lat="45.0523" lon="6.05793">
        <ele>1269.580742</ele>
        <time>2013-07-14T14:43:41Z</time>
      </trkpt>
      <trkpt lat="45.05225" lon="6.05802">
        <ele>1269.379176</ele>
        <time>2013-07-14T14:43:46Z</time>
      </trkpt>
      <trkpt lat="45.05224" lon="6.05804">
        <ele>1267.410271</ele>
        <time>2013-07-14T14:43:54Z</time>
      </trkpt>
      <trkpt lat="45.05223" lon="6.05804">
        <ele>1264.584502</ele>
        <time>2013-07-14T14:44:12Z</time>
      </trkpt>
      <trkpt lat="45.05225" lon="6.05804">
        <ele>1266.707755</ele>
        <time>2013-07-14T14:44:24Z</time>
      </trkpt>
      <trkpt lat="45.05223" lon="6.05808">
        <ele>1267.628708</ele>
        <time>2013-07-14T14:45:09Z</time>
      </trkpt>
      <trkpt lat="45.05217" lon="6.05819">
        <ele>1269.689062</ele>
        <time>2013-07-14T14:45:14Z</time>
      </trkpt>
      <trkpt lat="45.05212" lon="6.05833">
        <ele>1274.091132</ele>
        <time>2013-07-14T14:45:19Z</time>
      </trkpt>
      <trkpt lat="45.05208" lon="6.05846">
        <ele>1276.311112</ele>
        <time>2013-07-14T14:45:24Z</time>
      </trkpt>
      <trkpt lat="45.05204" lon="6.0586">
        <ele>1277.115614</ele>
        <time>2013-07-14T14:45:29Z</time>
      </trkpt>
      <trkpt lat="45.05197" lon="6.05872">
        <ele>1279.953127</ele>
        <time>2013-07-14T14:45:34Z</time>
      </trkpt>
      <trkpt lat="45.05187" lon="6.0588">
        <ele>1276.202466</ele>
        <time>2013-07-14T14:45:39Z</time>
      </trkpt>
      <trkpt lat="45.05172" lon="6.05877">
        <ele>1275.362677</ele>
        <time>2013-07-14T14:45:44Z</time>
      </trkpt>
      <trkpt lat="45.05161" lon="6.05881">
        <ele>1276.321691</ele>
        <time>2013-07-14T14:45:49Z</time>
      </trkpt>
      <trkpt lat="45.05156" lon="6.05893">
        <ele>1281.27729</ele>
        <time>2013-07-14T14:45:54Z</time>
      </trkpt>
      <trkpt lat="45.05149" lon="6.05907">
        <ele>1282.853776</ele>
        <time>2013-07-14T14:45:59Z</time>
      </trkpt>
      <trkpt lat="45.05136" lon="6.05914">
        <ele>1280.428507</ele>
        <time>2013-07-14T14:46:04Z</time>
      </trkpt>
      <trkpt lat="45.05123" lon="6.05916">
        <ele>1280.600089</ele>
        <time>2013-07-14T14:46:09Z</time>
      </trkpt>
      <trkpt lat="45.05112" lon="6.05923">
        <ele>1279.595576</ele>
        <time>2013-07-14T14:46:14Z</time>
      </trkpt>
      <trkpt lat="45.05103" lon="6.05933">
        <ele>1280.230283</ele>
        <time>2013-07-14T14:46:19Z</time>
      </trkpt>
      <trkpt lat="45.05095" lon="6.05945">
        <ele>1282.355064</ele>
        <time>2013-07-14T14:46:24Z</time>
      </trkpt>
      <trkpt lat="45.05084" lon="6.05948">
        <ele>1281.829428</ele>
        <time>2013-07-14T14:46:29Z</time>
      </trkpt>
      <trkpt lat="45.051" lon="6.05979">
        <ele>1290.743496</ele>
        <time>2013-07-14T14:46:34Z</time>
      </trkpt>
      <trkpt lat="45.05091" lon="6.05991">
        <ele>1292.1606</ele>
        <time>2013-07-14T14:46:39Z</time>
      </trkpt>
      <trkpt lat="45.05079" lon="6.06003">
        <ele>1294.344442</ele>
        <time>2013-07-14T14:46:44Z</time>
      </trkpt>
      <trkpt lat="45.05071" lon="6.06018">
        <ele>1293.09545</ele>
        <time>2013-07-14T14:46:49Z</time>
      </trkpt>
      <trkpt lat="45.05061" lon="6.06026">
        <ele>1294.28369</ele>
        <time>2013-07-14T14:46:54Z</time>
      </trkpt>
      <trkpt lat="45.05055" lon="6.06038">
        <ele>1295.008772</ele>
        <time>2013-07-14T14:46:59Z</time>
      </trkpt>
      <trkpt lat="45.05048" lon="6.06046">
        <ele>1297.617711</ele>
        <time>2013-07-14T14:47:04Z</time>
      </trkpt>
      <trkpt lat="45.05039" lon="6.06056">
        <ele>1297.550125</ele>
        <time>2013-07-14T14:47:09Z</time>
      </trkpt>
      <trkpt lat="45.05032" lon="6.06064">
        <ele>1297.338574</ele>
        <time>2013-07-14T14:47:14Z</time>
      </trkpt>
      <trkpt lat="45.05023" lon="6.06071">
        <ele>1297.754984</ele>
        <time>2013-07-14T14:47:19Z</time>
      </trkpt>
      <trkpt lat="45.05015" lon="6.06082">
        <ele>1299.09773</ele>
        <time>2013-07-14T14:47:24Z</time>
      </trkpt>
      <trkpt lat="45.05006" lon="6.0609">
        <ele>1298.881049</ele>
        <time>2013-07-14T14:47:29Z</time>
      </trkpt>
      <trkpt lat="45.04994" lon="6.06093">
        <ele>1298.425053</ele>
        <time>2013-07-14T14:47:34Z</time>
      </trkpt>
      <trkpt lat="45.04979" lon="6.06087">
        <ele>1300.885037</ele>
        <time>2013-07-14T14:47:39Z</time>
      </trkpt>
      <trkpt lat="45.04962" lon="6.06083">
        <ele>1296.437764</ele>
        <time>2013-07-14T14:47:44Z</time>
      </trkpt>
      <trkpt lat="45.04945" lon="6.06075">
        <ele>1294.58212</ele>
        <time>2013-07-14T14:47:49Z</time>
      </trkpt>
      <trkpt lat="45.04933" lon="6.06076">
        <ele>1295.38734</ele>
        <time>2013-07-14T14:47:54Z</time>
      </trkpt>
      <trkpt lat="45.04931" lon="6.06095">
        <ele>1295.798554</ele>
        <time>2013-07-14T14:47:59Z</time>
      </trkpt>
      <trkpt lat="45.04934" lon="6.06114">
        <ele>1299.753547</ele>
        <time>2013-07-14T14:48:04Z</time>
      </trkpt>
      <trkpt lat="45.04939" lon="6.06146">
        <ele>1307.285458</ele>
        <time>2013-07-14T14:48:09Z</time>
      </trkpt>
      <trkpt lat="45.0493" lon="6.06157">
        <ele>1308.000482</ele>
        <time>2013-07-14T14:48:14Z</time>
      </trkpt>
      <trkpt lat="45.04924" lon="6.06169">
        <ele>1310.838675</ele>
        <time>2013-07-14T14:48:19Z</time>
      </trkpt>
      <trkpt lat="45.04919" lon="6.06181">
        <ele>1310.861529</ele>
        <time>2013-07-14T14:48:24Z</time>
      </trkpt>
      <trkpt lat="45.04912" lon="6.06191">
        <ele>1310.02231</ele>
        <time>2013-07-14T14:48:29Z</time>
      </trkpt>
      <trkpt lat="45.04904" lon="6.062">
        <ele>1311.998471</ele>
        <time>2013-07-14T14:48:34Z</time>
      </trkpt>
      <trkpt lat="45.04898" lon="6.0621">
        <ele>1312.57471</ele>
        <time>2013-07-14T14:48:39Z</time>
      </trkpt>
      <trkpt lat="45.04891" lon="6.0622">
        <ele>1316.040942</ele>
        <time>2013-07-14T14:48:44Z</time>
      </trkpt>
      <trkpt lat="45.04884" lon="6.06228">
        <ele>1322.17849</ele>
        <time>2013-07-14T14:48:49Z</time>
      </trkpt>
      <trkpt lat="45.04877" lon="6.06228">
        <ele>1320.811906</ele>
        <time>2013-07-14T14:48:54Z</time>
      </trkpt>
      <trkpt lat="45.04872" lon="6.06223">
        <ele>1329.029018</ele>
        <time>2013-07-14T14:48:59Z</time>
      </trkpt>
      <trkpt lat="45.04858" lon="6.06233">
        <ele>1328.941312</ele>
        <time>2013-07-14T14:49:04Z</time>
      </trkpt>
      <trkpt lat="45.04846" lon="6.06246">
        <ele>1324.782397</ele>
        <time>2013-07-14T14:49:09Z</time>
      </trkpt>
      <trkpt lat="45.04839" lon="6.06254">
        <ele>1331.622581</ele>
        <time>2013-07-14T14:49:14Z</time>
      </trkpt>
      <trkpt lat="45.0483" lon="6.06259">
        <ele>1333.369914</ele>
        <time>2013-07-14T14:49:19Z</time>
      </trkpt>
      <trkpt lat="45.04816" lon="6.0626">
        <ele>1334.872847</ele>
        <time>2013-07-14T14:49:24Z</time>
      </trkpt>
      <trkpt lat="45.04804" lon="6.06265">
        <ele>1334.497127</ele>
        <time>2013-07-14T14:49:29Z</time>
      </trkpt>
      <trkpt lat="45.04794" lon="6.06275">
        <ele>1332.940168</ele>
        <time>2013-07-14T14:49:34Z</time>
      </trkpt>
      <trkpt lat="45.04794" lon="6.06287">
        <ele>1338.624859</ele>
        <time>2013-07-14T14:49:39Z</time>
      </trkpt>
      <trkpt lat="45.04788" lon="6.06294">
        <ele>1341.164877</ele>
        <time>2013-07-14T14:49:44Z</time>
      </trkpt>
      <trkpt lat="45.04788" lon="6.06311">
        <ele>1347.148089</ele>
        <time>2013-07-14T14:49:49Z</time>
      </trkpt>
      <trkpt lat="45.04784" lon="6.06312">
        <ele>1347.207312</ele>
        <time>2013-07-14T14:49:54Z</time>
      </trkpt>
      <trkpt lat="45.04782" lon="6.06313">
        <ele>1347.271671</ele>
        <time>2013-07-14T14:49:59Z</time>
      </trkpt>
      <trkpt lat="45.04785" lon="6.06315">
        <ele>1349.549145</ele>
        <time>2013-07-14T14:50:04Z</time>
      </trkpt>
      <trkpt lat="45.04786" lon="6.06331">
        <ele>1358.991118</ele>
        <time>2013-07-14T14:50:09Z</time>
      </trkpt>
      <trkpt lat="45.04785" lon="6.06323">
        <ele>1365.589524</ele>
        <time>2013-07-14T14:50:14Z</time>
      </trkpt>
      <trkpt lat="45.04796" lon="6.06306">
        <ele>1388.70953</ele>
        <time>2013-07-14T14:50:19Z</time>
      </trkpt>
      <trkpt lat="45.04787" lon="6.06298">
        <ele>1396.054331</ele>
        <time>2013-07-14T14:50:24Z</time>
      </trkpt>
      <trkpt lat="45.04774" lon="6.06301">
        <ele>1396.929442</ele>
        <time>2013-07-14T14:50:29Z</time>
      </trkpt>
      <trkpt lat="45.04742" lon="6.06324">
        <ele>1384.196299</ele>
        <time>2013-07-14T14:50:34Z</time>
      </trkpt>
      <trkpt lat="45.04727" lon="6.06347">
        <ele>1371.380675</ele>
        <time>2013-07-14T14:50:39Z</time>
      </trkpt>
      <trkpt lat="45.04723" lon="6.06353">
        <ele>1371.035898</ele>
        <time>2013-07-14T14:50:44Z</time>
      </trkpt>
      <trkpt lat="45.04705" lon="6.06352">
        <ele>1366.100428</ele>
        <time>2013-07-14T14:50:49Z</time>
      </trkpt>
      <trkpt lat="45.04688" lon="6.06365">
        <ele>1361.921564</ele>
        <time>2013-07-14T14:50:54Z</time>
      </trkpt>
      <trkpt lat="45.04675" lon="6.06379">
        <ele>1354.937571</ele>
        <time>2013-07-14T14:50:59Z</time>
      </trkpt>
      <trkpt lat="45.04669" lon="6.0638">
        <ele>1354.35873</ele>
        <time>2013-07-14T14:51:04Z</time>
      </trkpt>
      <trkpt lat="45.04608" lon="6.06484">
        <ele>1374.222741</ele>
        <time>2013-07-14T14:52:54Z</time>
      </trkpt>
      <trkpt lat="45.04541" lon="6.06486">
        <ele>1390.535004</ele>
        <time>2013-07-14T14:52:59Z</time>
      </trkpt>
      <trkpt lat="45.04441" lon="6.06557">
        <ele>1406.898226</ele>
        <time>2013-07-14T14:53:04Z</time>
      </trkpt>
      <trkpt lat="45.04415" lon="6.06609">
        <ele>1405.34727</ele>
        <time>2013-07-14T14:53:09Z</time>
      </trkpt>
      <trkpt lat="45.04379" lon="6.06682">
        <ele>1391.235871</ele>
        <time>2013-07-14T14:53:53Z</time>
      </trkpt>
      <trkpt lat="45.04359" lon="6.067">
        <ele>1390.944904</ele>
        <time>2013-07-14T14:53:58Z</time>
      </trkpt>
      <trkpt lat="45.04346" lon="6.06715">
        <ele>1392.573053</ele>
        <time>2013-07-14T14:54:03Z</time>
      </trkpt>
      <trkpt lat="45.04333" lon="6.06727">
        <ele>1396.872403</ele>
        <time>2013-07-14T14:54:08Z</time>
      </trkpt>
      <trkpt lat="45.0432" lon="6.06745">
        <ele>1394.419262</ele>
        <time>2013-07-14T14:54:13Z</time>
      </trkpt>
      <trkpt lat="45.0431" lon="6.06761">
        <ele>1393.23711</ele>
        <time>2013-07-14T14:54:18Z</time>
      </trkpt>
      <trkpt lat="45.04299" lon="6.06779">
        <ele>1388.676235</ele>
        <time>2013-07-14T14:54:23Z</time>
      </trkpt>
      <trkpt lat="45.04288" lon="6.06795">
        <ele>1386.786543</ele>
        <time>2013-07-14T14:54:28Z</time>
      </trkpt>
      <trkpt lat="45.04273" lon="6.06809">
        <ele>1384.104543</ele>
        <time>2013-07-14T14:54:33Z</time>
      </trkpt>
      <trkpt lat="45.04262" lon="6.06827">
        <ele>1380.246453</ele>
        <time>2013-07-14T14:54:38Z</time>
      </trkpt>
      <trkpt lat="45.04255" lon="6.06846">
        <ele>1379.936599</ele>
        <time>2013-07-14T14:54:43Z</time>
      </trkpt>
      <trkpt lat="45.04249" lon="6.06857">
        <ele>1375.650453</ele>
        <time>2013-07-14T14:54:48Z</time>
      </trkpt>
      <trkpt lat="45.04239" lon="6.06859">
        <ele>1372.939284</ele>
        <time>2013-07-14T14:54:53Z</time>
      </trkpt>
      <trkpt lat="45.04223" lon="6.06862">
        <ele>1375.998535</ele>
        <time>2013-07-14T14:54:58Z</time>
      </trkpt>
      <trkpt lat="45.04216" lon="6.06864">
        <ele>1385.36177</ele>
        <time>2013-07-14T14:55:03Z</time>
      </trkpt>
      <trkpt lat="45.04197" lon="6.0687">
        <ele>1380.801609</ele>
        <time>2013-07-14T14:55:08Z</time>
      </trkpt>
      <trkpt lat="45.04178" lon="6.06881">
        <ele>1378.653214</ele>
        <time>2013-07-14T14:55:13Z</time>
      </trkpt>
      <trkpt lat="45.0417" lon="6.06892">
        <ele>1385.718937</ele>
        <time>2013-07-14T14:55:18Z</time>
      </trkpt>
      <trkpt lat="45.04163" lon="6.069">
        <ele>1396.088692</ele>
        <time>2013-07-14T14:55:23Z</time>
      </trkpt>
      <trkpt lat="45.04154" lon="6.06911">
        <ele>1398.918713</ele>
        <time>2013-07-14T14:55:28Z</time>
      </trkpt>
      <trkpt lat="45.04145" lon="6.06935">
        <ele>1389.728875</ele>
        <time>2013-07-14T14:55:33Z</time>
      </trkpt>
      <trkpt lat="45.04137" lon="6.06954">
        <ele>1388.004118</ele>
        <time>2013-07-14T14:55:38Z</time>
      </trkpt>
      <trkpt lat="45.04134" lon="6.06967">
        <ele>1394.457004</ele>
        <time>2013-07-14T14:55:43Z</time>
      </trkpt>
      <trkpt lat="45.04124" lon="6.06973">
        <ele>1397.685946</ele>
        <time>2013-07-14T14:55:48Z</time>
      </trkpt>
      <trkpt lat="45.04115" lon="6.06966">
        <ele>1405.81375</ele>
        <time>2013-07-14T14:55:53Z</time>
      </trkpt>
      <trkpt lat="45.04115" lon="6.06951">
        <ele>1414.858691</ele>
        <time>2013-07-14T14:55:58Z</time>
      </trkpt>
      <trkpt lat="45.04101" lon="6.06961">
        <ele>1396.291041</ele>
        <time>2013-07-14T14:56:03Z</time>
      </trkpt>
      <trkpt lat="45.04083" lon="6.06958">
        <ele>1393.326224</ele>
        <time>2013-07-14T14:56:08Z</time>
      </trkpt>
      <trkpt lat="45.04065" lon="6.06956">
        <ele>1401.085301</ele>
        <time>2013-07-14T14:56:13Z</time>
      </trkpt>
      <trkpt lat="45.04047" lon="6.06964">
        <ele>1409.372402</ele>
        <time>2013-07-14T14:56:18Z</time>
      </trkpt>
      <trkpt lat="45.04037" lon="6.06978">
        <ele>1413.054775</ele>
        <time>2013-07-14T14:56:23Z</time>
      </trkpt>
      <trkpt lat="45.04033" lon="6.06978">
        <ele>1423.689026</ele>
        <time>2013-07-14T14:56:28Z</time>
      </trkpt>
      <trkpt lat="45.04025" lon="6.06975">
        <ele>1427.107723</ele>
        <time>2013-07-14T14:56:33Z</time>
      </trkpt>
      <trkpt lat="45.04005" lon="6.06979">
        <ele>1419.57344</ele>
        <time>2013-07-14T14:56:38Z</time>
      </trkpt>
      <trkpt lat="45.03985" lon="6.06985">
        <ele>1408.665516</ele>
        <time>2013-07-14T14:56:43Z</time>
      </trkpt>
      <trkpt lat="45.03974" lon="6.06996">
        <ele>1402.949828</ele>
        <time>2013-07-14T14:56:48Z</time>
      </trkpt>
      <trkpt lat="45.03962" lon="6.06997">
        <ele>1409.398454</ele>
        <time>2013-07-14T14:56:53Z</time>
      </trkpt>
      <trkpt lat="45.03944" lon="6.07009">
        <ele>1408.745938</ele>
        <time>2013-07-14T14:56:58Z</time>
      </trkpt>
      <trkpt lat="45.03928" lon="6.07024">
        <ele>1406.837622</ele>
        <time>2013-07-14T14:57:03Z</time>
      </trkpt>
      <trkpt lat="45.03918" lon="6.07026">
        <ele>1418.304352</ele>
        <time>2013-07-14T14:57:08Z</time>
      </trkpt>
      <trkpt lat="45.03909" lon="6.07032">
        <ele>1420.12845</ele>
        <time>2013-07-14T14:57:13Z</time>
      </trkpt>
      <trkpt lat="45.03899" lon="6.07035">
        <ele>1433.787785</ele>
        <time>2013-07-14T14:57:18Z</time>
      </trkpt>
      <trkpt lat="45.03888" lon="6.07039">
        <ele>1433.339711</ele>
        <time>2013-07-14T14:57:23Z</time>
      </trkpt>
      <trkpt lat="45.03857" lon="6.07059">
        <ele>1405.509627</ele>
        <time>2013-07-14T14:57:28Z</time>
      </trkpt>
      <trkpt lat="45.03841" lon="6.07087">
        <ele>1400.825803</ele>
        <time>2013-07-14T14:57:33Z</time>
      </trkpt>
      <trkpt lat="45.03831" lon="6.07122">
        <ele>1398.65816</ele>
        <time>2013-07-14T14:57:38Z</time>
      </trkpt>
      <trkpt lat="45.03821" lon="6.07165">
        <ele>1395.528854</ele>
        <time>2013-07-14T14:57:43Z</time>
      </trkpt>
      <trkpt lat="45.038" lon="6.07202">
        <ele>1393.541612</ele>
        <time>2013-07-14T14:57:48Z</time>
      </trkpt>
      <trkpt lat="45.03785" lon="6.0724">
        <ele>1397.922753</ele>
        <time>2013-07-14T14:57:53Z</time>
      </trkpt>
      <trkpt lat="45.03767" lon="6.07269">
        <ele>1399.727929</ele>
        <time>2013-07-14T14:57:58Z</time>
      </trkpt>
      <trkpt lat="45.03762" lon="6.07293">
        <ele>1403.954125</ele>
        <time>2013-07-14T14:58:03Z</time>
      </trkpt>
      <trkpt lat="45.03768" lon="6.07314">
        <ele>1412.305652</ele>
        <time>2013-07-14T14:58:08Z</time>
      </trkpt>
      <trkpt lat="45.03775" lon="6.07328">
        <ele>1427.259885</ele>
        <time>2013-07-14T14:58:13Z</time>
      </trkpt>
      <trkpt lat="45.0378" lon="6.07351">
        <ele>1425.809642</ele>
        <time>2013-07-14T14:58:18Z</time>
      </trkpt>
      <trkpt lat="45.03782" lon="6.07373">
        <ele>1403.674332</ele>
        <time>2013-07-14T14:58:23Z</time>
      </trkpt>
      <trkpt lat="45.03784" lon="6.07395">
        <ele>1390.075313</ele>
        <time>2013-07-14T14:58:28Z</time>
      </trkpt>
      <trkpt lat="45.03797" lon="6.07401">
        <ele>1381.184511</ele>
        <time>2013-07-14T14:58:33Z</time>
      </trkpt>
      <trkpt lat="45.03823" lon="6.07405">
        <ele>1352.300314</ele>
        <time>2013-07-14T14:58:38Z</time>
      </trkpt>
      <trkpt lat="45.03843" lon="6.07412">
        <ele>1336.382966</ele>
        <time>2013-07-14T14:58:43Z</time>
      </trkpt>
      <trkpt lat="45.03861" lon="6.07415">
        <ele>1316.63361</ele>
        <time>2013-07-14T14:58:48Z</time>
      </trkpt>
      <trkpt lat="45.03872" lon="6.0742">
        <ele>1304.135241</ele>
        <time>2013-07-14T14:58:53Z</time>
      </trkpt>
      <trkpt lat="45.03885" lon="6.07428">
        <ele>1310.981698</ele>
        <time>2013-07-14T14:58:58Z</time>
      </trkpt>
      <trkpt lat="45.03901" lon="6.0744">
        <ele>1315.8747</ele>
        <time>2013-07-14T14:59:03Z</time>
      </trkpt>
      <trkpt lat="45.03916" lon="6.07447">
        <ele>1313.412501</ele>
        <time>2013-07-14T14:59:08Z</time>
      </trkpt>
      <trkpt lat="45.03926" lon="6.07454">
        <ele>1291.819982</ele>
        <time>2013-07-14T14:59:13Z</time>
      </trkpt>
      <trkpt lat="45.03939" lon="6.07488">
        <ele>1355.540561</ele>
        <time>2013-07-14T14:59:18Z</time>
      </trkpt>
      <trkpt lat="45.0395" lon="6.07506">
        <ele>1360.08528</ele>
        <time>2013-07-14T14:59:23Z</time>
      </trkpt>
      <trkpt lat="45.03956" lon="6.0752">
        <ele>1372.99695</ele>
        <time>2013-07-14T14:59:28Z</time>
      </trkpt>
      <trkpt lat="45.03961" lon="6.07536">
        <ele>1385.978488</ele>
        <time>2013-07-14T14:59:33Z</time>
      </trkpt>
      <trkpt lat="45.03981" lon="6.07558">
        <ele>1372.29961</ele>
        <time>2013-07-14T14:59:38Z</time>
      </trkpt>
      <trkpt lat="45.03998" lon="6.0757">
        <ele>1368.028949</ele>
        <time>2013-07-14T14:59:43Z</time>
      </trkpt>
      <trkpt lat="45.04015" lon="6.07581">
        <ele>1369.3295</ele>
        <time>2013-07-14T14:59:48Z</time>
      </trkpt>
      <trkpt lat="45.04032" lon="6.0759">
        <ele>1362.014115</ele>
        <time>2013-07-14T14:59:53Z</time>
      </trkpt>
      <trkpt lat="45.04052" lon="6.076">
        <ele>1382.435339</ele>
        <time>2013-07-14T14:59:58Z</time>
      </trkpt>
      <trkpt lat="45.04069" lon="6.07607">
        <ele>1393.453252</ele>
        <time>2013-07-14T15:00:03Z</time>
      </trkpt>
      <trkpt lat="45.04082" lon="6.07631">
        <ele>1409.031515</ele>
        <time>2013-07-14T15:00:08Z</time>
      </trkpt>
      <trkpt lat="45.0408" lon="6.07654">
        <ele>1413.198353</ele>
        <time>2013-07-14T15:00:13Z</time>
      </trkpt>
      <trkpt lat="45.04077" lon="6.07658">
        <ele>1412.779984</ele>
        <time>2013-07-14T15:00:18Z</time>
      </trkpt>
      <trkpt lat="45.04068" lon="6.07668">
        <ele>1452.35211</ele>
        <time>2013-07-14T15:00:23Z</time>
      </trkpt>
      <trkpt lat="45.04065" lon="6.0767">
        <ele>1424.137312</ele>
        <time>2013-07-14T15:00:28Z</time>
      </trkpt>
      <trkpt lat="45.04058" lon="6.07674">
        <ele>1410.229452</ele>
        <time>2013-07-14T15:00:33Z</time>
      </trkpt>
      <trkpt lat="45.04042" lon="6.07696">
        <ele>1407.993139</ele>
        <time>2013-07-14T15:00:38Z</time>
      </trkpt>
      <trkpt lat="45.04016" lon="6.07735">
        <ele>1408.254539</ele>
        <time>2013-07-14T15:00:43Z</time>
      </trkpt>
      <trkpt lat="45.04009" lon="6.07757">
        <ele>1403.157909</ele>
        <time>2013-07-14T15:00:48Z</time>
      </trkpt>
      <trkpt lat="45.04004" lon="6.0778">
        <ele>1390.387263</ele>
        <time>2013-07-14T15:00:53Z</time>
      </trkpt>
      <trkpt lat="45.03993" lon="6.07802">
        <ele>1381.747785</ele>
        <time>2013-07-14T15:00:58Z</time>
      </trkpt>
      <trkpt lat="45.0399" lon="6.07826">
        <ele>1375.405597</ele>
        <time>2013-07-14T15:01:03Z</time>
      </trkpt>
      <trkpt lat="45.03994" lon="6.07852">
        <ele>1371.988522</ele>
        <time>2013-07-14T15:01:08Z</time>
      </trkpt>
      <trkpt lat="45.03995" lon="6.07874">
        <ele>1350.556986</ele>
        <time>2013-07-14T15:01:13Z</time>
      </trkpt>
      <trkpt lat="45.03999" lon="6.07902">
        <ele>1357.864013</ele>
        <time>2013-07-14T15:01:18Z</time>
      </trkpt>
      <trkpt lat="45.04006" lon="6.07923">
        <ele>1359.091088</ele>
        <time>2013-07-14T15:01:23Z</time>
      </trkpt>
      <trkpt lat="45.04011" lon="6.07934">
        <ele>1349.135298</ele>
        <time>2013-07-14T15:01:28Z</time>
      </trkpt>
      <trkpt lat="45.04026" lon="6.07954">
        <ele>1359.486455</ele>
        <time>2013-07-14T15:01:33Z</time>
      </trkpt>
      <trkpt lat="45.04042" lon="6.07975">
        <ele>1382.684489</ele>
        <time>2013-07-14T15:01:38Z</time>
      </trkpt>
      <trkpt lat="45.0405" lon="6.07982">
        <ele>1387.324213</ele>
        <time>2013-07-14T15:01:43Z</time>
      </trkpt>
      <trkpt lat="45.04056" lon="6.07986">
        <ele>1388.983847</ele>
        <time>2013-07-14T15:01:48Z</time>
      </trkpt>
      <trkpt lat="45.04062" lon="6.07993">
        <ele>1392.90604</ele>
        <time>2013-07-14T15:01:53Z</time>
      </trkpt>
      <trkpt lat="45.04069" lon="6.08006">
        <ele>1395.094562</ele>
        <time>2013-07-14T15:01:58Z</time>
      </trkpt>
      <trkpt lat="45.04067" lon="6.08023">
        <ele>1386.190879</ele>
        <time>2013-07-14T15:02:03Z</time>
      </trkpt>
      <trkpt lat="45.04064" lon="6.08039">
        <ele>1365.148024</ele>
        <time>2013-07-14T15:02:08Z</time>
      </trkpt>
      <trkpt lat="45.0407" lon="6.08061">
        <ele>1360.734512</ele>
        <time>2013-07-14T15:02:13Z</time>
      </trkpt>
      <trkpt lat="45.04079" lon="6.08085">
        <ele>1358.593586</ele>
        <time>2013-07-14T15:02:18Z</time>
      </trkpt>
      <trkpt lat="45.0409" lon="6.08106">
        <ele>1373.310687</ele>
        <time>2013-07-14T15:02:23Z</time>
      </trkpt>
      <trkpt lat="45.041" lon="6.08128">
        <ele>1393.743658</ele>
        <time>2013-07-14T15:02:28Z</time>
      </trkpt>
      <trkpt lat="45.04111" lon="6.08151">
        <ele>1398.589243</ele>
        <time>2013-07-14T15:02:33Z</time>
      </trkpt>
      <trkpt lat="45.04124" lon="6.0817">
        <ele>1402.512689</ele>
        <time>2013-07-14T15:02:38Z</time>
      </trkpt>
      <trkpt lat="45.04138" lon="6.08185">
        <ele>1402.688523</ele>
        <time>2013-07-14T15:02:43Z</time>
      </trkpt>
      <trkpt lat="45.04153" lon="6.08202">
        <ele>1402.236665</ele>
        <time>2013-07-14T15:02:48Z</time>
      </trkpt>
      <trkpt lat="45.04161" lon="6.08221">
        <ele>1404.027438</ele>
        <time>2013-07-14T15:02:53Z</time>
      </trkpt>
      <trkpt lat="45.04166" lon="6.08244">
        <ele>1437.985246</ele>
        <time>2013-07-14T15:02:58Z</time>
      </trkpt>
      <trkpt lat="45.04174" lon="6.08263">
        <ele>1445.486918</ele>
        <time>2013-07-14T15:03:03Z</time>
      </trkpt>
      <trkpt lat="45.04179" lon="6.08282">
        <ele>1458.699438</ele>
        <time>2013-07-14T15:03:08Z</time>
      </trkpt>
      <trkpt lat="45.04185" lon="6.083">
        <ele>1471.76225</ele>
        <time>2013-07-14T15:03:13Z</time>
      </trkpt>
      <trkpt lat="45.04197" lon="6.08316">
        <ele>1474.823759</ele>
        <time>2013-07-14T15:03:18Z</time>
      </trkpt>
      <trkpt lat="45.04205" lon="6.08332">
        <ele>1487.114176</ele>
        <time>2013-07-14T15:03:23Z</time>
      </trkpt>
      <trkpt lat="45.04214" lon="6.08347">
        <ele>1491.50109</ele>
        <time>2013-07-14T15:03:28Z</time>
      </trkpt>
      <trkpt lat="45.04224" lon="6.08362">
        <ele>1479.603005</ele>
        <time>2013-07-14T15:03:33Z</time>
      </trkpt>
      <trkpt lat="45.04237" lon="6.08375">
        <ele>1459.806449</ele>
        <time>2013-07-14T15:03:38Z</time>
      </trkpt>
      <trkpt lat="45.04247" lon="6.08389">
        <ele>1459.892921</ele>
        <time>2013-07-14T15:03:43Z</time>
      </trkpt>
      <trkpt lat="45.04257" lon="6.08405">
        <ele>1460.129209</ele>
        <time>2013-07-14T15:03:48Z</time>
      </trkpt>
      <trkpt lat="45.04275" lon="6.08422">
        <ele>1416.378975</ele>
        <time>2013-07-14T15:03:53Z</time>
      </trkpt>
      <trkpt lat="45.04292" lon="6.08436">
        <ele>1404.431431</ele>
        <time>2013-07-14T15:03:58Z</time>
      </trkpt>
      <trkpt lat="45.04309" lon="6.08445">
        <ele>1399.235553</ele>
        <time>2013-07-14T15:04:03Z</time>
      </trkpt>
      <trkpt lat="45.04325" lon="6.08453">
        <ele>1389.021463</ele>
        <time>2013-07-14T15:04:08Z</time>
      </trkpt>
      <trkpt lat="45.04344" lon="6.08462">
        <ele>1392.367052</ele>
        <time>2013-07-14T15:04:13Z</time>
      </trkpt>
      <trkpt lat="45.04363" lon="6.08468">
        <ele>1394.785444</ele>
        <time>2013-07-14T15:04:18Z</time>
      </trkpt>
      <trkpt lat="45.04383" lon="6.08468">
        <ele>1403.955493</ele>
        <time>2013-07-14T15:04:23Z</time>
      </trkpt>
      <trkpt lat="45.04404" lon="6.0846">
        <ele>1414.091556</ele>
        <time>2013-07-14T15:04:28Z</time>
      </trkpt>
      <trkpt lat="45.04425" lon="6.08459">
        <ele>1435.251274</ele>
        <time>2013-07-14T15:04:33Z</time>
      </trkpt>
      <trkpt lat="45.04445" lon="6.08459">
        <ele>1440.898518</ele>
        <time>2013-07-14T15:04:38Z</time>
      </trkpt>
      <trkpt lat="45.04463" lon="6.08457">
        <ele>1447.796125</ele>
        <time>2013-07-14T15:04:43Z</time>
      </trkpt>
      <trkpt lat="45.04483" lon="6.08449">
        <ele>1440.222101</ele>
        <time>2013-07-14T15:04:48Z</time>
      </trkpt>
      <trkpt lat="45.04498" lon="6.08444">
        <ele>1448.37011</ele>
        <time>2013-07-14T15:04:53Z</time>
      </trkpt>
      <trkpt lat="45.04518" lon="6.08432">
        <ele>1437.676209</ele>
        <time>2013-07-14T15:04:58Z</time>
      </trkpt>
      <trkpt lat="45.04542" lon="6.08424">
        <ele>1422.289097</ele>
        <time>2013-07-14T15:05:03Z</time>
      </trkpt>
      <trkpt lat="45.04567" lon="6.08414">
        <ele>1394.693018</ele>
        <time>2013-07-14T15:05:08Z</time>
      </trkpt>
      <trkpt lat="45.04588" lon="6.08416">
        <ele>1397.600355</ele>
        <time>2013-07-14T15:05:13Z</time>
      </trkpt>
      <trkpt lat="45.04611" lon="6.0842">
        <ele>1397.059645</ele>
        <time>2013-07-14T15:05:18Z</time>
      </trkpt>
      <trkpt lat="45.04621" lon="6.08424">
        <ele>1393.727351</ele>
        <time>2013-07-14T15:05:23Z</time>
      </trkpt>
      <trkpt lat="45.04637" lon="6.08429">
        <ele>1397.541627</ele>
        <time>2013-07-14T15:05:28Z</time>
      </trkpt>
      <trkpt lat="45.04649" lon="6.0844">
        <ele>1379.709188</ele>
        <time>2013-07-14T15:05:33Z</time>
      </trkpt>
      <trkpt lat="45.04661" lon="6.08438">
        <ele>1346.243012</ele>
        <time>2013-07-14T15:05:38Z</time>
      </trkpt>
      <trkpt lat="45.04681" lon="6.08437">
        <ele>1346.170238</ele>
        <time>2013-07-14T15:05:43Z</time>
      </trkpt>
      <trkpt lat="45.04708" lon="6.08444">
        <ele>1394.75542</ele>
        <time>2013-07-14T15:05:48Z</time>
      </trkpt>
      <trkpt lat="45.04725" lon="6.08445">
        <ele>1396.865335</ele>
        <time>2013-07-14T15:05:53Z</time>
      </trkpt>
      <trkpt lat="45.04739" lon="6.08435">
        <ele>1405.486813</ele>
        <time>2013-07-14T15:05:58Z</time>
      </trkpt>
      <trkpt lat="45.04748" lon="6.08417">
        <ele>1409.332839</ele>
        <time>2013-07-14T15:06:03Z</time>
      </trkpt>
      <trkpt lat="45.04758" lon="6.08397">
        <ele>1414.514267</ele>
        <time>2013-07-14T15:06:08Z</time>
      </trkpt>
      <trkpt lat="45.04768" lon="6.08381">
        <ele>1419.217848</ele>
        <time>2013-07-14T15:06:13Z</time>
      </trkpt>
      <trkpt lat="45.04774" lon="6.08376">
        <ele>1436.644338</ele>
        <time>2013-07-14T15:06:18Z</time>
      </trkpt>
      <trkpt lat="45.04784" lon="6.08368">
        <ele>1448.928446</ele>
        <time>2013-07-14T15:06:23Z</time>
      </trkpt>
      <trkpt lat="45.04803" lon="6.08344">
        <ele>1418.366208</ele>
        <time>2013-07-14T15:06:28Z</time>
      </trkpt>
      <trkpt lat="45.04814" lon="6.08327">
        <ele>1400.361633</ele>
        <time>2013-07-14T15:06:33Z</time>
      </trkpt>
      <trkpt lat="45.04826" lon="6.0832">
        <ele>1387.824773</ele>
        <time>2013-07-14T15:06:38Z</time>
      </trkpt>
      <trkpt lat="45.04838" lon="6.08314">
        <ele>1378.960688</ele>
        <time>2013-07-14T15:06:43Z</time>
      </trkpt>
      <trkpt lat="45.04851" lon="6.08309">
        <ele>1366.573636</ele>
        <time>2013-07-14T15:06:48Z</time>
      </trkpt>
      <trkpt lat="45.04861" lon="6.08307">
        <ele>1374.926722</ele>
        <time>2013-07-14T15:06:53Z</time>
      </trkpt>
      <trkpt lat="45.04874" lon="6.08307">
        <ele>1401.145319</ele>
        <time>2013-07-14T15:06:58Z</time>
      </trkpt>
      <trkpt lat="45.04885" lon="6.08308">
        <ele>1413.251236</ele>
        <time>2013-07-14T15:07:03Z</time>
      </trkpt>
      <trkpt lat="45.04893" lon="6.08313">
        <ele>1431.212346</ele>
        <time>2013-07-14T15:07:08Z</time>
      </trkpt>
      <trkpt lat="45.04904" lon="6.08303">
        <ele>1432.065135</ele>
        <time>2013-07-14T15:07:13Z</time>
      </trkpt>
      <trkpt lat="45.04919" lon="6.08301">
        <ele>1436.836047</ele>
        <time>2013-07-14T15:07:18Z</time>
      </trkpt>
      <trkpt lat="45.04932" lon="6.08293">
        <ele>1437.071636</ele>
        <time>2013-07-14T15:07:23Z</time>
      </trkpt>
      <trkpt lat="45.04943" lon="6.08287">
        <ele>1436.664019</ele>
        <time>2013-07-14T15:07:28Z</time>
      </trkpt>
      <trkpt lat="45.04954" lon="6.08279">
        <ele>1436.181563</ele>
        <time>2013-07-14T15:07:33Z</time>
      </trkpt>
      <trkpt lat="45.04961" lon="6.08268">
        <ele>1436.24152</ele>
        <time>2013-07-14T15:07:38Z</time>
      </trkpt>
      <trkpt lat="45.04966" lon="6.08262">
        <ele>1438.000773</ele>
        <time>2013-07-14T15:07:43Z</time>
      </trkpt>
      <trkpt lat="45.04975" lon="6.08254">
        <ele>1435.395221</ele>
        <time>2013-07-14T15:07:48Z</time>
      </trkpt>
      <trkpt lat="45.04991" lon="6.08249">
        <ele>1440.021838</ele>
        <time>2013-07-14T15:07:53Z</time>
      </trkpt>
      <trkpt lat="45.05002" lon="6.08244">
        <ele>1441.807187</ele>
        <time>2013-07-14T15:07:58Z</time>
      </trkpt>
      <trkpt lat="45.05012" lon="6.08236">
        <ele>1440.61716</ele>
        <time>2013-07-14T15:08:03Z</time>
      </trkpt>
      <trkpt lat="45.05021" lon="6.08229">
        <ele>1443.727505</ele>
        <time>2013-07-14T15:08:08Z</time>
      </trkpt>
      <trkpt lat="45.05028" lon="6.08221">
        <ele>1446.757796</ele>
        <time>2013-07-14T15:08:13Z</time>
      </trkpt>
      <trkpt lat="45.05035" lon="6.08212">
        <ele>1448.377868</ele>
        <time>2013-07-14T15:08:18Z</time>
      </trkpt>
      <trkpt lat="45.05043" lon="6.08211">
        <ele>1441.910812</ele>
        <time>2013-07-14T15:08:23Z</time>
      </trkpt>
      <trkpt lat="45.05054" lon="6.0821">
        <ele>1431.861607</ele>
        <time>2013-07-14T15:08:28Z</time>
      </trkpt>
      <trkpt lat="45.05067" lon="6.0821">
        <ele>1424.787836</ele>
        <time>2013-07-14T15:08:33Z</time>
      </trkpt>
      <trkpt lat="45.0508" lon="6.08211">
        <ele>1417.714096</ele>
        <time>2013-07-14T15:08:38Z</time>
      </trkpt>
      <trkpt lat="45.05094" lon="6.08212">
        <ele>1412.055858</ele>
        <time>2013-07-14T15:08:43Z</time>
      </trkpt>
      <trkpt lat="45.0511" lon="6.08217">
        <ele>1415.168966</ele>
        <time>2013-07-14T15:08:48Z</time>
      </trkpt>
      <trkpt lat="45.05125" lon="6.08217">
        <ele>1398.084458</ele>
        <time>2013-07-14T15:08:53Z</time>
      </trkpt>
      <trkpt lat="45.05145" lon="6.08216">
        <ele>1381.015736</ele>
        <time>2013-07-14T15:08:58Z</time>
      </trkpt>
      <trkpt lat="45.05161" lon="6.08215">
        <ele>1379.449177</ele>
        <time>2013-07-14T15:09:03Z</time>
      </trkpt>
      <trkpt lat="45.05168" lon="6.08219">
        <ele>1405.941693</ele>
        <time>2013-07-14T15:09:08Z</time>
      </trkpt>
      <trkpt lat="45.0518" lon="6.08223">
        <ele>1408.964416</ele>
        <time>2013-07-14T15:09:13Z</time>
      </trkpt>
      <trkpt lat="45.05192" lon="6.08237">
        <ele>1410.468028</ele>
        <time>2013-07-14T15:09:18Z</time>
      </trkpt>
      <trkpt lat="45.05184" lon="6.08267">
        <ele>1448.426523</ele>
        <time>2013-07-14T15:09:23Z</time>
      </trkpt>
      <trkpt lat="45.05177" lon="6.0828">
        <ele>1463.400914</ele>
        <time>2013-07-14T15:09:28Z</time>
      </trkpt>
      <trkpt lat="45.0517" lon="6.08292">
        <ele>1460.595043</ele>
        <time>2013-07-14T15:09:33Z</time>
      </trkpt>
      <trkpt lat="45.05164" lon="6.08307">
        <ele>1434.528206</ele>
        <time>2013-07-14T15:09:38Z</time>
      </trkpt>
      <trkpt lat="45.05157" lon="6.08323">
        <ele>1431.244495</ele>
        <time>2013-07-14T15:09:43Z</time>
      </trkpt>
      <trkpt lat="45.05148" lon="6.08348">
        <ele>1441.246632</ele>
        <time>2013-07-14T15:09:48Z</time>
      </trkpt>
      <trkpt lat="45.05151" lon="6.08369">
        <ele>1447.473636</ele>
        <time>2013-07-14T15:09:53Z</time>
      </trkpt>
      <trkpt lat="45.05155" lon="6.08392">
        <ele>1468.660514</ele>
        <time>2013-07-14T15:09:58Z</time>
      </trkpt>
      <trkpt lat="45.05156" lon="6.08414">
        <ele>1462.892753</ele>
        <time>2013-07-14T15:10:03Z</time>
      </trkpt>
      <trkpt lat="45.05153" lon="6.0844">
        <ele>1471.511135</ele>
        <time>2013-07-14T15:10:08Z</time>
      </trkpt>
      <trkpt lat="45.05153" lon="6.08459">
        <ele>1466.290948</ele>
        <time>2013-07-14T15:10:13Z</time>
      </trkpt>
      <trkpt lat="45.05152" lon="6.08481">
        <ele>1464.743525</ele>
        <time>2013-07-14T15:10:18Z</time>
      </trkpt>
      <trkpt lat="45.05151" lon="6.08501">
        <ele>1468.059698</ele>
        <time>2013-07-14T15:10:23Z</time>
      </trkpt>
      <trkpt lat="45.05152" lon="6.08521">
        <ele>1469.970931</ele>
        <time>2013-07-14T15:10:28Z</time>
      </trkpt>
      <trkpt lat="45.05152" lon="6.08544">
        <ele>1473.43697</ele>
        <time>2013-07-14T15:10:33Z</time>
      </trkpt>
      <trkpt lat="45.05149" lon="6.08568">
        <ele>1474.85473</ele>
        <time>2013-07-14T15:10:38Z</time>
      </trkpt>
      <trkpt lat="45.05147" lon="6.08591">
        <ele>1473.377184</ele>
        <time>2013-07-14T15:10:43Z</time>
      </trkpt>
      <trkpt lat="45.05145" lon="6.08613">
        <ele>1469.009578</ele>
        <time>2013-07-14T15:10:48Z</time>
      </trkpt>
      <trkpt lat="45.0515" lon="6.08638">
        <ele>1466.930815</ele>
        <time>2013-07-14T15:10:53Z</time>
      </trkpt>
      <trkpt lat="45.05152" lon="6.08662">
        <ele>1471.892756</ele>
        <time>2013-07-14T15:10:58Z</time>
      </trkpt>
      <trkpt lat="45.05155" lon="6.08682">
        <ele>1470.286615</ele>
        <time>2013-07-14T15:11:03Z</time>
      </trkpt>
      <trkpt lat="45.05157" lon="6.08702">
        <ele>1465.785145</ele>
        <time>2013-07-14T15:11:08Z</time>
      </trkpt>
      <trkpt lat="45.05155" lon="6.08715">
        <ele>1450.941591</ele>
        <time>2013-07-14T15:11:13Z</time>
      </trkpt>
      <trkpt lat="45.05153" lon="6.08728">
        <ele>1436.098054</ele>
        <time>2013-07-14T15:11:18Z</time>
      </trkpt>
      <trkpt lat="45.05168" lon="6.08745">
        <ele>1454.132739</ele>
        <time>2013-07-14T15:11:23Z</time>
      </trkpt>
      <trkpt lat="45.05173" lon="6.08761">
        <ele>1459.288759</ele>
        <time>2013-07-14T15:11:28Z</time>
      </trkpt>
      <trkpt lat="45.05175" lon="6.08774">
        <ele>1461.45872</ele>
        <time>2013-07-14T15:11:33Z</time>
      </trkpt>
      <trkpt lat="45.0518" lon="6.08792">
        <ele>1459.00575</ele>
        <time>2013-07-14T15:11:38Z</time>
      </trkpt>
      <trkpt lat="45.05188" lon="6.08815">
        <ele>1473.791056</ele>
        <time>2013-07-14T15:11:43Z</time>
      </trkpt>
      <trkpt lat="45.05188" lon="6.08829">
        <ele>1466.153891</ele>
        <time>2013-07-14T15:11:48Z</time>
      </trkpt>
      <trkpt lat="45.05197" lon="6.08849">
        <ele>1480.794695</ele>
        <time>2013-07-14T15:11:53Z</time>
      </trkpt>
      <trkpt lat="45.05198" lon="6.08866">
        <ele>1477.543395</ele>
        <time>2013-07-14T15:11:58Z</time>
      </trkpt>
      <trkpt lat="45.05197" lon="6.08885">
        <ele>1479.375152</ele>
        <time>2013-07-14T15:12:03Z</time>
      </trkpt>
      <trkpt lat="45.05196" lon="6.08901">
        <ele>1482.462028</ele>
        <time>2013-07-14T15:12:08Z</time>
      </trkpt>
      <trkpt lat="45.05192" lon="6.08918">
        <ele>1480.605234</ele>
        <time>2013-07-14T15:12:13Z</time>
      </trkpt>
      <trkpt lat="45.05189" lon="6.08934">
        <ele>1477.338242</ele>
        <time>2013-07-14T15:12:18Z</time>
      </trkpt>
      <trkpt lat="45.05185" lon="6.08948">
        <ele>1477.444325</ele>
        <time>2013-07-14T15:12:23Z</time>
      </trkpt>
      <trkpt lat="45.05186" lon="6.08967">
        <ele>1480.691726</ele>
        <time>2013-07-14T15:12:28Z</time>
      </trkpt>
      <trkpt lat="45.05187" lon="6.08977">
        <ele>1501.822417</ele>
        <time>2013-07-14T15:12:33Z</time>
      </trkpt>
      <trkpt lat="45.05194" lon="6.08988">
        <ele>1520.228686</ele>
        <time>2013-07-14T15:12:38Z</time>
      </trkpt>
      <trkpt lat="45.05191" lon="6.09005">
        <ele>1515.55685</ele>
        <time>2013-07-14T15:12:43Z</time>
      </trkpt>
      <trkpt lat="45.05189" lon="6.09025">
        <ele>1508.214495</ele>
        <time>2013-07-14T15:12:48Z</time>
      </trkpt>
      <trkpt lat="45.05188" lon="6.09048">
        <ele>1493.976232</ele>
        <time>2013-07-14T15:12:53Z</time>
      </trkpt>
      <trkpt lat="45.05185" lon="6.09071">
        <ele>1476.912303</ele>
        <time>2013-07-14T15:12:58Z</time>
      </trkpt>
      <trkpt lat="45.05186" lon="6.0909">
        <ele>1476.631735</ele>
        <time>2013-07-14T15:13:03Z</time>
      </trkpt>
      <trkpt lat="45.05184" lon="6.09108">
        <ele>1474.855478</ele>
        <time>2013-07-14T15:13:08Z</time>
      </trkpt>
      <trkpt lat="45.05193" lon="6.0913">
        <ele>1488.236524</ele>
        <time>2013-07-14T15:13:13Z</time>
      </trkpt>
      <trkpt lat="45.05195" lon="6.09146">
        <ele>1496.980494</ele>
        <time>2013-07-14T15:13:18Z</time>
      </trkpt>
      <trkpt lat="45.05193" lon="6.09156">
        <ele>1501.097888</ele>
        <time>2013-07-14T15:13:23Z</time>
      </trkpt>
      <trkpt lat="45.05191" lon="6.09162">
        <ele>1505.698131</ele>
        <time>2013-07-14T15:13:28Z</time>
      </trkpt>
      <trkpt lat="45.05191" lon="6.09174">
        <ele>1507.155577</ele>
        <time>2013-07-14T15:13:33Z</time>
      </trkpt>
      <trkpt lat="45.05188" lon="6.09192">
        <ele>1501.851271</ele>
        <time>2013-07-14T15:13:38Z</time>
      </trkpt>
      <trkpt lat="45.05189" lon="6.09216">
        <ele>1499.683158</ele>
        <time>2013-07-14T15:13:43Z</time>
      </trkpt>
      <trkpt lat="45.05196" lon="6.09236">
        <ele>1504.442614</ele>
        <time>2013-07-14T15:13:48Z</time>
      </trkpt>
      <trkpt lat="45.05201" lon="6.09251">
        <ele>1511.004348</ele>
        <time>2013-07-14T15:13:53Z</time>
      </trkpt>
      <trkpt lat="45.05197" lon="6.09264">
        <ele>1513.153829</ele>
        <time>2013-07-14T15:13:58Z</time>
      </trkpt>
      <trkpt lat="45.05197" lon="6.0928">
        <ele>1514.83635</ele>
        <time>2013-07-14T15:14:03Z</time>
      </trkpt>
      <trkpt lat="45.05197" lon="6.09302">
        <ele>1516.116367</ele>
        <time>2013-07-14T15:14:08Z</time>
      </trkpt>
      <trkpt lat="45.05196" lon="6.09319">
        <ele>1519.278884</ele>
        <time>2013-07-14T15:14:13Z</time>
      </trkpt>
      <trkpt lat="45.05194" lon="6.09334">
        <ele>1522.29145</ele>
        <time>2013-07-14T15:14:18Z</time>
      </trkpt>
      <trkpt lat="45.05193" lon="6.09349">
        <ele>1526.011786</ele>
        <time>2013-07-14T15:14:23Z</time>
      </trkpt>
      <trkpt lat="45.05194" lon="6.09368">
        <ele>1527.849705</ele>
        <time>2013-07-14T15:14:28Z</time>
      </trkpt>
      <trkpt lat="45.05198" lon="6.09389">
        <ele>1526.952766</ele>
        <time>2013-07-14T15:14:33Z</time>
      </trkpt>
      <trkpt lat="45.05202" lon="6.09404">
        <ele>1529.284063</ele>
        <time>2013-07-14T15:14:38Z</time>
      </trkpt>
      <trkpt lat="45.05203" lon="6.09424">
        <ele>1525.481207</ele>
        <time>2013-07-14T15:14:43Z</time>
      </trkpt>
      <trkpt lat="45.05204" lon="6.09444">
        <ele>1520.268168</ele>
        <time>2013-07-14T15:14:48Z</time>
      </trkpt>
      <trkpt lat="45.05212" lon="6.0946">
        <ele>1519.794952</ele>
        <time>2013-07-14T15:14:53Z</time>
      </trkpt>
      <trkpt lat="45.0522" lon="6.09472">
        <ele>1520.506973</ele>
        <time>2013-07-14T15:14:58Z</time>
      </trkpt>
      <trkpt lat="45.05222" lon="6.09476">
        <ele>1519.332339</ele>
        <time>2013-07-14T15:15:03Z</time>
      </trkpt>
      <trkpt lat="45.0523" lon="6.09481">
        <ele>1520.999283</ele>
        <time>2013-07-14T15:15:08Z</time>
      </trkpt>
      <trkpt lat="45.05241" lon="6.09488">
        <ele>1521.421896</ele>
        <time>2013-07-14T15:15:13Z</time>
      </trkpt>
      <trkpt lat="45.05244" lon="6.09491">
        <ele>1519.469804</ele>
        <time>2013-07-14T15:15:18Z</time>
      </trkpt>
      <trkpt lat="45.05264" lon="6.09502">
        <ele>1521.489739</ele>
        <time>2013-07-14T15:15:23Z</time>
      </trkpt>
      <trkpt lat="45.0527" lon="6.09508">
        <ele>1519.703568</ele>
        <time>2013-07-14T15:15:28Z</time>
      </trkpt>
      <trkpt lat="45.05289" lon="6.09518">
        <ele>1521.643311</ele>
        <time>2013-07-14T15:15:33Z</time>
      </trkpt>
      <trkpt lat="45.05302" lon="6.09528">
        <ele>1520.10873</ele>
        <time>2013-07-14T15:15:38Z</time>
      </trkpt>
      <trkpt lat="45.05317" lon="6.09543">
        <ele>1524.525735</ele>
        <time>2013-07-14T15:15:43Z</time>
      </trkpt>
      <trkpt lat="45.05325" lon="6.09557">
        <ele>1524.605276</ele>
        <time>2013-07-14T15:15:48Z</time>
      </trkpt>
      <trkpt lat="45.0533" lon="6.09571">
        <ele>1527.56968</ele>
        <time>2013-07-14T15:15:53Z</time>
      </trkpt>
      <trkpt lat="45.05333" lon="6.09583">
        <ele>1528.968541</ele>
        <time>2013-07-14T15:15:58Z</time>
      </trkpt>
      <trkpt lat="45.05336" lon="6.09597">
        <ele>1531.219911</ele>
        <time>2013-07-14T15:16:03Z</time>
      </trkpt>
      <trkpt lat="45.05341" lon="6.09613">
        <ele>1532.141421</ele>
        <time>2013-07-14T15:16:08Z</time>
      </trkpt>
      <trkpt lat="45.05343" lon="6.09628">
        <ele>1535.170313</ele>
        <time>2013-07-14T15:16:13Z</time>
      </trkpt>
      <trkpt lat="45.05347" lon="6.09644">
        <ele>1535.384109</ele>
        <time>2013-07-14T15:16:18Z</time>
      </trkpt>
      <trkpt lat="45.05349" lon="6.0966">
        <ele>1538.488077</ele>
        <time>2013-07-14T15:16:23Z</time>
      </trkpt>
      <trkpt lat="45.05353" lon="6.09676">
        <ele>1540.112143</ele>
        <time>2013-07-14T15:16:28Z</time>
      </trkpt>
      <trkpt lat="45.05358" lon="6.09693">
        <ele>1536.883487</ele>
        <time>2013-07-14T15:16:33Z</time>
      </trkpt>
      <trkpt lat="45.05365" lon="6.09708">
        <ele>1536.330552</ele>
        <time>2013-07-14T15:16:38Z</time>
      </trkpt>
      <trkpt lat="45.0537" lon="6.09715">
        <ele>1538.844994</ele>
        <time>2013-07-14T15:16:43Z</time>
      </trkpt>
      <trkpt lat="45.05378" lon="6.09728">
        <ele>1538.924841</ele>
        <time>2013-07-14T15:16:48Z</time>
      </trkpt>
      <trkpt lat="45.05385" lon="6.0974">
        <ele>1531.095789</ele>
        <time>2013-07-14T15:16:53Z</time>
      </trkpt>
      <trkpt lat="45.05394" lon="6.09751">
        <ele>1531.030941</ele>
        <time>2013-07-14T15:16:58Z</time>
      </trkpt>
      <trkpt lat="45.05406" lon="6.09765">
        <ele>1536.065283</ele>
        <time>2013-07-14T15:17:03Z</time>
      </trkpt>
      <trkpt lat="45.05415" lon="6.09781">
        <ele>1539.828871</ele>
        <time>2013-07-14T15:17:08Z</time>
      </trkpt>
      <trkpt lat="45.05422" lon="6.09795">
        <ele>1543.506784</ele>
        <time>2013-07-14T15:17:13Z</time>
      </trkpt>
      <trkpt lat="45.05427" lon="6.0981">
        <ele>1545.061397</ele>
        <time>2013-07-14T15:17:18Z</time>
      </trkpt>
      <trkpt lat="45.05436" lon="6.09825">
        <ele>1543.811623</ele>
        <time>2013-07-14T15:17:23Z</time>
      </trkpt>
      <trkpt lat="45.05441" lon="6.09828">
        <ele>1545.393294</ele>
        <time>2013-07-14T15:17:28Z</time>
      </trkpt>
      <trkpt lat="45.05443" lon="6.09812">
        <ele>1550.138937</ele>
        <time>2013-07-14T15:17:33Z</time>
      </trkpt>
      <trkpt lat="45.05439" lon="6.09797">
        <ele>1553.522729</ele>
        <time>2013-07-14T15:17:38Z</time>
      </trkpt>
      <trkpt lat="45.05434" lon="6.09782">
        <ele>1554.011072</ele>
        <time>2013-07-14T15:17:43Z</time>
      </trkpt>
      <trkpt lat="45.05433" lon="6.09767">
        <ele>1555.995375</ele>
        <time>2013-07-14T15:17:48Z</time>
      </trkpt>
      <trkpt lat="45.05431" lon="6.09752">
        <ele>1557.202221</ele>
        <time>2013-07-14T15:17:53Z</time>
      </trkpt>
      <trkpt lat="45.05428" lon="6.09729">
        <ele>1559.433453</ele>
        <time>2013-07-14T15:17:58Z</time>
      </trkpt>
      <trkpt lat="45.05427" lon="6.09711">
        <ele>1559.080074</ele>
        <time>2013-07-14T15:18:03Z</time>
      </trkpt>
      <trkpt lat="45.05425" lon="6.09695">
        <ele>1558.796422</ele>
        <time>2013-07-14T15:18:08Z</time>
      </trkpt>
      <trkpt lat="45.05422" lon="6.0968">
        <ele>1560.775515</ele>
        <time>2013-07-14T15:18:13Z</time>
      </trkpt>
      <trkpt lat="45.0542" lon="6.09667">
        <ele>1562.834993</ele>
        <time>2013-07-14T15:18:18Z</time>
      </trkpt>
      <trkpt lat="45.05419" lon="6.09658">
        <ele>1562.304467</ele>
        <time>2013-07-14T15:18:23Z</time>
      </trkpt>
      <trkpt lat="45.05415" lon="6.09645">
        <ele>1560.830431</ele>
        <time>2013-07-14T15:18:28Z</time>
      </trkpt>
      <trkpt lat="45.0541" lon="6.09628">
        <ele>1559.828456</ele>
        <time>2013-07-14T15:18:33Z</time>
      </trkpt>
      <trkpt lat="45.05403" lon="6.0961">
        <ele>1565.164502</ele>
        <time>2013-07-14T15:18:38Z</time>
      </trkpt>
      <trkpt lat="45.054" lon="6.09595">
        <ele>1566.441283</ele>
        <time>2013-07-14T15:18:43Z</time>
      </trkpt>
      <trkpt lat="45.05399" lon="6.09583">
        <ele>1566.388213</ele>
        <time>2013-07-14T15:18:48Z</time>
      </trkpt>
      <trkpt lat="45.05398" lon="6.09568">
        <ele>1567.670361</ele>
        <time>2013-07-14T15:18:53Z</time>
      </trkpt>
      <trkpt lat="45.05398" lon="6.09552">
        <ele>1567.397609</ele>
        <time>2013-07-14T15:18:58Z</time>
      </trkpt>
      <trkpt lat="45.05397" lon="6.09538">
        <ele>1567.269581</ele>
        <time>2013-07-14T15:19:03Z</time>
      </trkpt>
      <trkpt lat="45.05394" lon="6.09527">
        <ele>1573.002156</ele>
        <time>2013-07-14T15:19:08Z</time>
      </trkpt>
      <trkpt lat="45.05393" lon="6.09514">
        <ele>1582.895716</ele>
        <time>2013-07-14T15:19:13Z</time>
      </trkpt>
      <trkpt lat="45.05396" lon="6.09498">
        <ele>1576.992825</ele>
        <time>2013-07-14T15:19:18Z</time>
      </trkpt>
      <trkpt lat="45.05395" lon="6.09483">
        <ele>1580.318076</ele>
        <time>2013-07-14T15:19:23Z</time>
      </trkpt>
      <trkpt lat="45.05395" lon="6.09467">
        <ele>1582.233132</ele>
        <time>2013-07-14T15:19:28Z</time>
      </trkpt>
      <trkpt lat="45.05394" lon="6.09451">
        <ele>1584.148212</ele>
        <time>2013-07-14T15:19:33Z</time>
      </trkpt>
      <trkpt lat="45.05395" lon="6.09438">
        <ele>1582.615427</ele>
        <time>2013-07-14T15:19:38Z</time>
      </trkpt>
      <trkpt lat="45.05393" lon="6.09422">
        <ele>1583.822779</ele>
        <time>2013-07-14T15:19:43Z</time>
      </trkpt>
      <trkpt lat="45.05392" lon="6.09406">
        <ele>1581.426946</ele>
        <time>2013-07-14T15:19:48Z</time>
      </trkpt>
      <trkpt lat="45.05391" lon="6.09387">
        <ele>1575.358261</ele>
        <time>2013-07-14T15:19:53Z</time>
      </trkpt>
      <trkpt lat="45.05384" lon="6.09372">
        <ele>1574.501403</ele>
        <time>2013-07-14T15:19:58Z</time>
      </trkpt>
      <trkpt lat="45.05375" lon="6.09365">
        <ele>1571.971213</ele>
        <time>2013-07-14T15:20:03Z</time>
      </trkpt>
      <trkpt lat="45.05364" lon="6.09359">
        <ele>1575.151603</ele>
        <time>2013-07-14T15:20:08Z</time>
      </trkpt>
      <trkpt lat="45.0535" lon="6.09352">
        <ele>1564.138878</ele>
        <time>2013-07-14T15:20:13Z</time>
      </trkpt>
      <trkpt lat="45.05338" lon="6.09343">
        <ele>1565.753817</ele>
        <time>2013-07-14T15:20:18Z</time>
      </trkpt>
      <trkpt lat="45.05327" lon="6.09333">
        <ele>1565.181123</ele>
        <time>2013-07-14T15:20:23Z</time>
      </trkpt>
      <trkpt lat="45.05315" lon="6.09324">
        <ele>1576.737364</ele>
        <time>2013-07-14T15:20:28Z</time>
      </trkpt>
      <trkpt lat="45.05301" lon="6.09312">
        <ele>1588.846133</ele>
        <time>2013-07-14T15:20:33Z</time>
      </trkpt>
      <trkpt lat="45.05296" lon="6.09293">
        <ele>1592.000513</ele>
        <time>2013-07-14T15:20:38Z</time>
      </trkpt>
      <trkpt lat="45.05291" lon="6.09278">
        <ele>1598.205619</ele>
        <time>2013-07-14T15:20:43Z</time>
      </trkpt>
      <trkpt lat="45.05296" lon="6.09259">
        <ele>1594.903836</ele>
        <time>2013-07-14T15:20:48Z</time>
      </trkpt>
      <trkpt lat="45.05302" lon="6.09239">
        <ele>1595.843359</ele>
        <time>2013-07-14T15:20:53Z</time>
      </trkpt>
      <trkpt lat="45.05307" lon="6.09222">
        <ele>1594.101832</ele>
        <time>2013-07-14T15:20:58Z</time>
      </trkpt>
      <trkpt lat="45.0531" lon="6.09204">
        <ele>1591.652576</ele>
        <time>2013-07-14T15:21:03Z</time>
      </trkpt>
      <trkpt lat="45.05312" lon="6.09187">
        <ele>1591.310734</ele>
        <time>2013-07-14T15:21:08Z</time>
      </trkpt>
      <trkpt lat="45.05314" lon="6.0917">
        <ele>1592.459416</ele>
        <time>2013-07-14T15:21:13Z</time>
      </trkpt>
      <trkpt lat="45.05316" lon="6.09155">
        <ele>1592.267567</ele>
        <time>2013-07-14T15:21:18Z</time>
      </trkpt>
      <trkpt lat="45.05317" lon="6.0914">
        <ele>1594.896189</ele>
        <time>2013-07-14T15:21:23Z</time>
      </trkpt>
      <trkpt lat="45.05317" lon="6.09123">
        <ele>1596.736807</ele>
        <time>2013-07-14T15:21:28Z</time>
      </trkpt>
      <trkpt lat="45.05317" lon="6.09108">
        <ele>1597.949951</ele>
        <time>2013-07-14T15:21:33Z</time>
      </trkpt>
      <trkpt lat="45.05315" lon="6.09091">
        <ele>1598.375097</ele>
        <time>2013-07-14T15:21:38Z</time>
      </trkpt>
      <trkpt lat="45.05312" lon="6.09075">
        <ele>1600.982615</ele>
        <time>2013-07-14T15:21:43Z</time>
      </trkpt>
      <trkpt lat="45.05315" lon="6.09057">
        <ele>1600.646296</ele>
        <time>2013-07-14T15:21:48Z</time>
      </trkpt>
      <trkpt lat="45.05317" lon="6.0904">
        <ele>1597.489558</ele>
        <time>2013-07-14T15:21:53Z</time>
      </trkpt>
      <trkpt lat="45.05319" lon="6.09023">
        <ele>1598.633176</ele>
        <time>2013-07-14T15:21:58Z</time>
      </trkpt>
      <trkpt lat="45.05323" lon="6.09005">
        <ele>1599.637527</ele>
        <time>2013-07-14T15:22:03Z</time>
      </trkpt>
      <trkpt lat="45.05326" lon="6.08989">
        <ele>1602.271678</ele>
        <time>2013-07-14T15:22:08Z</time>
      </trkpt>
      <trkpt lat="45.05331" lon="6.08973">
        <ele>1603.431287</ele>
        <time>2013-07-14T15:22:13Z</time>
      </trkpt>
      <trkpt lat="45.05337" lon="6.08959">
        <ele>1602.553182</ele>
        <time>2013-07-14T15:22:18Z</time>
      </trkpt>
      <trkpt lat="45.05345" lon="6.08946">
        <ele>1605.35851</ele>
        <time>2013-07-14T15:22:23Z</time>
      </trkpt>
      <trkpt lat="45.05351" lon="6.08933">
        <ele>1608.083618</ele>
        <time>2013-07-14T15:22:28Z</time>
      </trkpt>
      <trkpt lat="45.0536" lon="6.08919">
        <ele>1611.521828</ele>
        <time>2013-07-14T15:22:33Z</time>
      </trkpt>
      <trkpt lat="45.05366" lon="6.08905">
        <ele>1612.761828</ele>
        <time>2013-07-14T15:22:38Z</time>
      </trkpt>
      <trkpt lat="45.05374" lon="6.08889">
        <ele>1613.932235</ele>
        <time>2013-07-14T15:22:43Z</time>
      </trkpt>
      <trkpt lat="45.05382" lon="6.08874">
        <ele>1615.885381</ele>
        <time>2013-07-14T15:22:48Z</time>
      </trkpt>
      <trkpt lat="45.05389" lon="6.08861">
        <ele>1616.497948</ele>
        <time>2013-07-14T15:22:53Z</time>
      </trkpt>
      <trkpt lat="45.05398" lon="6.08845">
        <ele>1616.966004</ele>
        <time>2013-07-14T15:22:58Z</time>
      </trkpt>
      <trkpt lat="45.05403" lon="6.08829">
        <ele>1618.125914</ele>
        <time>2013-07-14T15:23:03Z</time>
      </trkpt>
      <trkpt lat="45.0541" lon="6.08813">
        <ele>1622.111631</ele>
        <time>2013-07-14T15:23:08Z</time>
      </trkpt>
      <trkpt lat="45.05416" lon="6.08798">
        <ele>1623.351847</ele>
        <time>2013-07-14T15:23:13Z</time>
      </trkpt>
      <trkpt lat="45.05422" lon="6.0878">
        <ele>1624.436931</ele>
        <time>2013-07-14T15:23:18Z</time>
      </trkpt>
      <trkpt lat="45.05425" lon="6.08763">
        <ele>1622.690945</ele>
        <time>2013-07-14T15:23:23Z</time>
      </trkpt>
      <trkpt lat="45.05429" lon="6.08745">
        <ele>1619.46517</ele>
        <time>2013-07-14T15:23:28Z</time>
      </trkpt>
      <trkpt lat="45.05435" lon="6.08725">
        <ele>1618.28785</ele>
        <time>2013-07-14T15:23:33Z</time>
      </trkpt>
      <trkpt lat="45.05443" lon="6.08709">
        <ele>1620.166418</ele>
        <time>2013-07-14T15:23:38Z</time>
      </trkpt>
      <trkpt lat="45.05451" lon="6.08692">
        <ele>1623.375017</ele>
        <time>2013-07-14T15:23:43Z</time>
      </trkpt>
      <trkpt lat="45.05454" lon="6.08673">
        <ele>1620.144061</ele>
        <time>2013-07-14T15:23:48Z</time>
      </trkpt>
      <trkpt lat="45.05456" lon="6.08654">
        <ele>1619.025821</ele>
        <time>2013-07-14T15:23:53Z</time>
      </trkpt>
      <trkpt lat="45.05457" lon="6.08634">
        <ele>1620.647847</ele>
        <time>2013-07-14T15:23:58Z</time>
      </trkpt>
      <trkpt lat="45.05459" lon="6.08615">
        <ele>1619.529681</ele>
        <time>2013-07-14T15:24:03Z</time>
      </trkpt>
      <trkpt lat="45.05464" lon="6.08597">
        <ele>1619.12466</ele>
        <time>2013-07-14T15:24:08Z</time>
      </trkpt>
      <trkpt lat="45.05468" lon="6.08578">
        <ele>1618.017227</ele>
        <time>2013-07-14T15:24:13Z</time>
      </trkpt>
      <trkpt lat="45.05472" lon="6.08559">
        <ele>1616.904499</ele>
        <time>2013-07-14T15:24:18Z</time>
      </trkpt>
      <trkpt lat="45.05474" lon="6.08538">
        <ele>1619.15961</ele>
        <time>2013-07-14T15:24:23Z</time>
      </trkpt>
      <trkpt lat="45.05476" lon="6.08519">
        <ele>1620.862091</ele>
        <time>2013-07-14T15:24:28Z</time>
      </trkpt>
      <trkpt lat="45.05476" lon="6.08499">
        <ele>1626.08219</ele>
        <time>2013-07-14T15:24:33Z</time>
      </trkpt>
      <trkpt lat="45.05483" lon="6.08485">
        <ele>1627.397821</ele>
        <time>2013-07-14T15:24:38Z</time>
      </trkpt>
      <trkpt lat="45.05491" lon="6.08471">
        <ele>1627.233701</ele>
        <time>2013-07-14T15:24:43Z</time>
      </trkpt>
      <trkpt lat="45.055" lon="6.08453">
        <ele>1629.67078</ele>
        <time>2013-07-14T15:24:48Z</time>
      </trkpt>
      <trkpt lat="45.05506" lon="6.08433">
        <ele>1632.724802</ele>
        <time>2013-07-14T15:24:53Z</time>
      </trkpt>
      <trkpt lat="45.05508" lon="6.08415">
        <ele>1631.681898</ele>
        <time>2013-07-14T15:24:58Z</time>
      </trkpt>
      <trkpt lat="45.0551" lon="6.08394">
        <ele>1629.706626</ele>
        <time>2013-07-14T15:25:03Z</time>
      </trkpt>
      <trkpt lat="45.05512" lon="6.08372">
        <ele>1626.321164</ele>
        <time>2013-07-14T15:25:08Z</time>
      </trkpt>
      <trkpt lat="45.05515" lon="6.08353">
        <ele>1625.133973</ele>
        <time>2013-07-14T15:25:13Z</time>
      </trkpt>
      <trkpt lat="45.05518" lon="6.08333">
        <ele>1623.941482</ele>
        <time>2013-07-14T15:25:18Z</time>
      </trkpt>
      <trkpt lat="45.05518" lon="6.08311">
        <ele>1625.48396</ele>
        <time>2013-07-14T15:25:23Z</time>
      </trkpt>
      <trkpt lat="45.05519" lon="6.0829">
        <ele>1625.696448</ele>
        <time>2013-07-14T15:25:28Z</time>
      </trkpt>
      <trkpt lat="45.05521" lon="6.08268">
        <ele>1629.362378</ele>
        <time>2013-07-14T15:25:33Z</time>
      </trkpt>
      <trkpt lat="45.05521" lon="6.08247">
        <ele>1631.61278</ele>
        <time>2013-07-14T15:25:38Z</time>
      </trkpt>
      <trkpt lat="45.05518" lon="6.08224">
        <ele>1628.131416</ele>
        <time>2013-07-14T15:25:43Z</time>
      </trkpt>
      <trkpt lat="45.05516" lon="6.08202">
        <ele>1628.258551</ele>
        <time>2013-07-14T15:25:48Z</time>
      </trkpt>
      <trkpt lat="45.05512" lon="6.08181">
        <ele>1629.860138</ele>
        <time>2013-07-14T15:25:53Z</time>
      </trkpt>
      <trkpt lat="45.05508" lon="6.08158">
        <ele>1627.783828</ele>
        <time>2013-07-14T15:25:58Z</time>
      </trkpt>
      <trkpt lat="45.05503" lon="6.08138">
        <ele>1630.865255</ele>
        <time>2013-07-14T15:26:03Z</time>
      </trkpt>
      <trkpt lat="45.05501" lon="6.08117">
        <ele>1631.769865</ele>
        <time>2013-07-14T15:26:08Z</time>
      </trkpt>
      <trkpt lat="45.05502" lon="6.08093">
        <ele>1632.466014</ele>
        <time>2013-07-14T15:26:13Z</time>
      </trkpt>
      <trkpt lat="45.05508" lon="6.08068">
        <ele>1638.111389</ele>
        <time>2013-07-14T15:26:18Z</time>
      </trkpt>
      <trkpt lat="45.05516" lon="6.08046">
        <ele>1638.909159</ele>
        <time>2013-07-14T15:26:23Z</time>
      </trkpt>
      <trkpt lat="45.05527" lon="6.08026">
        <ele>1640.500279</ele>
        <time>2013-07-14T15:26:28Z</time>
      </trkpt>
      <trkpt lat="45.05538" lon="6.08005">
        <ele>1642.091466</ele>
        <time>2013-07-14T15:26:33Z</time>
      </trkpt>
      <trkpt lat="45.0555" lon="6.07984">
        <ele>1642.980272</ele>
        <time>2013-07-14T15:26:38Z</time>
      </trkpt>
      <trkpt lat="45.05557" lon="6.07963">
        <ele>1643.847763</ele>
        <time>2013-07-14T15:26:43Z</time>
      </trkpt>
      <trkpt lat="45.05561" lon="6.07947">
        <ele>1650.644831</ele>
        <time>2013-07-14T15:26:48Z</time>
      </trkpt>
      <trkpt lat="45.05562" lon="6.07924">
        <ele>1644.359669</ele>
        <time>2013-07-14T15:26:53Z</time>
      </trkpt>
      <trkpt lat="45.05559" lon="6.07899">
        <ele>1642.139621</ele>
        <time>2013-07-14T15:26:58Z</time>
      </trkpt>
      <trkpt lat="45.05547" lon="6.07877">
        <ele>1640.889258</ele>
        <time>2013-07-14T15:27:03Z</time>
      </trkpt>
      <trkpt lat="45.05537" lon="6.07864">
        <ele>1637.980443</ele>
        <time>2013-07-14T15:27:08Z</time>
      </trkpt>
      <trkpt lat="45.05522" lon="6.07866">
        <ele>1645.974612</ele>
        <time>2013-07-14T15:27:13Z</time>
      </trkpt>
      <trkpt lat="45.055" lon="6.07853">
        <ele>1648.808451</ele>
        <time>2013-07-14T15:27:18Z</time>
      </trkpt>
      <trkpt lat="45.0548" lon="6.07847">
        <ele>1652.02174</ele>
        <time>2013-07-14T15:27:23Z</time>
      </trkpt>
      <trkpt lat="45.05464" lon="6.07847">
        <ele>1644.981467</ele>
        <time>2013-07-14T15:27:28Z</time>
      </trkpt>
      <trkpt lat="45.05452" lon="6.07827">
        <ele>1633.854418</ele>
        <time>2013-07-14T15:27:33Z</time>
      </trkpt>
      <trkpt lat="45.05429" lon="6.07812">
        <ele>1655.724203</ele>
        <time>2013-07-14T15:27:38Z</time>
      </trkpt>
      <trkpt lat="45.0541" lon="6.07787">
        <ele>1650.764614</ele>
        <time>2013-07-14T15:27:43Z</time>
      </trkpt>
      <trkpt lat="45.05393" lon="6.07778">
        <ele>1654.477596</ele>
        <time>2013-07-14T15:27:48Z</time>
      </trkpt>
      <trkpt lat="45.05385" lon="6.07771">
        <ele>1657.669554</ele>
        <time>2013-07-14T15:27:53Z</time>
      </trkpt>
    </trkseg>
  </trk>
</gpx>